ECMWFNIL_prec_pwat_063.txt.gz
Precipitable_Water
0.90 0.83 0.80 0.78 0.73 0.72 0.76 0.77 0.77 0.74 0.72 0.71 0.68 0.70 0.69 0.67 0.67 0.63 0.61 0.61 0.60 0.58 0.56 0.58 0.60 0.58 0.54 0.49 0.44 0.42 0.40 0.40 0.41 0.44 0.45 0.45 0.44 0.43 0.42 0.44 0.49 0.53
0.89 0.86 0.83 0.79 0.75 0.78 0.80 0.79 0.78 0.74 0.72 0.72 0.72 0.73 0.72 0.68 0.66 0.62 0.57 0.55 0.57 0.57 0.57 0.56 0.55 0.51 0.47 0.48 0.47 0.46 0.45 0.43 0.41 0.44 0.42 0.41 0.41 0.40 0.40 0.43 0.48 0.53
0.90 0.87 0.84 0.79 0.78 0.80 0.82 0.82 0.80 0.76 0.75 0.75 0.74 0.72 0.71 0.69 0.65 0.62 0.60 0.57 0.56 0.57 0.56 0.55 0.53 0.53 0.52 0.51 0.49 0.46 0.44 0.43 0.42 0.43 0.41 0.40 0.40 0.37 0.35 0.37 0.45 0.52
0.92 0.88 0.86 0.84 0.84 0.84 0.84 0.82 0.79 0.79 0.80 0.76 0.73 0.73 0.70 0.67 0.65 0.65 0.66 0.66 0.62 0.59 0.58 0.59 0.58 0.58 0.56 0.55 0.54 0.52 0.50 0.47 0.46 0.45 0.42 0.42 0.41 0.40 0.37 0.36 0.38 0.48
0.95 0.92 0.90 0.87 0.86 0.86 0.84 0.81 0.80 0.81 0.80 0.79 0.77 0.74 0.68 0.69 0.69 0.69 0.69 0.69 0.67 0.67 0.68 0.66 0.65 0.64 0.63 0.61 0.61 0.58 0.57 0.55 0.55 0.52 0.49 0.46 0.46 0.45 0.43 0.40 0.37 0.37
1.00 0.97 0.94 0.88 0.86 0.83 0.83 0.82 0.83 0.83 0.83 0.80 0.77 0.73 0.72 0.76 0.74 0.71 0.72 0.74 0.77 0.75 0.71 0.71 0.72 0.72 0.70 0.71 0.72 0.69 0.68 0.66 0.64 0.62 0.58 0.54 0.53 0.54 0.51 0.48 0.45 0.40
0.98 0.99 0.96 0.92 0.86 0.84 0.84 0.85 0.85 0.86 0.84 0.83 0.80 0.73 0.77 0.78 0.76 0.75 0.76 0.78 0.78 0.76 0.74 0.76 0.76 0.76 0.80 0.82 0.82 0.79 0.79 0.79 0.78 0.77 0.71 0.70 0.69 0.66 0.61 0.56 0.53 0.51
1.02 1.02 0.99 0.93 0.89 0.85 0.84 0.84 0.84 0.85 0.86 0.84 0.79 0.76 0.78 0.78 0.77 0.77 0.78 0.78 0.76 0.75 0.77 0.80 0.81 0.83 0.86 0.87 0.85 0.85 0.87 0.90 0.84 0.82 0.79 0.78 0.79 0.76 0.76 0.74 0.68 0.57
1.06 1.04 1.03 0.98 0.91 0.85 0.83 0.87 0.87 0.87 0.86 0.83 0.79 0.77 0.80 0.80 0.78 0.78 0.77 0.77 0.77 0.77 0.77 0.80 0.82 0.86 0.91 0.90 0.89 0.88 0.90 0.91 0.91 0.89 0.86 0.86 0.84 0.83 0.83 0.84 0.82 0.77
1.09 1.10 1.09 1.05 1.00 0.93 0.89 0.91 0.92 0.90 0.86 0.83 0.80 0.78 0.79 0.82 0.79 0.79 0.77 0.78 0.76 0.77 0.78 0.79 0.82 0.87 0.93 0.94 0.92 0.93 0.92 0.91 0.93 0.93 0.93 0.94 0.93 0.90 0.91 0.91 0.88 0.87
1.13 1.14 1.15 1.10 1.06 0.98 0.97 0.98 1.00 0.96 0.92 0.86 0.82 0.78 0.80 0.81 0.80 0.80 0.78 0.78 0.76 0.78 0.79 0.81 0.85 0.86 0.92 0.96 0.96 0.97 0.94 0.95 0.96 1.00 1.00 0.98 0.99 0.98 0.98 0.97 0.94 0.92
1.11 1.06 1.04 1.11 1.13 1.06 1.01 0.99 1.01 1.03 0.99 0.94 0.88 0.80 0.79 0.82 0.79 0.79 0.77 0.79 0.79 0.83 0.87 0.89 0.93 0.95 0.97 1.00 1.01 1.00 0.98 1.00 1.03 1.03 1.03 1.03 1.05 1.05 1.05 1.03 1.00 0.98
1.02 1.06 1.08 1.07 1.14 1.13 1.11 1.07 1.03 1.05 1.05 0.98 0.94 0.85 0.79 0.82 0.82 0.79 0.79 0.83 0.86 0.87 0.87 0.91 0.97 1.01 1.01 1.02 1.03 1.03 1.05 1.02 1.00 1.02 1.03 1.04 1.03 1.04 1.04 1.06 1.03 1.02
1.06 1.07 1.11 1.11 1.12 1.17 1.11 1.06 1.05 1.05 1.02 0.98 0.93 0.87 0.82 0.82 0.82 0.82 0.84 0.86 0.87 0.88 0.91 0.96 0.99 1.02 1.05 1.05 1.04 1.01 1.04 1.06 1.01 0.95 0.92 0.94 0.95 0.98 1.00 1.01 1.06 1.08
1.08 1.10 1.08 1.07 1.09 1.11 1.10 1.07 1.08 1.09 1.05 0.99 0.95 0.92 0.84 0.80 0.88 0.87 0.86 0.83 0.86 0.88 0.90 0.93 0.95 0.98 1.01 1.02 1.00 0.94 1.00 1.02 0.97 0.92 0.90 0.91 0.92 0.95 0.99 0.98 1.02 1.06
1.04 1.04 1.02 1.01 1.00 1.03 1.05 1.08 1.09 1.11 1.09 1.03 0.97 0.96 0.93 0.91 0.91 0.91 0.88 0.85 0.84 0.86 0.88 0.90 0.94 0.98 0.99 0.99 0.99 0.95 0.97 0.97 0.96 0.94 0.92 0.93 0.93 0.94 0.95 0.99 1.01 1.03
1.01 1.02 1.03 0.99 0.97 0.99 1.02 0.99 1.00 1.04 1.08 1.02 1.02 1.00 0.98 0.94 0.89 0.86 0.84 0.83 0.84 0.86 0.88 0.90 0.94 0.97 0.98 0.97 0.99 1.00 1.00 0.97 0.92 0.91 0.93 0.91 0.91 0.91 0.89 0.91 0.94 0.98
1.03 1.02 1.02 1.03 1.02 1.00 1.02 1.05 1.03 1.03 1.03 1.02 1.01 1.00 1.00 0.98 0.90 0.87 0.87 0.87 0.87 0.88 0.88 0.90 0.94 0.99 0.99 0.98 0.99 1.00 1.00 0.96 0.93 0.89 0.89 0.90 0.90 0.89 0.89 0.88 0.90 0.94
1.01 0.99 0.97 0.96 0.98 0.99 1.02 1.06 1.08 1.05 1.02 0.99 0.99 0.97 0.96 0.94 0.93 0.91 0.89 0.90 0.88 0.87 0.88 0.93 0.97 1.00 0.99 0.97 0.94 0.93 0.94 0.95 0.94 0.91 0.90 0.90 0.91 0.90 0.89 0.89 0.89 0.90
0.95 0.95 0.95 0.96 0.98 0.97 1.00 1.03 1.07 1.04 1.03 1.04 1.03 1.00 0.95 0.95 0.96 0.95 0.94 0.93 0.92 0.92 0.94 0.98 0.98 0.98 0.96 0.94 0.93 0.94 0.95 0.95 0.95 0.94 0.95 0.92 0.89 0.88 0.86 0.87 0.89 0.87
0.94 0.95 0.95 0.96 0.98 0.99 1.01 1.00 1.02 1.02 0.99 0.98 0.99 1.00 0.98 0.95 0.95 0.97 0.96 0.94 0.93 0.93 0.93 0.93 0.94 0.95 0.94 0.94 0.93 0.94 0.94 0.92 0.91 0.87 0.84 0.84 0.82 0.81 0.80 0.79 0.79 0.76
0.90 0.92 0.96 0.95 0.97 1.01 0.99 0.98 0.99 0.97 0.95 0.98 0.98 0.99 1.01 0.98 0.94 0.95 0.95 0.92 0.92 0.93 0.89 0.87 0.89 0.92 0.92 0.90 0.90 0.90 0.89 0.88 0.84 0.79 0.76 0.75 0.71 0.69 0.70 0.71 0.71 0.68
0.88 0.89 0.88 0.87 0.90 0.91 0.90 0.92 0.93 0.93 0.92 0.92 0.87 0.90 0.93 0.93 0.92 0.94 0.96 0.93 0.91 0.89 0.85 0.84 0.87 0.91 0.91 0.88 0.87 0.86 0.84 0.82 0.76 0.71 0.70 0.69 0.65 0.63 0.62 0.64 0.65 0.65
0.90 0.89 0.85 0.84 0.81 0.78 0.80 0.82 0.86 0.87 0.86 0.88 0.86 0.88 0.89 0.91 0.91 0.91 0.91 0.90 0.87 0.84 0.82 0.80 0.83 0.87 0.85 0.80 0.79 0.77 0.73 0.70 0.69 0.62 0.61 0.62 0.63 0.63 0.63 0.62 0.62 0.62
0.78 0.84 0.87 0.86 0.88 0.86 0.86 0.85 0.86 0.86 0.90 0.93 0.91 0.88 0.86 0.87 0.85 0.82 0.82 0.84 0.82 0.77 0.74 0.72 0.69 0.70 0.70 0.69 0.69 0.67 0.62 0.67 0.67 0.62 0.59 0.60 0.60 0.59 0.60 0.60 0.60 0.60
0.74 0.73 0.77 0.82 0.81 0.84 0.83 0.84 0.85 0.85 0.86 0.86 0.83 0.82 0.78 0.78 0.78 0.78 0.75 0.75 0.76 0.72 0.66 0.63 0.57 0.54 0.58 0.57 0.58 0.59 0.59 0.66 0.65 0.60 0.58 0.59 0.60 0.60 0.58 0.59 0.58 0.59

ECMWFNIL_prec_pwat_066.txt.gz
Precipitable_Water
0.90 0.97 0.90 0.90 0.88 0.83 0.78 0.79 0.81 0.79 0.78 0.76 0.74 0.75 0.74 0.74 0.77 0.73 0.71 0.71 0.69 0.65 0.60 0.57 0.56 0.55 0.53 0.51 0.50 0.52 0.55 0.53 0.53 0.53 0.55 0.55 0.55 0.57 0.57 0.60 0.65 0.71
0.97 1.01 0.96 0.93 0.87 0.85 0.84 0.85 0.84 0.82 0.77 0.77 0.78 0.76 0.75 0.72 0.75 0.72 0.70 0.67 0.65 0.60 0.57 0.55 0.53 0.49 0.46 0.44 0.45 0.47 0.49 0.48 0.45 0.47 0.45 0.47 0.48 0.52 0.54 0.56 0.59 0.65
1.02 1.00 0.95 0.85 0.80 0.83 0.85 0.85 0.82 0.80 0.75 0.77 0.77 0.73 0.70 0.72 0.72 0.72 0.69 0.66 0.62 0.58 0.56 0.52 0.47 0.46 0.46 0.45 0.45 0.44 0.43 0.42 0.41 0.42 0.42 0.43 0.45 0.47 0.53 0.56 0.58 0.59
1.04 0.96 0.87 0.84 0.83 0.83 0.84 0.83 0.84 0.81 0.76 0.73 0.72 0.72 0.71 0.71 0.70 0.71 0.69 0.65 0.59 0.57 0.55 0.50 0.49 0.50 0.49 0.48 0.46 0.45 0.44 0.43 0.43 0.41 0.37 0.40 0.42 0.44 0.49 0.55 0.57 0.56
1.01 0.93 0.90 0.87 0.84 0.84 0.85 0.84 0.83 0.78 0.74 0.75 0.76 0.75 0.73 0.70 0.68 0.70 0.69 0.66 0.63 0.61 0.58 0.56 0.57 0.56 0.55 0.53 0.51 0.48 0.48 0.46 0.46 0.43 0.39 0.37 0.40 0.42 0.47 0.53 0.56 0.55
1.05 0.97 0.93 0.87 0.86 0.87 0.87 0.85 0.81 0.79 0.79 0.78 0.75 0.75 0.72 0.70 0.70 0.71 0.71 0.68 0.66 0.63 0.61 0.61 0.60 0.60 0.59 0.58 0.57 0.55 0.55 0.53 0.52 0.49 0.45 0.41 0.39 0.40 0.45 0.52 0.54 0.55
1.04 1.00 0.93 0.92 0.92 0.92 0.90 0.87 0.83 0.83 0.82 0.80 0.77 0.72 0.71 0.73 0.75 0.76 0.77 0.75 0.74 0.73 0.70 0.68 0.67 0.67 0.67 0.67 0.66 0.64 0.64 0.61 0.59 0.58 0.54 0.50 0.46 0.43 0.43 0.45 0.53 0.57
1.04 1.02 0.98 0.96 0.93 0.92 0.88 0.85 0.82 0.83 0.84 0.80 0.73 0.71 0.74 0.75 0.79 0.82 0.83 0.83 0.82 0.82 0.81 0.79 0.79 0.80 0.80 0.80 0.79 0.78 0.77 0.77 0.73 0.69 0.65 0.60 0.56 0.52 0.51 0.48 0.46 0.54
1.07 1.03 1.01 0.97 0.94 0.91 0.88 0.85 0.83 0.82 0.84 0.79 0.73 0.72 0.78 0.77 0.79 0.83 0.86 0.86 0.85 0.86 0.86 0.86 0.87 0.88 0.89 0.88 0.87 0.85 0.82 0.80 0.80 0.79 0.78 0.74 0.70 0.65 0.61 0.59 0.55 0.51
1.11 1.08 1.04 1.00 0.94 0.88 0.85 0.85 0.85 0.82 0.83 0.80 0.76 0.76 0.79 0.80 0.79 0.84 0.85 0.85 0.84 0.86 0.88 0.89 0.90 0.90 0.92 0.94 0.94 0.92 0.86 0.84 0.86 0.85 0.84 0.82 0.81 0.80 0.78 0.72 0.64 0.59
1.14 1.07 1.02 1.02 0.99 0.94 0.90 0.89 0.86 0.84 0.85 0.82 0.79 0.75 0.80 0.82 0.82 0.83 0.82 0.81 0.81 0.83 0.86 0.88 0.90 0.93 0.95 0.96 0.96 0.95 0.91 0.90 0.90 0.90 0.89 0.89 0.87 0.87 0.87 0.86 0.81 0.71
1.16 1.13 1.09 1.06 1.06 1.03 0.96 0.93 0.90 0.85 0.83 0.85 0.78 0.75 0.80 0.82 0.82 0.83 0.83 0.82 0.84 0.85 0.85 0.88 0.93 0.97 0.97 0.96 0.96 0.97 0.96 0.96 0.97 0.97 0.96 0.97 0.96 0.94 0.94 0.92 0.90 0.87
1.13 1.17 1.18 1.13 1.06 1.05 1.00 0.93 0.88 0.86 0.87 0.86 0.84 0.79 0.81 0.82 0.83 0.84 0.85 0.86 0.88 0.88 0.88 0.89 0.91 0.92 0.93 0.94 0.94 0.95 0.95 0.97 1.00 1.01 1.01 1.03 1.03 1.01 1.00 1.00 0.98 0.95
1.11 1.10 1.10 1.07 1.09 1.11 1.07 1.00 0.95 0.93 0.94 0.93 0.86 0.84 0.85 0.85 0.85 0.83 0.86 0.89 0.89 0.88 0.91 0.92 0.91 0.91 0.95 0.96 0.99 1.02 1.02 1.02 1.01 1.01 1.02 1.02 1.01 1.04 1.05 1.04 1.04 1.03
1.08 1.08 1.09 1.12 1.09 1.11 1.09 1.02 0.97 0.95 0.94 0.92 0.88 0.90 0.91 0.90 0.88 0.87 0.85 0.87 0.89 0.88 0.90 0.92 0.91 0.95 1.01 1.02 1.03 1.02 1.02 1.00 1.01 1.02 0.98 0.95 0.95 0.96 1.00 1.01 1.01 1.03
1.03 1.04 1.06 1.08 1.09 1.08 1.05 1.00 0.97 0.96 0.95 0.96 0.95 0.97 0.96 0.93 0.90 0.90 0.87 0.85 0.85 0.87 0.90 0.91 0.91 0.94 0.98 1.01 1.02 1.01 0.99 0.96 0.98 0.97 0.93 0.91 0.90 0.91 0.93 0.96 0.98 0.99
1.00 0.99 1.00 0.99 1.01 1.02 1.03 1.02 1.00 0.99 0.99 0.98 0.96 0.96 0.93 0.92 0.91 0.90 0.88 0.88 0.87 0.87 0.87 0.87 0.88 0.90 0.93 0.96 0.98 0.99 0.97 0.95 0.94 0.96 0.95 0.93 0.93 0.93 0.92 0.94 0.97 0.98
0.95 0.96 0.95 0.95 0.96 0.95 0.96 0.97 0.96 0.93 0.94 0.96 0.97 0.95 0.93 0.95 0.92 0.89 0.88 0.86 0.86 0.86 0.84 0.84 0.84 0.87 0.90 0.94 0.97 0.99 0.98 0.96 0.96 0.95 0.95 0.95 0.95 0.95 0.95 0.97 0.98 0.98
0.96 0.96 0.96 0.96 0.96 0.97 0.98 0.98 0.97 0.96 0.93 0.93 0.95 0.99 1.00 0.97 0.96 0.93 0.91 0.92 0.89 0.85 0.83 0.85 0.85 0.88 0.91 0.93 0.97 0.99 0.99 0.97 0.96 0.96 0.93 0.92 0.94 0.96 0.97 0.98 0.99 0.98
0.96 0.96 0.96 0.97 0.98 0.98 0.98 0.97 0.96 0.96 0.96 0.97 0.99 1.01 1.00 0.98 0.99 0.98 0.97 0.95 0.91 0.87 0.85 0.86 0.86 0.89 0.90 0.91 0.94 0.97 0.97 0.95 0.95 0.94 0.93 0.93 0.93 0.94 0.95 0.96 0.97 0.97
0.92 0.95 0.94 0.93 0.94 0.94 0.96 0.96 0.96 0.96 0.95 0.96 0.97 0.96 0.93 0.91 0.92 0.94 0.96 0.95 0.93 0.90 0.86 0.86 0.87 0.89 0.88 0.90 0.93 0.96 0.96 0.96 0.96 0.94 0.92 0.91 0.92 0.94 0.96 0.96 0.96 0.96
0.91 0.91 0.93 0.94 0.94 0.95 0.94 0.94 0.96 0.96 0.96 0.98 0.97 0.96 0.96 0.95 0.95 0.97 0.95 0.94 0.95 0.93 0.91 0.90 0.92 0.92 0.92 0.94 0.96 0.97 0.96 0.95 0.93 0.91 0.89 0.88 0.88 0.90 0.93 0.94 0.94 0.91
0.93 0.92 0.92 0.93 0.93 0.92 0.92 0.93 0.94 0.95 0.97 1.00 0.97 0.96 0.95 0.97 0.96 0.95 0.95 0.94 0.93 0.93 0.92 0.91 0.91 0.93 0.94 0.93 0.92 0.92 0.91 0.90 0.88 0.88 0.87 0.87 0.88 0.87 0.85 0.86 0.85 0.81
0.94 0.91 0.88 0.89 0.91 0.90 0.90 0.91 0.94 0.96 0.96 0.96 0.90 0.96 1.00 0.98 0.93 0.95 0.97 0.97 0.93 0.91 0.89 0.88 0.94 0.96 0.93 0.90 0.90 0.90 0.90 0.87 0.86 0.85 0.85 0.80 0.79 0.78 0.77 0.76 0.76 0.74
0.88 0.92 0.90 0.87 0.86 0.88 0.90 0.89 0.91 0.92 0.96 0.95 0.92 0.91 0.91 0.92 0.97 0.94 0.91 0.95 0.96 0.94 0.93 0.91 0.91 0.91 0.91 0.90 0.91 0.90 0.90 0.88 0.85 0.83 0.78 0.74 0.72 0.68 0.64 0.64 0.65 0.67
0.76 0.77 0.80 0.84 0.88 0.89 0.89 0.89 0.91 0.91 0.91 0.92 0.92 0.92 0.89 0.90 0.91 0.91 0.90 0.92 0.95 0.94 0.93 0.91 0.88 0.89 0.90 0.89 0.89 0.88 0.88 0.86 0.84 0.78 0.71 0.66 0.65 0.61 0.57 0.58 0.60 0.59

ECMWFNIL_prec_pwat_069.txt.gz
Precipitable_Water
1.06 1.01 0.93 0.88 0.85 0.84 0.84 0.83 0.84 0.83 0.81 0.81 0.78 0.77 0.75 0.79 0.84 0.82 0.79 0.77 0.76 0.73 0.67 0.61 0.63 0.64 0.66 0.66 0.65 0.63 0.63 0.63 0.62 0.63 0.64 0.68 0.70 0.71 0.71 0.72 0.78 0.81
1.02 0.96 0.92 0.88 0.86 0.89 0.89 0.87 0.84 0.83 0.79 0.77 0.78 0.77 0.77 0.79 0.82 0.80 0.77 0.77 0.75 0.70 0.64 0.59 0.59 0.58 0.57 0.59 0.61 0.59 0.58 0.59 0.58 0.59 0.58 0.58 0.60 0.60 0.59 0.64 0.70 0.74
0.98 0.91 0.89 0.86 0.84 0.86 0.87 0.87 0.85 0.84 0.80 0.77 0.79 0.79 0.76 0.77 0.77 0.79 0.79 0.77 0.71 0.66 0.60 0.57 0.55 0.53 0.51 0.52 0.54 0.54 0.53 0.53 0.54 0.55 0.56 0.54 0.55 0.55 0.57 0.64 0.69 0.70
0.93 0.91 0.91 0.88 0.89 0.88 0.85 0.81 0.82 0.83 0.81 0.77 0.77 0.78 0.76 0.74 0.77 0.77 0.77 0.74 0.68 0.63 0.59 0.55 0.51 0.49 0.50 0.51 0.50 0.50 0.50 0.48 0.49 0.51 0.51 0.53 0.54 0.53 0.54 0.63 0.67 0.67
0.93 0.97 0.95 0.91 0.91 0.86 0.81 0.77 0.80 0.82 0.78 0.76 0.77 0.77 0.75 0.72 0.73 0.74 0.72 0.70 0.67 0.60 0.57 0.52 0.51 0.51 0.52 0.51 0.50 0.46 0.46 0.44 0.46 0.47 0.47 0.49 0.53 0.54 0.54 0.58 0.61 0.62
1.01 1.02 0.97 0.92 0.87 0.79 0.77 0.78 0.81 0.79 0.76 0.72 0.73 0.74 0.73 0.72 0.71 0.70 0.69 0.67 0.65 0.62 0.59 0.57 0.57 0.55 0.55 0.53 0.52 0.49 0.47 0.44 0.46 0.46 0.45 0.46 0.49 0.55 0.56 0.56 0.57 0.55
1.05 1.03 0.97 0.91 0.84 0.80 0.78 0.79 0.80 0.78 0.71 0.69 0.71 0.70 0.71 0.70 0.69 0.68 0.67 0.67 0.66 0.65 0.63 0.63 0.62 0.60 0.60 0.58 0.56 0.54 0.53 0.52 0.50 0.48 0.45 0.47 0.49 0.53 0.58 0.57 0.56 0.55
1.12 1.08 0.98 0.89 0.83 0.80 0.80 0.81 0.80 0.76 0.74 0.73 0.69 0.72 0.72 0.69 0.71 0.72 0.72 0.72 0.69 0.67 0.67 0.67 0.66 0.65 0.64 0.63 0.60 0.59 0.59 0.61 0.57 0.54 0.49 0.46 0.47 0.50 0.55 0.59 0.58 0.55
1.13 1.06 0.97 0.88 0.81 0.80 0.82 0.83 0.81 0.79 0.80 0.74 0.72 0.71 0.71 0.69 0.71 0.73 0.74 0.74 0.72 0.72 0.72 0.72 0.73 0.73 0.73 0.73 0.72 0.71 0.68 0.67 0.66 0.63 0.58 0.54 0.50 0.49 0.52 0.58 0.59 0.58
1.06 1.06 1.01 0.93 0.86 0.85 0.86 0.88 0.83 0.82 0.83 0.78 0.74 0.68 0.65 0.69 0.72 0.74 0.74 0.75 0.77 0.79 0.81 0.82 0.84 0.83 0.83 0.84 0.82 0.81 0.80 0.79 0.79 0.77 0.73 0.68 0.63 0.59 0.57 0.56 0.58 0.60
1.07 1.08 1.05 1.00 0.95 0.92 0.93 0.92 0.86 0.83 0.83 0.78 0.74 0.65 0.67 0.72 0.74 0.76 0.75 0.77 0.79 0.82 0.84 0.87 0.90 0.91 0.89 0.90 0.90 0.89 0.86 0.84 0.83 0.83 0.82 0.81 0.79 0.76 0.73 0.68 0.63 0.60
1.09 1.09 1.07 1.04 0.98 0.94 0.91 0.91 0.90 0.85 0.85 0.83 0.78 0.66 0.69 0.73 0.75 0.75 0.77 0.78 0.80 0.83 0.85 0.88 0.90 0.91 0.91 0.92 0.94 0.92 0.88 0.86 0.85 0.85 0.84 0.84 0.84 0.85 0.86 0.84 0.77 0.70
1.12 1.12 1.11 1.08 1.03 1.00 0.96 0.95 0.95 0.91 0.87 0.82 0.78 0.71 0.71 0.74 0.77 0.78 0.79 0.79 0.78 0.81 0.85 0.88 0.90 0.90 0.90 0.92 0.93 0.92 0.88 0.88 0.90 0.91 0.90 0.90 0.91 0.90 0.91 0.92 0.90 0.86
1.10 1.10 1.13 1.12 1.11 1.07 0.95 0.94 0.91 0.88 0.86 0.84 0.81 0.76 0.75 0.76 0.77 0.79 0.78 0.79 0.79 0.79 0.85 0.90 0.89 0.88 0.90 0.92 0.92 0.91 0.91 0.91 0.93 0.93 0.94 0.95 0.96 0.97 0.97 0.97 0.96 0.95
1.13 1.14 1.15 1.14 1.11 1.06 0.99 0.93 0.88 0.88 0.89 0.85 0.80 0.76 0.75 0.78 0.81 0.80 0.81 0.82 0.85 0.85 0.87 0.89 0.88 0.88 0.89 0.90 0.90 0.91 0.95 0.95 0.97 0.97 0.96 0.96 0.98 0.99 0.99 0.99 1.00 1.01
1.10 1.11 1.10 1.10 1.05 1.01 1.00 0.96 0.94 0.96 0.95 0.87 0.79 0.75 0.77 0.83 0.83 0.82 0.84 0.86 0.87 0.87 0.87 0.88 0.89 0.92 0.92 0.93 0.94 0.95 0.97 0.99 0.99 0.98 0.97 0.98 0.96 0.92 0.91 0.93 0.95 0.97
1.06 1.03 1.04 1.06 1.06 1.08 1.08 1.04 1.02 1.02 0.97 0.89 0.79 0.77 0.80 0.83 0.81 0.78 0.82 0.88 0.91 0.88 0.83 0.82 0.85 0.90 0.93 0.95 0.98 1.00 1.00 1.00 0.98 0.97 0.97 0.97 0.95 0.92 0.88 0.89 0.91 0.93
1.03 1.04 1.02 1.05 1.07 1.04 1.05 1.07 1.05 1.01 0.96 0.91 0.83 0.80 0.80 0.79 0.73 0.78 0.84 0.89 0.92 0.88 0.81 0.79 0.81 0.87 0.92 0.93 0.95 0.97 0.98 0.98 0.98 0.96 0.94 0.94 0.94 0.92 0.91 0.91 0.89 0.90
1.02 1.01 1.02 1.04 1.04 1.01 1.03 1.06 1.04 1.02 0.98 0.94 0.90 0.90 0.87 0.75 0.74 0.81 0.86 0.90 0.88 0.82 0.79 0.81 0.83 0.87 0.90 0.92 0.93 0.95 0.95 0.95 0.95 0.95 0.92 0.91 0.92 0.94 0.95 0.94 0.91 0.89
1.00 0.99 1.00 1.01 1.02 1.03 1.03 1.01 0.99 0.95 0.93 0.94 0.97 0.97 0.93 0.86 0.84 0.85 0.85 0.84 0.82 0.80 0.82 0.85 0.85 0.87 0.88 0.90 0.92 0.94 0.94 0.94 0.93 0.93 0.93 0.92 0.92 0.93 0.92 0.91 0.90 0.89
0.98 0.97 0.96 0.98 1.00 1.00 1.02 0.99 0.98 0.98 0.97 0.97 0.95 0.92 0.90 0.88 0.86 0.83 0.84 0.84 0.83 0.86 0.87 0.87 0.87 0.88 0.87 0.89 0.92 0.93 0.94 0.94 0.93 0.91 0.91 0.92 0.93 0.92 0.91 0.92 0.93 0.93
0.95 0.96 0.96 0.98 0.99 0.99 0.99 1.00 1.00 0.99 0.98 0.98 0.97 0.95 0.96 0.96 0.95 0.92 0.90 0.90 0.92 0.93 0.91 0.88 0.91 0.92 0.92 0.93 0.94 0.94 0.94 0.94 0.91 0.88 0.88 0.91 0.91 0.92 0.93 0.95 0.96 0.95
0.94 0.94 0.94 0.95 0.96 0.95 0.95 0.95 0.97 0.99 1.00 1.02 0.98 0.98 0.96 0.96 0.98 0.98 0.99 1.00 0.99 0.98 0.94 0.93 0.95 0.97 0.97 0.97 0.95 0.94 0.93 0.91 0.89 0.88 0.90 0.91 0.92 0.93 0.95 0.96 0.96 0.96
0.88 0.92 0.93 0.93 0.94 0.93 0.94 0.96 0.98 0.99 1.00 1.02 0.99 0.96 0.94 0.94 0.95 0.94 0.96 0.97 0.96 0.94 0.99 1.00 1.03 1.04 1.02 1.00 0.96 0.95 0.95 0.94 0.93 0.91 0.91 0.92 0.91 0.93 0.94 0.95 0.98 0.99
0.82 0.84 0.86 0.87 0.88 0.91 0.93 0.93 0.95 0.97 0.99 1.00 1.01 1.00 0.98 0.98 0.96 0.93 0.93 0.94 0.96 0.97 0.98 0.97 1.00 1.01 0.98 0.99 1.01 1.00 0.99 0.97 0.95 0.91 0.87 0.86 0.87 0.89 0.91 0.92 0.95 0.98
0.81 0.80 0.80 0.82 0.82 0.85 0.87 0.89 0.94 0.97 0.99 0.99 1.00 1.00 0.99 0.98 0.96 0.93 0.90 0.90 0.91 0.93 0.95 0.98 0.99 0.99 0.99 0.98 0.99 0.98 0.97 0.95 0.93 0.88 0.83 0.83 0.84 0.84 0.85 0.89 0.93 0.93

ECMWFNIL_prec_pwat_072.txt.gz
Precipitable_Water
1.11 1.08 1.03 0.94 0.85 0.81 0.80 0.79 0.81 0.83 0.85 0.85 0.81 0.81 0.81 0.83 0.85 0.84 0.83 0.82 0.79 0.75 0.72 0.69 0.71 0.73 0.73 0.72 0.69 0.67 0.67 0.68 0.70 0.72 0.72 0.75 0.80 0.85 0.87 0.90 0.93 0.94
1.09 1.10 1.03 0.94 0.86 0.82 0.81 0.83 0.83 0.85 0.85 0.85 0.82 0.79 0.77 0.80 0.83 0.83 0.81 0.78 0.75 0.73 0.69 0.66 0.69 0.70 0.69 0.67 0.64 0.62 0.62 0.63 0.64 0.69 0.68 0.70 0.74 0.79 0.79 0.84 0.88 0.92
1.07 1.07 0.98 0.89 0.84 0.81 0.83 0.86 0.89 0.88 0.87 0.84 0.80 0.76 0.73 0.80 0.80 0.82 0.80 0.77 0.74 0.71 0.67 0.64 0.63 0.63 0.64 0.65 0.62 0.59 0.58 0.56 0.56 0.60 0.61 0.62 0.64 0.64 0.66 0.74 0.81 0.84
1.05 1.05 0.97 0.91 0.87 0.84 0.86 0.87 0.88 0.89 0.87 0.80 0.76 0.74 0.74 0.79 0.81 0.79 0.79 0.78 0.74 0.69 0.65 0.62 0.59 0.57 0.56 0.57 0.58 0.56 0.56 0.56 0.56 0.56 0.54 0.54 0.54 0.54 0.61 0.70 0.74 0.77
1.01 0.99 0.97 0.91 0.89 0.88 0.89 0.86 0.84 0.83 0.83 0.81 0.78 0.76 0.74 0.75 0.77 0.76 0.76 0.76 0.72 0.67 0.63 0.58 0.56 0.54 0.54 0.54 0.54 0.52 0.54 0.54 0.55 0.53 0.51 0.50 0.51 0.54 0.63 0.72 0.70 0.69
1.04 0.99 0.96 0.92 0.89 0.87 0.86 0.85 0.82 0.81 0.83 0.80 0.78 0.77 0.75 0.73 0.74 0.74 0.75 0.73 0.70 0.65 0.57 0.54 0.54 0.55 0.55 0.54 0.54 0.53 0.50 0.49 0.51 0.52 0.50 0.49 0.49 0.54 0.61 0.69 0.69 0.66
1.01 0.98 0.96 0.95 0.90 0.90 0.87 0.84 0.81 0.82 0.81 0.80 0.78 0.74 0.72 0.70 0.71 0.72 0.74 0.72 0.69 0.63 0.55 0.54 0.56 0.56 0.58 0.57 0.55 0.52 0.50 0.49 0.50 0.52 0.52 0.52 0.52 0.52 0.57 0.63 0.65 0.63
1.01 1.01 1.03 1.01 0.92 0.89 0.84 0.80 0.80 0.80 0.79 0.77 0.72 0.72 0.71 0.69 0.69 0.71 0.73 0.72 0.67 0.63 0.59 0.60 0.60 0.61 0.62 0.60 0.57 0.55 0.54 0.54 0.52 0.52 0.53 0.55 0.56 0.56 0.57 0.59 0.59 0.58
1.07 1.05 1.03 1.01 0.92 0.84 0.79 0.79 0.81 0.80 0.79 0.73 0.71 0.71 0.72 0.70 0.69 0.70 0.71 0.70 0.67 0.65 0.64 0.65 0.66 0.66 0.67 0.65 0.64 0.63 0.62 0.61 0.60 0.58 0.56 0.56 0.58 0.60 0.62 0.62 0.61 0.60
1.08 1.09 1.04 0.99 0.90 0.83 0.78 0.80 0.82 0.81 0.79 0.73 0.72 0.72 0.70 0.71 0.70 0.70 0.70 0.70 0.68 0.66 0.67 0.68 0.69 0.70 0.71 0.72 0.72 0.72 0.72 0.72 0.71 0.67 0.64 0.61 0.60 0.62 0.65 0.65 0.64 0.63
1.08 1.11 1.06 0.99 0.91 0.83 0.79 0.83 0.83 0.82 0.80 0.76 0.73 0.71 0.70 0.70 0.71 0.72 0.72 0.70 0.66 0.66 0.69 0.70 0.72 0.76 0.78 0.81 0.83 0.84 0.83 0.83 0.83 0.82 0.79 0.76 0.71 0.68 0.67 0.67 0.66 0.65
1.10 1.11 1.07 1.03 0.93 0.84 0.82 0.86 0.86 0.82 0.80 0.78 0.76 0.71 0.70 0.70 0.70 0.71 0.70 0.67 0.68 0.71 0.74 0.77 0.80 0.82 0.84 0.86 0.88 0.90 0.90 0.89 0.88 0.88 0.87 0.86 0.84 0.83 0.81 0.77 0.71 0.66
1.14 1.12 1.11 1.07 0.99 0.92 0.91 0.89 0.87 0.84 0.82 0.80 0.78 0.76 0.70 0.69 0.72 0.72 0.73 0.72 0.73 0.77 0.79 0.82 0.84 0.85 0.86 0.88 0.91 0.94 0.94 0.91 0.89 0.89 0.89 0.89 0.89 0.89 0.90 0.91 0.89 0.82
1.14 1.17 1.17 1.13 1.08 1.03 0.99 0.94 0.91 0.89 0.87 0.87 0.85 0.79 0.69 0.66 0.71 0.73 0.75 0.76 0.76 0.79 0.82 0.84 0.84 0.84 0.86 0.87 0.88 0.91 0.93 0.91 0.89 0.90 0.92 0.93 0.94 0.95 0.95 0.95 0.95 0.95
1.20 1.18 1.20 1.18 1.13 1.09 1.05 1.01 0.97 0.95 0.94 0.92 0.87 0.80 0.70 0.65 0.70 0.73 0.75 0.76 0.78 0.79 0.80 0.82 0.83 0.85 0.87 0.86 0.84 0.87 0.91 0.90 0.91 0.92 0.95 0.96 0.96 0.97 0.99 0.99 0.98 0.99
1.10 1.14 1.19 1.19 1.18 1.14 1.09 1.02 0.98 0.97 0.94 0.91 0.89 0.83 0.74 0.67 0.68 0.73 0.77 0.78 0.76 0.77 0.80 0.81 0.83 0.86 0.87 0.88 0.87 0.87 0.90 0.92 0.95 0.97 0.99 0.99 0.98 0.97 0.97 0.98 0.97 0.96
1.12 1.08 1.06 1.06 1.08 1.11 1.06 1.05 1.00 0.98 0.95 0.94 0.94 0.88 0.80 0.71 0.67 0.68 0.72 0.76 0.77 0.78 0.79 0.81 0.85 0.86 0.87 0.87 0.87 0.89 0.91 0.92 0.93 0.97 1.01 1.01 1.00 0.99 0.96 0.98 0.99 0.97
1.10 1.07 1.10 1.12 1.11 1.10 1.09 1.07 1.03 0.99 0.96 0.98 0.98 0.92 0.85 0.77 0.69 0.67 0.70 0.74 0.78 0.81 0.81 0.82 0.86 0.87 0.87 0.88 0.87 0.88 0.91 0.93 0.94 0.96 0.97 0.97 0.98 0.97 0.97 0.97 0.96 0.95
1.04 1.05 1.07 1.09 1.08 1.08 1.07 1.05 1.03 1.03 1.01 1.01 1.00 0.97 0.90 0.80 0.73 0.72 0.73 0.77 0.79 0.80 0.81 0.84 0.85 0.87 0.86 0.87 0.86 0.85 0.87 0.89 0.90 0.92 0.92 0.92 0.93 0.94 0.95 0.95 0.95 0.94
1.01 1.04 1.02 1.04 1.07 1.06 1.06 1.05 1.05 1.05 1.06 1.04 1.05 1.04 0.95 0.86 0.80 0.76 0.77 0.79 0.81 0.81 0.82 0.85 0.86 0.87 0.88 0.87 0.84 0.83 0.86 0.89 0.89 0.88 0.89 0.90 0.90 0.90 0.91 0.92 0.93 0.92
0.99 1.01 1.01 1.02 1.03 1.03 1.01 0.99 0.99 1.00 1.02 1.02 1.03 1.00 0.94 0.88 0.84 0.80 0.80 0.79 0.77 0.78 0.79 0.82 0.86 0.87 0.87 0.85 0.83 0.84 0.87 0.89 0.89 0.88 0.87 0.87 0.89 0.89 0.88 0.88 0.89 0.91
0.96 0.95 0.95 0.97 0.98 0.98 0.97 0.98 0.99 0.99 0.98 1.00 0.99 0.98 0.96 0.93 0.92 0.92 0.91 0.86 0.79 0.76 0.78 0.82 0.85 0.87 0.85 0.84 0.85 0.86 0.89 0.90 0.90 0.88 0.86 0.87 0.88 0.90 0.88 0.89 0.89 0.89
0.91 0.91 0.91 0.91 0.92 0.91 0.91 0.91 0.94 0.98 1.01 1.02 0.99 0.97 0.95 0.94 0.95 0.96 0.95 0.93 0.91 0.88 0.87 0.87 0.87 0.89 0.87 0.86 0.87 0.90 0.91 0.93 0.93 0.92 0.89 0.87 0.88 0.89 0.89 0.89 0.89 0.90
0.85 0.86 0.86 0.87 0.88 0.88 0.90 0.92 0.95 0.97 0.98 1.01 0.98 0.96 0.95 0.96 0.97 0.96 0.95 0.95 0.93 0.92 0.92 0.89 0.88 0.90 0.92 0.94 0.94 0.95 0.96 0.96 0.97 0.94 0.91 0.89 0.89 0.90 0.91 0.91 0.92 0.93
0.80 0.81 0.82 0.83 0.84 0.87 0.89 0.91 0.94 0.96 0.99 1.02 1.01 1.01 0.99 1.00 1.00 0.97 0.97 0.98 0.99 0.98 0.98 0.94 0.93 0.96 0.97 0.96 0.97 0.97 0.96 0.96 0.97 0.95 0.92 0.90 0.89 0.90 0.93 0.93 0.94 0.95
0.78 0.79 0.80 0.80 0.80 0.82 0.85 0.88 0.91 0.95 0.97 0.99 1.00 1.01 1.00 1.00 0.99 0.98 0.96 0.96 0.97 0.97 0.96 0.98 0.96 0.97 0.96 0.93 0.92 0.94 0.96 0.98 0.98 0.95 0.91 0.92 0.92 0.90 0.89 0.92 0.94 0.95

ECMWFNIL_prec_pwat_075.txt.gz
Precipitable_Water
1.21 1.21 1.17 1.08 0.96 0.91 0.91 0.88 0.87 0.83 0.81 0.81 0.78 0.79 0.81 0.84 0.90 0.91 0.90 0.90 0.88 0.82 0.77 0.79 0.82 0.82 0.81 0.78 0.75 0.72 0.71 0.72 0.74 0.78 0.83 0.88 0.89 0.91 0.92 0.96 1.01 1.01
1.21 1.19 1.11 1.05 0.96 0.93 0.92 0.90 0.86 0.84 0.83 0.84 0.84 0.84 0.85 0.86 0.89 0.92 0.91 0.91 0.88 0.81 0.74 0.73 0.77 0.76 0.73 0.70 0.68 0.67 0.68 0.71 0.71 0.75 0.76 0.79 0.83 0.87 0.88 0.94 0.98 1.00
1.14 1.10 1.05 0.99 0.91 0.87 0.88 0.90 0.90 0.88 0.87 0.87 0.88 0.87 0.85 0.86 0.88 0.92 0.93 0.89 0.82 0.77 0.72 0.72 0.74 0.74 0.71 0.68 0.66 0.66 0.66 0.68 0.69 0.74 0.75 0.73 0.76 0.78 0.81 0.87 0.92 0.93
1.11 1.11 1.06 0.99 0.91 0.85 0.86 0.87 0.89 0.89 0.89 0.87 0.87 0.86 0.82 0.84 0.88 0.90 0.88 0.83 0.79 0.72 0.71 0.69 0.68 0.68 0.68 0.66 0.64 0.63 0.64 0.64 0.66 0.67 0.66 0.67 0.68 0.70 0.74 0.80 0.83 0.85
1.08 1.09 1.06 0.97 0.92 0.89 0.89 0.86 0.86 0.87 0.88 0.88 0.86 0.80 0.81 0.85 0.87 0.85 0.82 0.80 0.77 0.71 0.68 0.66 0.64 0.62 0.62 0.62 0.62 0.59 0.60 0.59 0.60 0.60 0.58 0.55 0.60 0.69 0.72 0.76 0.77 0.78
1.10 1.10 1.07 0.97 0.91 0.88 0.88 0.87 0.88 0.88 0.88 0.84 0.81 0.79 0.81 0.85 0.84 0.81 0.79 0.76 0.72 0.67 0.62 0.61 0.58 0.58 0.60 0.60 0.59 0.57 0.57 0.56 0.57 0.58 0.55 0.53 0.59 0.71 0.75 0.75 0.74 0.72
1.07 1.05 1.03 0.97 0.91 0.90 0.88 0.89 0.89 0.90 0.87 0.83 0.78 0.76 0.77 0.81 0.82 0.79 0.78 0.74 0.68 0.64 0.58 0.57 0.57 0.57 0.59 0.59 0.58 0.55 0.54 0.54 0.55 0.56 0.55 0.53 0.59 0.65 0.74 0.76 0.74 0.70
1.08 1.05 1.02 0.97 0.93 0.91 0.89 0.90 0.88 0.87 0.86 0.80 0.76 0.77 0.77 0.76 0.79 0.79 0.77 0.71 0.66 0.60 0.59 0.59 0.59 0.58 0.58 0.58 0.56 0.55 0.53 0.55 0.55 0.54 0.55 0.55 0.58 0.61 0.66 0.71 0.72 0.68
1.11 1.05 1.01 0.97 0.94 0.90 0.87 0.86 0.86 0.86 0.85 0.79 0.75 0.75 0.77 0.75 0.75 0.76 0.75 0.71 0.66 0.61 0.60 0.61 0.61 0.61 0.61 0.61 0.59 0.58 0.57 0.57 0.58 0.58 0.57 0.57 0.58 0.59 0.61 0.63 0.63 0.64
1.11 1.07 1.03 1.02 0.97 0.92 0.86 0.85 0.83 0.84 0.84 0.79 0.75 0.75 0.73 0.73 0.75 0.76 0.75 0.71 0.66 0.63 0.62 0.62 0.64 0.65 0.65 0.66 0.65 0.65 0.65 0.64 0.65 0.64 0.64 0.64 0.64 0.64 0.65 0.65 0.63 0.63
1.09 1.06 1.05 1.05 1.03 0.97 0.88 0.83 0.83 0.84 0.83 0.79 0.75 0.73 0.73 0.72 0.72 0.76 0.74 0.70 0.67 0.64 0.64 0.64 0.65 0.67 0.69 0.71 0.73 0.74 0.75 0.75 0.75 0.73 0.72 0.71 0.71 0.72 0.72 0.72 0.70 0.69
1.08 1.08 1.09 1.10 1.07 1.01 0.91 0.84 0.84 0.84 0.82 0.80 0.76 0.72 0.73 0.73 0.70 0.72 0.73 0.71 0.69 0.66 0.66 0.67 0.69 0.73 0.76 0.79 0.80 0.82 0.84 0.85 0.86 0.85 0.84 0.82 0.80 0.78 0.77 0.76 0.74 0.72
1.11 1.10 1.16 1.17 1.12 1.05 0.95 0.88 0.86 0.84 0.81 0.79 0.78 0.76 0.73 0.72 0.71 0.70 0.73 0.73 0.69 0.69 0.69 0.71 0.75 0.79 0.82 0.84 0.85 0.86 0.87 0.87 0.88 0.89 0.89 0.90 0.90 0.91 0.92 0.91 0.86 0.80
1.18 1.17 1.17 1.20 1.18 1.10 0.99 0.95 0.92 0.87 0.84 0.83 0.81 0.76 0.74 0.71 0.68 0.70 0.74 0.75 0.73 0.72 0.75 0.78 0.80 0.82 0.84 0.86 0.88 0.91 0.91 0.90 0.89 0.89 0.90 0.92 0.94 0.96 0.98 0.97 0.96 0.94
1.17 1.19 1.21 1.21 1.21 1.13 1.04 1.00 0.96 0.91 0.87 0.85 0.82 0.81 0.76 0.70 0.70 0.73 0.74 0.73 0.75 0.77 0.78 0.81 0.82 0.82 0.84 0.85 0.86 0.89 0.93 0.92 0.90 0.90 0.91 0.93 0.96 0.99 1.00 1.00 0.99 0.99
1.16 1.21 1.22 1.21 1.20 1.15 1.10 1.05 1.00 0.95 0.91 0.87 0.85 0.83 0.79 0.72 0.71 0.74 0.75 0.73 0.74 0.77 0.80 0.81 0.82 0.84 0.86 0.87 0.88 0.88 0.88 0.88 0.89 0.90 0.92 0.96 0.99 0.99 1.00 1.00 1.00 0.99
1.13 1.15 1.16 1.19 1.20 1.19 1.17 1.10 1.05 1.00 0.95 0.93 0.91 0.88 0.84 0.75 0.70 0.71 0.72 0.74 0.75 0.77 0.78 0.80 0.83 0.86 0.88 0.91 0.94 0.95 0.95 0.91 0.87 0.88 0.92 0.96 1.01 1.00 0.98 1.00 1.00 1.00
1.11 1.11 1.10 1.11 1.11 1.12 1.14 1.12 1.08 1.02 0.99 0.97 0.94 0.91 0.89 0.85 0.75 0.71 0.72 0.74 0.77 0.79 0.80 0.82 0.83 0.86 0.89 0.93 0.95 0.95 0.97 0.99 0.97 0.92 0.92 0.94 0.98 1.00 0.98 0.97 0.98 0.98
1.12 1.09 1.09 1.09 1.07 1.09 1.08 1.06 1.05 1.04 1.02 1.01 1.01 1.01 0.98 0.89 0.86 0.81 0.76 0.76 0.76 0.76 0.77 0.79 0.81 0.85 0.88 0.92 0.94 0.95 0.96 0.97 0.98 0.97 0.94 0.94 0.95 0.96 0.96 0.95 0.95 0.94
1.06 1.07 1.09 1.07 1.09 1.10 1.11 1.12 1.11 1.09 1.09 1.09 1.08 1.06 1.02 0.98 0.94 0.88 0.83 0.78 0.76 0.77 0.78 0.80 0.82 0.85 0.87 0.89 0.91 0.92 0.94 0.94 0.95 0.96 0.95 0.93 0.91 0.90 0.90 0.92 0.92 0.90
1.03 1.04 1.04 1.05 1.09 1.10 1.11 1.11 1.09 1.10 1.11 1.10 1.08 1.05 1.04 1.02 1.00 0.95 0.90 0.86 0.83 0.82 0.81 0.80 0.82 0.85 0.85 0.87 0.89 0.90 0.91 0.91 0.94 0.95 0.93 0.92 0.91 0.90 0.90 0.90 0.92 0.91
0.96 0.99 1.00 1.01 1.04 1.06 1.06 1.06 1.08 1.08 1.07 1.10 1.10 1.09 1.08 1.08 1.07 1.02 0.95 0.91 0.87 0.84 0.81 0.79 0.81 0.81 0.80 0.82 0.85 0.88 0.90 0.91 0.93 0.94 0.92 0.91 0.90 0.91 0.92 0.93 0.93 0.92
0.93 0.93 0.95 0.96 0.99 0.99 1.00 1.02 1.04 1.04 1.05 1.08 1.06 1.07 1.05 1.04 1.03 1.02 0.99 0.95 0.90 0.87 0.83 0.81 0.81 0.82 0.81 0.83 0.85 0.88 0.89 0.90 0.92 0.91 0.90 0.90 0.91 0.93 0.94 0.95 0.94 0.94
0.89 0.90 0.90 0.90 0.92 0.92 0.94 0.97 1.01 1.03 1.04 1.07 1.03 1.02 1.02 1.03 1.03 1.02 1.01 0.97 0.93 0.90 0.90 0.90 0.92 0.94 0.91 0.89 0.89 0.91 0.92 0.92 0.92 0.89 0.88 0.89 0.91 0.94 0.96 0.96 0.97 0.96
0.82 0.84 0.85 0.86 0.87 0.89 0.90 0.92 0.95 0.97 0.98 1.01 1.01 1.01 1.00 1.02 1.02 1.00 1.00 1.00 1.00 0.99 1.00 0.98 0.97 0.98 0.98 0.98 0.97 0.96 0.96 0.96 0.92 0.88 0.87 0.90 0.91 0.93 0.97 0.96 0.99 1.01
0.76 0.76 0.76 0.77 0.77 0.80 0.84 0.86 0.90 0.93 0.94 0.95 0.97 0.98 0.97 0.98 0.99 0.99 0.99 1.00 1.02 1.02 1.01 1.01 0.99 0.99 0.99 0.99 0.98 0.98 0.98 0.97 0.95 0.91 0.89 0.91 0.94 0.95 0.94 0.97 0.99 0.99

ECMWFNIL_prec_pwat_078.txt.gz
Precipitable_Water
1.23 1.22 1.33 1.35 1.26 1.24 1.19 1.08 0.95 0.86 0.87 0.89 0.89 0.91 0.91 0.94 0.95 0.96 0.97 0.96 0.93 0.87 0.85 0.87 0.91 0.93 0.94 0.94 0.93 0.88 0.90 0.92 0.93 0.97 0.99 1.01 1.01 1.01 1.02 1.04 1.07 1.08
1.24 1.26 1.29 1.27 1.21 1.15 1.10 0.98 0.86 0.86 0.90 0.92 0.95 0.94 0.97 1.00 0.95 0.97 0.93 0.90 0.86 0.84 0.82 0.86 0.87 0.86 0.85 0.84 0.82 0.80 0.79 0.80 0.79 0.85 0.90 0.94 0.95 0.98 1.00 1.03 1.06 1.08
1.21 1.16 1.18 1.15 1.08 1.09 1.06 0.98 0.95 0.94 0.95 0.96 0.98 0.94 0.92 0.95 0.92 0.92 0.90 0.88 0.83 0.80 0.79 0.84 0.85 0.84 0.82 0.79 0.78 0.78 0.78 0.78 0.79 0.83 0.87 0.88 0.92 0.95 0.96 1.04 1.07 1.05
1.19 1.18 1.11 1.06 1.08 1.05 1.03 1.00 1.02 1.00 0.96 0.93 0.92 0.92 0.91 0.90 0.90 0.90 0.90 0.85 0.81 0.75 0.77 0.82 0.84 0.80 0.76 0.73 0.73 0.73 0.75 0.77 0.80 0.81 0.78 0.79 0.82 0.88 0.89 0.98 1.02 1.03
1.21 1.22 1.19 1.12 1.02 0.95 0.97 0.98 0.98 0.98 0.95 0.94 0.93 0.91 0.89 0.88 0.88 0.89 0.87 0.81 0.79 0.73 0.73 0.76 0.78 0.78 0.74 0.72 0.72 0.69 0.69 0.69 0.71 0.72 0.69 0.68 0.75 0.81 0.83 0.88 0.90 0.91
1.21 1.20 1.17 1.13 1.05 0.96 0.93 0.95 0.94 0.95 0.93 0.91 0.89 0.88 0.88 0.89 0.90 0.89 0.85 0.80 0.77 0.73 0.71 0.70 0.69 0.71 0.73 0.71 0.69 0.65 0.64 0.63 0.62 0.62 0.60 0.63 0.69 0.74 0.77 0.87 0.86 0.86
1.16 1.14 1.11 1.09 1.04 0.98 0.90 0.91 0.93 0.94 0.91 0.89 0.87 0.85 0.90 0.92 0.91 0.87 0.84 0.81 0.74 0.69 0.66 0.65 0.64 0.66 0.70 0.69 0.67 0.64 0.64 0.62 0.61 0.60 0.60 0.65 0.75 0.72 0.80 0.84 0.82 0.84
1.16 1.16 1.15 1.09 1.01 0.93 0.91 0.90 0.93 0.93 0.94 0.89 0.81 0.86 0.93 0.92 0.89 0.86 0.84 0.79 0.71 0.65 0.62 0.63 0.64 0.66 0.67 0.67 0.64 0.61 0.61 0.63 0.63 0.62 0.64 0.68 0.73 0.78 0.77 0.81 0.80 0.76
1.18 1.16 1.13 1.07 1.00 0.94 0.92 0.91 0.91 0.95 0.94 0.86 0.82 0.83 0.93 0.91 0.88 0.85 0.83 0.76 0.68 0.63 0.63 0.65 0.66 0.66 0.66 0.64 0.59 0.56 0.57 0.61 0.63 0.63 0.65 0.69 0.70 0.72 0.74 0.77 0.75 0.74
1.17 1.18 1.13 1.08 1.03 0.99 0.95 0.94 0.92 0.95 0.92 0.87 0.85 0.84 0.86 0.91 0.90 0.86 0.82 0.74 0.65 0.63 0.64 0.66 0.66 0.64 0.64 0.62 0.60 0.60 0.60 0.61 0.64 0.65 0.67 0.69 0.70 0.69 0.69 0.71 0.72 0.71
1.20 1.20 1.14 1.09 1.05 1.04 1.00 0.97 0.95 0.94 0.90 0.88 0.87 0.85 0.84 0.84 0.85 0.86 0.79 0.71 0.65 0.63 0.65 0.67 0.66 0.66 0.66 0.66 0.67 0.68 0.67 0.66 0.67 0.68 0.69 0.71 0.73 0.72 0.71 0.71 0.70 0.72
1.26 1.20 1.18 1.13 1.09 1.07 1.01 0.99 0.96 0.95 0.91 0.88 0.85 0.83 0.81 0.79 0.81 0.82 0.76 0.70 0.66 0.65 0.66 0.69 0.70 0.70 0.71 0.72 0.75 0.78 0.79 0.79 0.78 0.77 0.76 0.76 0.76 0.76 0.75 0.76 0.74 0.72
1.24 1.21 1.19 1.15 1.15 1.12 1.05 1.00 0.96 0.96 0.91 0.84 0.83 0.82 0.77 0.75 0.78 0.78 0.77 0.72 0.69 0.70 0.71 0.73 0.74 0.77 0.78 0.80 0.83 0.86 0.87 0.87 0.86 0.87 0.86 0.86 0.85 0.85 0.85 0.84 0.81 0.80
1.26 1.24 1.18 1.17 1.16 1.13 1.06 1.01 0.99 0.97 0.92 0.87 0.83 0.80 0.78 0.75 0.74 0.76 0.76 0.77 0.74 0.75 0.77 0.79 0.81 0.83 0.84 0.86 0.87 0.88 0.89 0.88 0.89 0.88 0.88 0.89 0.91 0.93 0.96 0.96 0.94 0.90
1.23 1.23 1.21 1.20 1.18 1.16 1.08 1.05 1.03 0.99 0.95 0.90 0.87 0.85 0.81 0.79 0.76 0.76 0.75 0.79 0.77 0.80 0.83 0.86 0.85 0.87 0.88 0.89 0.89 0.90 0.91 0.89 0.90 0.90 0.89 0.88 0.89 0.93 0.97 1.00 1.01 1.02
1.22 1.24 1.20 1.21 1.21 1.16 1.10 1.10 1.07 1.03 0.98 0.92 0.91 0.89 0.85 0.82 0.77 0.78 0.76 0.77 0.75 0.79 0.81 0.84 0.88 0.90 0.88 0.87 0.91 0.92 0.92 0.93 0.92 0.94 0.95 0.94 0.93 0.95 0.97 1.00 1.02 1.02
1.20 1.21 1.22 1.21 1.23 1.21 1.16 1.15 1.14 1.07 1.01 0.96 0.94 0.92 0.85 0.81 0.82 0.80 0.78 0.78 0.79 0.82 0.85 0.86 0.88 0.87 0.82 0.84 0.85 0.89 0.95 0.95 0.93 0.94 0.95 0.95 0.95 0.96 0.97 0.99 1.03 1.06
1.18 1.17 1.19 1.19 1.19 1.16 1.16 1.15 1.16 1.11 1.08 1.04 1.00 0.97 0.89 0.79 0.79 0.79 0.80 0.80 0.83 0.86 0.87 0.87 0.90 0.85 0.86 0.87 0.89 0.91 0.93 0.97 0.96 0.94 0.93 0.95 0.96 0.97 0.99 1.01 1.01 1.02
1.16 1.13 1.13 1.14 1.16 1.15 1.16 1.16 1.13 1.13 1.04 1.03 1.02 1.02 0.96 0.84 0.81 0.83 0.83 0.85 0.86 0.86 0.87 0.88 0.90 0.85 0.87 0.88 0.89 0.92 0.93 0.94 0.98 0.99 0.96 0.96 0.98 0.99 1.00 1.02 1.03 1.02
1.16 1.12 1.10 1.11 1.10 1.11 1.12 1.12 1.12 1.06 1.01 1.01 1.01 1.00 0.98 0.93 0.86 0.81 0.83 0.85 0.86 0.87 0.88 0.90 0.92 0.85 0.84 0.85 0.87 0.89 0.91 0.93 0.96 0.98 0.99 0.98 0.99 1.02 1.03 1.01 1.00 0.98
1.13 1.11 1.10 1.11 1.11 1.10 1.09 1.06 1.05 1.00 0.99 1.02 1.03 1.03 1.00 0.98 0.97 0.91 0.89 0.89 0.90 0.92 0.92 0.93 0.91 0.87 0.85 0.86 0.87 0.87 0.89 0.90 0.92 0.95 0.95 0.95 0.94 0.92 1.00 1.04 1.00 0.98
1.08 1.09 1.09 1.11 1.09 1.08 1.06 1.05 1.05 1.07 1.05 1.06 1.05 1.04 1.08 1.08 1.08 1.07 1.01 0.96 0.92 0.91 0.91 0.92 0.88 0.86 0.85 0.85 0.85 0.84 0.85 0.86 0.88 0.89 0.89 0.91 0.93 0.96 1.00 1.03 1.02 1.00
1.01 1.05 1.04 1.06 1.08 1.07 1.07 1.06 1.11 1.09 1.10 1.11 1.09 1.10 1.10 1.11 1.10 1.11 1.11 1.07 1.03 0.98 0.94 0.91 0.89 0.87 0.86 0.85 0.84 0.83 0.81 0.81 0.82 0.84 0.86 0.88 0.90 0.94 0.97 0.99 1.01 1.00
0.93 0.96 0.96 0.99 1.01 1.02 1.05 1.06 1.09 1.11 1.16 1.17 1.13 1.12 1.12 1.14 1.15 1.13 1.14 1.14 1.11 1.06 1.01 0.97 0.97 0.92 0.88 0.86 0.85 0.84 0.81 0.79 0.80 0.81 0.85 0.88 0.91 0.95 0.97 0.99 0.99 0.96
0.88 0.89 0.90 0.92 0.93 0.98 1.02 1.02 1.06 1.10 1.15 1.16 1.13 1.12 1.11 1.13 1.14 1.13 1.13 1.13 1.12 1.10 1.05 1.02 0.97 0.92 0.90 0.89 0.89 0.90 0.91 0.92 0.91 0.89 0.87 0.90 0.93 0.96 1.00 0.99 1.01 0.98
0.86 0.87 0.88 0.86 0.86 0.89 0.91 0.93 0.95 0.98 1.00 1.00 1.02 1.03 1.02 1.03 1.05 1.05 1.05 1.05 1.06 1.08 1.07 1.05 1.01 0.99 0.99 0.99 1.00 1.00 1.00 0.99 1.00 0.96 0.93 0.95 0.97 0.98 0.98 1.01 0.99 0.98

ECMWFNIL_prec_pwat_081.txt.gz
Precipitable_Water
1.26 1.23 1.26 1.33 1.31 1.30 1.33 1.33 1.28 1.17 1.11 1.08 1.03 1.05 1.06 1.11 1.09 1.05 0.99 0.93 0.91 0.90 0.88 0.89 0.92 0.94 0.96 0.97 0.98 1.03 1.03 1.09 1.12 1.17 1.11 1.09 1.10 1.07 0.99 1.04 1.07 1.02
1.26 1.23 1.29 1.33 1.31 1.34 1.35 1.34 1.26 1.14 1.07 1.02 1.00 0.97 0.98 0.98 1.01 0.98 0.92 0.91 0.88 0.86 0.89 0.85 0.90 0.94 0.96 0.97 0.98 0.99 1.00 1.01 1.01 1.05 1.11 1.05 1.06 1.10 1.05 1.03 1.07 1.13
1.19 1.19 1.26 1.21 1.28 1.33 1.34 1.31 1.18 1.07 0.93 0.89 0.87 0.90 0.92 0.97 0.96 0.94 0.94 0.92 0.89 0.87 0.87 0.88 0.90 0.94 0.96 0.94 0.90 0.92 0.90 0.88 0.90 0.94 0.98 0.99 1.02 1.08 1.03 1.03 1.03 1.00
1.22 1.24 1.30 1.29 1.32 1.30 1.28 1.22 1.09 0.94 0.88 0.92 0.93 0.97 0.97 0.97 0.97 0.95 0.93 0.92 0.89 0.82 0.85 0.88 0.87 0.86 0.87 0.85 0.84 0.85 0.84 0.82 0.85 0.87 0.90 0.94 0.95 1.06 1.06 1.08 0.99 1.02
1.19 1.23 1.24 1.26 1.29 1.26 1.19 1.06 0.93 0.91 0.95 0.95 0.98 0.99 0.95 0.95 0.94 0.94 0.95 0.88 0.82 0.77 0.82 0.86 0.86 0.85 0.83 0.80 0.84 0.83 0.81 0.80 0.79 0.83 0.84 0.83 0.84 0.92 1.05 1.05 0.98 1.02
1.16 1.22 1.16 1.20 1.17 1.12 1.04 0.99 0.96 0.96 0.95 0.96 1.00 0.97 0.93 0.94 0.93 0.95 0.92 0.84 0.78 0.77 0.78 0.83 0.84 0.80 0.80 0.79 0.79 0.79 0.74 0.76 0.75 0.72 0.68 0.70 0.78 0.87 0.91 1.00 0.98 0.96
1.15 1.15 1.08 1.11 1.02 1.00 0.97 1.02 0.97 0.96 0.96 0.97 0.99 0.92 0.92 0.89 0.93 0.94 0.87 0.81 0.76 0.73 0.74 0.76 0.78 0.77 0.79 0.76 0.76 0.73 0.76 0.73 0.65 0.68 0.69 0.71 0.76 0.79 0.83 0.94 0.93 0.92
1.18 1.22 1.09 1.07 1.01 1.01 1.00 0.97 1.00 0.97 1.01 0.99 0.90 0.87 0.87 0.87 0.94 0.92 0.87 0.80 0.77 0.73 0.73 0.72 0.73 0.76 0.76 0.73 0.72 0.71 0.68 0.66 0.66 0.71 0.75 0.73 0.78 0.77 0.85 0.88 0.87 0.88
1.23 1.21 1.23 1.11 1.05 0.97 0.95 0.99 1.01 0.99 0.97 0.95 0.87 0.88 0.89 0.93 0.95 0.89 0.83 0.81 0.75 0.73 0.70 0.70 0.71 0.73 0.73 0.74 0.70 0.66 0.64 0.65 0.68 0.74 0.72 0.72 0.77 0.79 0.83 0.85 0.85 0.82
1.30 1.31 1.21 1.11 1.03 0.99 0.92 0.94 1.01 1.00 0.95 0.88 0.87 0.85 0.88 0.91 0.91 0.86 0.86 0.79 0.72 0.68 0.68 0.68 0.72 0.70 0.72 0.71 0.65 0.65 0.66 0.67 0.68 0.70 0.72 0.73 0.79 0.81 0.82 0.82 0.83 0.80
1.24 1.18 1.20 1.11 1.04 0.98 0.95 0.95 0.96 0.97 0.91 0.86 0.85 0.83 0.87 0.90 0.88 0.90 0.84 0.76 0.68 0.68 0.69 0.71 0.71 0.69 0.67 0.66 0.66 0.68 0.70 0.70 0.70 0.73 0.75 0.76 0.77 0.79 0.77 0.80 0.78 0.78
1.15 1.17 1.21 1.13 1.08 1.03 1.00 0.96 0.95 0.94 0.93 0.90 0.84 0.81 0.86 0.90 0.90 0.88 0.81 0.75 0.66 0.70 0.71 0.70 0.68 0.69 0.68 0.67 0.67 0.70 0.71 0.73 0.75 0.75 0.77 0.77 0.72 0.71 0.76 0.75 0.78 0.75
1.14 1.18 1.17 1.21 1.18 1.13 1.08 1.04 1.00 0.99 0.97 0.93 0.86 0.84 0.83 0.83 0.87 0.88 0.79 0.76 0.69 0.72 0.71 0.70 0.71 0.73 0.73 0.74 0.74 0.74 0.75 0.75 0.74 0.76 0.76 0.75 0.76 0.78 0.77 0.76 0.76 0.78
1.19 1.23 1.18 1.18 1.18 1.18 1.13 1.08 1.04 1.01 0.98 0.98 0.89 0.87 0.81 0.79 0.83 0.86 0.78 0.76 0.72 0.72 0.73 0.76 0.77 0.79 0.81 0.83 0.86 0.88 0.86 0.85 0.85 0.85 0.84 0.83 0.86 0.86 0.84 0.82 0.82 0.79
1.20 1.20 1.22 1.17 1.18 1.18 1.14 1.08 1.07 1.02 0.99 0.97 0.89 0.88 0.81 0.81 0.84 0.85 0.78 0.76 0.75 0.75 0.77 0.81 0.82 0.86 0.89 0.92 0.94 0.92 0.95 0.91 0.92 0.92 0.90 0.90 0.91 0.93 0.94 0.93 0.91 0.89
1.23 1.19 1.20 1.21 1.18 1.16 1.12 1.10 1.08 1.05 1.00 0.95 0.87 0.88 0.84 0.83 0.83 0.83 0.77 0.81 0.77 0.80 0.83 0.85 0.89 1.02 0.97 0.99 1.00 1.00 0.98 0.98 0.96 0.96 0.93 0.94 0.94 0.95 0.96 0.97 0.98 0.98
1.23 1.20 1.18 1.19 1.20 1.19 1.16 1.10 1.07 1.03 0.99 0.90 0.86 0.88 0.85 0.88 0.83 0.84 0.77 0.85 0.80 0.85 0.90 0.91 1.00 1.04 0.98 0.98 0.99 1.01 1.06 1.02 0.96 0.97 0.99 0.98 0.97 0.98 0.96 0.97 0.98 0.99
1.23 1.23 1.20 1.20 1.20 1.21 1.19 1.14 1.12 1.05 1.01 0.99 0.94 0.92 0.90 0.88 0.86 0.87 0.83 0.86 0.84 0.87 0.89 0.89 0.98 0.95 0.93 0.94 0.96 0.97 0.98 1.02 1.01 0.99 0.97 0.99 0.98 0.99 0.98 0.97 0.96 0.98
1.19 1.23 1.22 1.20 1.21 1.23 1.20 1.17 1.11 1.11 1.14 1.13 1.08 1.05 0.99 0.92 0.85 0.87 0.88 0.87 0.89 0.90 0.91 0.90 0.95 0.85 0.86 0.88 0.91 0.93 0.94 0.95 1.01 1.02 0.98 0.95 0.98 0.98 0.98 0.99 1.02 1.05
1.18 1.13 1.12 1.12 1.16 1.20 1.17 1.13 1.14 1.10 1.12 1.12 1.11 1.07 1.06 1.02 0.94 0.96 0.97 0.93 0.91 0.95 0.94 0.97 0.96 0.90 0.87 0.89 0.90 0.90 0.91 0.91 0.95 1.02 1.03 1.01 0.99 1.00 1.01 1.04 1.04 1.00
1.19 1.18 1.16 1.12 1.12 1.14 1.14 1.11 1.12 1.14 1.13 1.09 1.07 1.05 1.05 0.97 0.94 0.95 1.00 1.00 1.00 1.03 1.01 1.08 1.01 0.96 0.91 0.90 0.89 0.88 0.88 0.88 0.91 0.95 0.98 1.01 1.03 1.05 1.06 1.04 1.00 1.00
1.20 1.18 1.18 1.14 1.12 1.10 1.09 1.08 1.10 1.10 1.09 1.06 1.04 1.06 1.09 1.03 0.92 0.88 0.90 0.94 0.98 0.97 1.02 1.03 1.02 0.98 0.95 0.93 0.90 0.88 0.87 0.89 0.89 0.89 0.88 0.88 0.88 0.90 0.93 0.95 1.00 0.96
1.17 1.17 1.17 1.16 1.16 1.11 1.08 1.07 1.08 1.07 1.05 1.06 0.99 1.00 1.00 0.96 0.95 0.88 0.86 0.87 0.89 0.94 0.99 0.98 0.96 0.96 0.95 0.93 0.91 0.89 0.87 0.87 0.88 0.86 0.83 0.80 0.80 0.82 0.82 0.91 1.03 1.05
1.11 1.10 1.12 1.12 1.12 1.10 1.10 1.09 1.11 1.09 1.05 1.06 1.00 0.99 0.99 0.96 0.94 0.95 1.00 1.02 1.04 1.02 1.04 0.96 0.96 0.97 0.97 0.96 0.94 0.91 0.87 0.87 0.89 0.85 0.81 0.78 0.77 0.79 0.82 0.87 0.96 1.00
1.01 1.04 1.05 1.07 1.07 1.08 1.09 1.04 1.05 1.07 1.07 1.06 1.02 1.02 1.03 1.07 1.05 1.01 0.99 1.03 1.09 1.11 1.10 1.05 1.02 1.02 1.02 1.00 0.97 0.93 0.89 0.87 0.86 0.82 0.80 0.81 0.82 0.83 0.86 0.89 0.98 1.04
0.94 0.96 0.97 0.98 0.97 1.00 1.03 1.05 1.09 1.11 1.13 1.11 1.13 1.12 1.12 1.11 1.12 1.07 1.03 1.05 1.11 1.13 1.13 1.15 1.13 1.10 1.09 1.03 1.01 0.98 0.95 0.92 0.90 0.85 0.84 0.87 0.90 0.92 0.95 0.99 1.02 1.07

ECMWFNIL_prec_pwat_084.txt.gz
Precipitable_Water
1.30 1.29 1.26 1.22 1.20 1.22 1.18 1.19 1.19 1.19 1.22 1.22 1.18 1.20 1.19 1.21 1.21 1.16 1.14 1.13 1.11 1.08 1.08 1.03 1.01 0.95 0.96 0.95 1.00 1.03 1.04 1.12 1.23 1.18 1.14 1.16 1.09 1.04 1.04 1.04 1.05 1.07
1.29 1.28 1.27 1.25 1.24 1.26 1.26 1.27 1.25 1.22 1.21 1.21 1.20 1.20 1.19 1.16 1.19 1.15 1.10 1.07 1.03 1.02 1.02 0.96 0.93 0.93 0.94 0.95 0.96 0.99 0.99 1.08 1.13 1.17 1.16 1.14 1.10 1.09 1.06 1.08 1.07 1.07
1.29 1.27 1.25 1.21 1.21 1.24 1.28 1.30 1.30 1.27 1.24 1.24 1.22 1.22 1.20 1.19 1.16 1.11 1.03 0.98 0.95 0.91 0.92 0.90 0.89 0.95 0.95 0.93 0.99 1.01 0.96 1.01 1.02 1.07 1.09 1.07 1.10 1.08 1.12 1.17 1.11 1.07
1.29 1.25 1.23 1.23 1.24 1.25 1.29 1.28 1.28 1.28 1.24 1.20 1.21 1.21 1.18 1.14 1.07 1.00 0.96 0.93 0.86 0.86 0.88 0.87 0.91 0.94 0.95 0.94 0.96 0.96 0.94 0.94 0.93 0.95 0.94 0.97 1.03 1.10 1.11 1.14 1.13 1.07
1.26 1.24 1.24 1.24 1.25 1.26 1.26 1.27 1.26 1.27 1.20 1.19 1.18 1.14 1.05 0.98 0.93 0.89 0.89 0.85 0.84 0.80 0.83 0.84 0.89 0.91 0.89 0.87 0.91 0.85 0.89 0.84 0.81 0.88 0.88 0.87 0.92 1.04 1.07 1.09 1.08 1.03
1.25 1.23 1.22 1.22 1.23 1.20 1.19 1.24 1.25 1.22 1.14 1.09 1.10 1.05 0.98 0.93 0.92 0.87 0.83 0.79 0.76 0.83 0.83 0.83 0.82 0.79 0.80 0.83 0.84 0.79 0.78 0.78 0.81 0.83 0.80 0.82 0.76 0.93 1.04 1.08 1.05 1.04
1.23 1.20 1.21 1.19 1.18 1.18 1.16 1.17 1.18 1.12 1.08 1.08 1.05 0.98 0.96 0.99 0.97 0.90 0.84 0.77 0.77 0.79 0.82 0.81 0.75 0.76 0.77 0.77 0.75 0.73 0.78 0.74 0.68 0.71 0.75 0.80 0.82 0.84 0.93 1.00 1.04 1.00
1.19 1.19 1.21 1.20 1.17 1.15 1.10 1.11 1.07 1.03 1.00 0.99 0.96 1.02 1.03 1.03 1.01 0.92 0.80 0.79 0.77 0.79 0.81 0.81 0.76 0.76 0.75 0.73 0.71 0.72 0.68 0.63 0.63 0.72 0.77 0.73 0.78 0.81 0.82 0.94 0.94 0.97
1.22 1.15 1.16 1.17 1.14 1.12 1.11 1.10 1.08 1.04 1.02 0.98 0.98 1.02 1.02 1.03 0.98 0.85 0.79 0.80 0.77 0.77 0.78 0.76 0.78 0.77 0.74 0.76 0.71 0.67 0.62 0.65 0.75 0.78 0.76 0.71 0.76 0.76 0.81 0.88 0.89 0.92
1.22 1.19 1.16 1.14 1.09 1.08 1.08 1.07 1.07 1.06 1.03 1.02 0.99 0.96 0.95 1.03 0.95 0.82 0.83 0.79 0.75 0.75 0.74 0.74 0.78 0.75 0.76 0.76 0.69 0.66 0.67 0.69 0.74 0.76 0.75 0.76 0.78 0.81 0.82 0.84 0.84 0.85
1.21 1.20 1.17 1.14 1.08 1.07 1.07 1.06 1.07 1.06 1.01 0.97 0.96 0.94 0.98 0.97 0.86 0.84 0.82 0.77 0.71 0.71 0.71 0.74 0.75 0.75 0.76 0.71 0.67 0.68 0.71 0.71 0.70 0.72 0.76 0.79 0.85 0.84 0.82 0.84 0.80 0.81
1.18 1.17 1.14 1.11 1.10 1.08 1.07 1.07 1.07 1.03 0.99 0.98 0.94 0.96 0.95 0.89 0.83 0.83 0.80 0.73 0.69 0.72 0.73 0.76 0.75 0.75 0.70 0.66 0.66 0.71 0.71 0.71 0.74 0.74 0.78 0.79 0.78 0.78 0.78 0.79 0.82 0.80
1.14 1.13 1.13 1.11 1.09 1.09 1.09 1.06 1.02 0.96 0.92 0.91 0.91 0.93 0.92 0.89 0.84 0.81 0.78 0.70 0.71 0.74 0.73 0.72 0.71 0.71 0.70 0.68 0.68 0.71 0.71 0.76 0.76 0.78 0.79 0.75 0.76 0.80 0.77 0.77 0.77 0.78
1.15 1.15 1.14 1.15 1.12 1.07 1.06 1.04 1.01 0.96 0.96 0.92 0.88 0.88 0.89 0.89 0.83 0.75 0.74 0.70 0.73 0.75 0.71 0.71 0.71 0.73 0.71 0.72 0.71 0.72 0.74 0.75 0.74 0.78 0.75 0.73 0.80 0.81 0.78 0.78 0.83 0.82
1.18 1.17 1.18 1.18 1.16 1.11 1.07 1.06 1.04 1.01 0.98 0.94 0.90 0.86 0.85 0.88 0.87 0.78 0.72 0.70 0.73 0.75 0.72 0.75 0.81 0.84 0.83 0.84 0.82 0.77 0.80 0.79 0.80 0.83 0.82 0.81 0.86 0.85 0.84 0.84 0.88 0.88
1.17 1.17 1.17 1.19 1.17 1.11 1.10 1.09 1.07 1.03 1.00 0.97 0.95 0.87 0.82 0.87 0.88 0.80 0.71 0.72 0.72 0.76 0.78 0.87 0.87 0.88 0.86 0.92 0.94 0.94 0.92 0.91 0.93 0.92 0.93 0.95 0.93 0.95 0.92 0.96 0.98 1.05
1.19 1.19 1.18 1.16 1.18 1.16 1.12 1.11 1.10 1.07 1.01 0.97 0.96 0.89 0.83 0.84 0.87 0.81 0.72 0.79 0.74 0.80 0.85 0.91 0.90 0.92 0.91 0.96 0.99 0.99 1.01 1.01 0.98 0.97 0.95 0.94 0.94 0.96 0.96 1.02 1.05 1.04
1.23 1.24 1.21 1.18 1.17 1.14 1.14 1.15 1.13 1.10 1.05 1.01 0.97 0.90 0.87 0.83 0.84 0.85 0.75 0.86 0.80 0.90 0.93 0.91 0.93 0.96 0.95 0.95 1.00 1.01 1.03 1.04 1.02 1.01 0.99 0.97 1.00 1.01 1.07 1.08 1.09 1.06
1.28 1.22 1.19 1.22 1.19 1.17 1.17 1.15 1.13 1.10 1.08 1.04 1.00 0.97 0.93 0.84 0.86 0.87 0.75 0.87 0.87 0.91 0.95 0.94 0.92 0.98 0.97 0.96 1.01 1.03 1.04 1.03 1.04 1.06 1.05 1.03 1.02 1.06 1.09 1.10 1.12 1.10
1.25 1.22 1.20 1.22 1.23 1.24 1.22 1.16 1.13 1.08 1.07 1.05 1.02 0.98 0.91 0.87 0.90 0.92 0.91 0.94 0.95 0.98 0.94 0.97 0.94 0.94 0.97 0.98 0.99 1.02 1.03 1.03 1.01 1.02 1.05 1.03 1.04 1.02 1.04 1.04 1.02 1.07
1.18 1.17 1.21 1.19 1.21 1.25 1.24 1.17 1.10 1.13 1.11 1.09 1.07 1.06 1.00 0.95 0.94 0.93 0.94 0.94 0.98 1.02 1.01 0.97 0.95 0.91 0.91 0.94 0.96 0.98 0.99 0.97 0.96 0.97 1.00 1.04 1.03 1.04 1.03 1.04 1.05 1.06
1.16 1.12 1.13 1.13 1.16 1.18 1.20 1.17 1.11 1.13 1.13 1.12 1.12 1.09 1.10 1.09 1.06 1.04 0.98 0.97 0.99 1.01 1.02 1.01 1.01 0.98 0.95 0.94 0.92 0.91 0.92 0.92 0.93 0.94 0.92 0.94 0.96 0.97 0.97 0.97 0.98 0.95
1.23 1.19 1.16 1.13 1.13 1.13 1.15 1.14 1.13 1.13 1.16 1.17 1.10 1.05 1.02 0.99 1.00 1.03 1.05 1.01 0.99 1.00 0.98 0.99 1.01 1.01 0.99 0.96 0.95 0.94 0.90 0.90 0.92 0.92 0.91 0.90 0.92 0.93 0.94 0.94 0.98 1.00
1.24 1.21 1.18 1.18 1.17 1.14 1.14 1.14 1.14 1.13 1.12 1.12 1.05 1.02 1.00 0.99 0.98 0.95 0.95 0.98 0.97 0.95 0.95 0.90 0.92 0.95 0.95 0.96 0.97 0.98 0.96 0.92 0.92 0.91 0.93 0.94 0.93 0.95 0.96 0.98 0.96 0.95
1.18 1.20 1.20 1.16 1.18 1.18 1.15 1.12 1.11 1.12 1.11 1.13 1.10 1.09 1.06 1.06 1.02 0.98 0.95 0.94 0.93 0.89 0.90 0.88 0.88 0.92 0.96 0.99 1.00 0.98 0.97 0.96 0.94 0.92 0.90 0.90 0.89 0.88 0.91 0.93 0.94 0.96
1.09 1.13 1.13 1.11 1.12 1.14 1.14 1.09 1.11 1.16 1.11 1.12 1.12 1.11 1.09 1.07 1.05 1.03 1.01 0.99 0.97 0.93 0.92 0.94 0.93 0.94 0.99 1.03 1.02 1.01 1.00 0.99 0.98 0.93 0.87 0.87 0.89 0.88 0.88 0.94 0.99 1.01

ECMWFNIL_prec_pwat_087.txt.gz
Precipitable_Water
1.44 1.41 1.36 1.32 1.32 1.32 1.32 1.30 1.31 1.27 1.27 1.31 1.28 1.27 1.28 1.31 1.36 1.35 1.26 1.22 1.20 1.18 1.17 1.15 1.14 1.12 1.11 1.10 1.11 1.16 1.19 1.20 1.19 1.15 1.12 1.12 1.13 1.14 1.13 1.13 1.14 1.13
1.39 1.43 1.38 1.36 1.33 1.34 1.31 1.31 1.29 1.26 1.25 1.31 1.34 1.33 1.30 1.29 1.28 1.24 1.18 1.15 1.14 1.12 1.12 1.10 1.07 1.05 1.04 1.02 1.04 1.05 1.05 1.15 1.16 1.17 1.13 1.11 1.11 1.12 1.11 1.10 1.12 1.14
1.37 1.41 1.40 1.33 1.29 1.29 1.26 1.30 1.27 1.26 1.29 1.32 1.34 1.31 1.27 1.26 1.20 1.18 1.15 1.13 1.10 1.06 1.03 1.02 0.96 0.93 0.96 1.00 1.02 1.00 1.05 1.11 1.13 1.15 1.13 1.12 1.12 1.10 1.11 1.11 1.14 1.14
1.28 1.31 1.35 1.33 1.29 1.26 1.27 1.26 1.26 1.28 1.34 1.32 1.29 1.27 1.25 1.21 1.19 1.16 1.14 1.11 1.04 0.97 0.93 0.90 0.89 0.94 0.99 1.00 0.99 0.99 1.04 1.06 1.09 1.12 1.10 1.11 1.11 1.11 1.11 1.13 1.14 1.16
1.27 1.31 1.33 1.31 1.30 1.28 1.29 1.26 1.26 1.29 1.30 1.31 1.31 1.28 1.24 1.19 1.17 1.12 1.06 1.00 0.95 0.91 0.89 0.91 0.90 0.95 0.99 0.99 0.99 0.98 1.00 0.96 0.98 0.99 0.98 1.02 1.08 1.11 1.12 1.12 1.08 1.07
1.35 1.34 1.34 1.31 1.30 1.28 1.27 1.27 1.28 1.30 1.30 1.31 1.30 1.29 1.24 1.19 1.09 1.01 0.96 0.93 0.92 0.89 0.90 0.91 0.88 0.95 0.99 0.97 0.96 0.95 0.91 0.88 0.90 0.90 0.88 0.92 1.01 1.10 1.09 1.07 1.06 1.05
1.33 1.35 1.32 1.31 1.30 1.29 1.28 1.29 1.30 1.32 1.31 1.31 1.29 1.23 1.16 1.05 0.96 0.91 0.90 0.87 0.84 0.86 0.87 0.87 0.89 0.92 0.95 0.92 0.87 0.79 0.79 0.81 0.84 0.85 0.86 0.90 0.98 1.07 1.10 1.09 1.08 1.05
1.31 1.32 1.30 1.30 1.27 1.27 1.27 1.28 1.28 1.32 1.33 1.28 1.19 1.13 1.05 0.94 0.90 0.88 0.85 0.83 0.80 0.85 0.84 0.86 0.87 0.87 0.87 0.83 0.78 0.78 0.77 0.77 0.83 0.85 0.85 0.86 0.90 0.96 1.06 1.10 1.10 1.04
1.30 1.28 1.27 1.26 1.22 1.21 1.23 1.24 1.26 1.29 1.29 1.17 1.10 1.03 1.02 0.96 0.91 0.84 0.80 0.80 0.83 0.84 0.83 0.83 0.82 0.81 0.80 0.76 0.74 0.74 0.72 0.75 0.78 0.84 0.84 0.81 0.85 0.88 0.96 1.04 1.04 1.04
1.26 1.26 1.24 1.21 1.16 1.16 1.18 1.21 1.23 1.22 1.16 1.08 1.00 0.98 0.99 0.96 0.90 0.81 0.81 0.81 0.82 0.80 0.79 0.80 0.79 0.78 0.77 0.74 0.73 0.73 0.79 0.82 0.85 0.85 0.84 0.81 0.84 0.86 0.89 0.96 0.99 1.02
1.26 1.26 1.23 1.20 1.16 1.15 1.17 1.18 1.14 1.08 1.01 0.96 0.93 0.93 0.99 0.95 0.88 0.85 0.81 0.78 0.77 0.75 0.77 0.78 0.77 0.78 0.76 0.73 0.73 0.78 0.81 0.83 0.83 0.81 0.82 0.86 0.88 0.87 0.88 0.90 0.90 0.94
1.24 1.25 1.24 1.21 1.18 1.19 1.20 1.16 1.08 1.02 0.96 0.93 0.92 0.94 0.97 0.95 0.87 0.86 0.79 0.74 0.73 0.75 0.79 0.79 0.79 0.79 0.75 0.72 0.74 0.76 0.77 0.80 0.82 0.86 0.88 0.89 0.89 0.87 0.86 0.87 0.88 0.89
1.23 1.23 1.24 1.23 1.23 1.25 1.23 1.14 1.07 1.05 1.00 0.91 0.96 0.95 0.94 0.91 0.88 0.81 0.74 0.71 0.72 0.76 0.79 0.78 0.79 0.76 0.72 0.73 0.76 0.76 0.77 0.82 0.84 0.84 0.86 0.87 0.87 0.86 0.85 0.88 0.89 0.87
1.26 1.25 1.25 1.24 1.24 1.25 1.20 1.12 1.09 1.06 1.01 0.99 1.00 0.94 0.92 0.89 0.86 0.76 0.71 0.73 0.74 0.78 0.79 0.80 0.79 0.74 0.72 0.74 0.77 0.80 0.82 0.84 0.84 0.84 0.85 0.87 0.86 0.86 0.87 0.89 0.90 0.89
1.30 1.28 1.27 1.24 1.20 1.17 1.14 1.10 1.06 1.03 1.03 1.04 1.02 0.95 0.90 0.90 0.85 0.75 0.72 0.74 0.78 0.79 0.80 0.81 0.80 0.77 0.75 0.75 0.77 0.80 0.82 0.82 0.83 0.84 0.88 0.89 0.88 0.89 0.94 0.94 0.93 0.93
1.28 1.30 1.25 1.24 1.20 1.16 1.14 1.10 1.04 1.01 1.00 1.01 1.00 0.97 0.91 0.86 0.80 0.77 0.76 0.78 0.77 0.78 0.81 0.82 0.83 0.83 0.82 0.81 0.82 0.82 0.85 0.88 0.87 0.88 0.93 0.91 0.90 0.91 0.93 0.97 0.98 0.98
1.31 1.28 1.24 1.20 1.21 1.19 1.14 1.11 1.09 1.06 1.01 0.98 0.95 0.95 0.92 0.86 0.76 0.77 0.78 0.80 0.78 0.77 0.79 0.84 0.87 0.90 0.91 0.90 0.91 0.90 0.93 0.96 0.96 0.94 0.96 0.96 0.95 0.93 0.93 0.96 0.99 1.02
1.27 1.27 1.22 1.21 1.21 1.19 1.16 1.15 1.12 1.08 1.04 0.99 0.94 0.93 0.92 0.88 0.75 0.79 0.83 0.81 0.81 0.80 0.82 0.86 0.90 0.94 0.98 1.00 1.00 1.00 1.01 1.02 1.03 1.00 1.00 1.01 1.02 1.00 0.99 1.02 1.04 1.05
1.26 1.22 1.21 1.21 1.18 1.19 1.19 1.16 1.12 1.09 1.05 1.00 0.96 0.96 0.92 0.87 0.81 0.85 0.88 0.86 0.84 0.84 0.85 0.89 0.92 0.97 0.99 1.03 1.04 1.06 1.06 1.06 1.05 1.05 1.03 1.00 1.01 1.01 1.00 0.99 1.02 1.02
1.23 1.21 1.16 1.20 1.23 1.21 1.20 1.16 1.12 1.11 1.09 1.06 1.02 0.99 0.94 0.90 0.84 0.87 0.90 0.88 0.87 0.87 0.88 0.90 0.91 0.97 0.99 1.02 1.06 1.08 1.09 1.10 1.09 1.06 1.05 1.05 1.04 1.03 1.01 0.99 0.97 0.94
1.25 1.22 1.20 1.22 1.22 1.22 1.20 1.17 1.15 1.13 1.11 1.10 1.06 1.01 0.97 0.94 0.89 0.87 0.90 0.90 0.90 0.91 0.91 0.92 0.93 0.95 0.98 1.01 1.04 1.07 1.07 1.09 1.09 1.08 1.07 1.07 1.06 1.06 1.05 1.02 0.99 0.97
1.25 1.21 1.22 1.22 1.22 1.20 1.18 1.17 1.16 1.13 1.10 1.11 1.08 1.05 1.05 1.03 0.99 0.94 0.91 0.91 0.91 0.90 0.88 0.88 0.91 0.94 0.96 1.00 1.03 1.04 1.04 1.04 1.05 1.07 1.04 1.02 1.02 1.02 1.02 1.01 1.00 0.97
1.16 1.19 1.23 1.23 1.22 1.19 1.16 1.18 1.15 1.12 1.12 1.11 1.06 1.06 1.04 1.03 1.01 1.00 0.97 0.96 0.95 0.93 0.91 0.90 0.91 0.92 0.92 0.94 0.96 0.98 1.00 1.01 1.01 0.97 0.97 0.97 0.98 1.00 1.01 1.02 1.02 1.02
1.19 1.18 1.15 1.14 1.20 1.21 1.19 1.16 1.12 1.15 1.12 1.11 1.08 1.07 1.07 1.09 1.09 1.07 1.07 1.06 1.03 0.99 0.96 0.93 0.92 0.93 0.91 0.90 0.89 0.91 0.91 0.90 0.92 0.93 0.93 0.95 0.98 1.02 1.03 1.02 1.01 1.00
1.18 1.18 1.17 1.17 1.16 1.16 1.18 1.18 1.16 1.15 1.17 1.15 1.12 1.11 1.09 1.10 1.10 1.07 1.08 1.07 1.06 1.03 1.01 0.94 0.92 0.93 0.93 0.94 0.93 0.93 0.93 0.93 0.94 0.94 0.94 0.97 1.01 1.02 1.04 1.02 1.00 0.97
1.13 1.17 1.21 1.20 1.17 1.17 1.19 1.19 1.21 1.19 1.17 1.15 1.14 1.12 1.08 1.05 1.03 1.02 0.99 0.98 1.00 1.00 0.97 0.96 0.93 0.93 0.95 0.96 0.95 0.95 0.97 0.98 0.98 0.95 0.96 0.99 1.01 1.00 0.97 0.97 0.96 0.95

ECMWFNIL_prec_pwat_090.txt.gz
Precipitable_Water
1.21 1.25 1.26 1.27 1.29 1.31 1.38 1.40 1.37 1.31 1.28 1.28 1.27 1.28 1.29 1.31 1.37 1.39 1.36 1.36 1.37 1.32 1.32 1.34 1.35 1.32 1.28 1.24 1.23 1.19 1.18 1.19 1.16 1.17 1.15 1.13 1.10 1.09 1.07 1.08 1.10 1.10
1.24 1.24 1.23 1.28 1.29 1.27 1.29 1.40 1.38 1.33 1.30 1.30 1.28 1.27 1.30 1.29 1.32 1.36 1.35 1.33 1.34 1.33 1.32 1.27 1.25 1.24 1.19 1.19 1.19 1.16 1.17 1.18 1.13 1.18 1.10 1.07 1.08 1.10 1.10 1.11 1.13 1.14
1.24 1.23 1.21 1.22 1.24 1.24 1.26 1.33 1.37 1.35 1.32 1.31 1.28 1.27 1.26 1.29 1.31 1.34 1.35 1.35 1.33 1.29 1.22 1.18 1.14 1.13 1.11 1.11 1.15 1.14 1.13 1.14 1.12 1.14 1.11 1.07 1.11 1.10 1.12 1.12 1.12 1.12
1.22 1.23 1.21 1.25 1.27 1.25 1.28 1.33 1.34 1.33 1.33 1.32 1.30 1.30 1.30 1.30 1.32 1.33 1.34 1.30 1.21 1.18 1.16 1.13 1.08 1.07 1.05 1.04 1.06 1.07 1.09 1.13 1.16 1.13 1.10 1.11 1.13 1.11 1.11 1.14 1.13 1.12
1.22 1.25 1.27 1.29 1.30 1.31 1.32 1.32 1.31 1.31 1.31 1.32 1.36 1.36 1.34 1.31 1.28 1.26 1.23 1.19 1.16 1.13 1.09 1.06 1.05 1.02 1.01 1.01 1.02 1.00 1.05 1.10 1.14 1.13 1.09 1.08 1.11 1.10 1.10 1.09 1.07 1.09
1.26 1.28 1.28 1.30 1.34 1.34 1.31 1.29 1.31 1.30 1.30 1.32 1.35 1.37 1.34 1.29 1.24 1.20 1.18 1.16 1.12 1.06 1.01 1.00 0.97 0.95 0.97 0.98 1.00 1.02 1.06 1.08 1.11 1.11 1.07 1.05 1.06 1.10 1.10 1.08 1.07 1.07
1.25 1.28 1.32 1.37 1.38 1.38 1.32 1.29 1.29 1.31 1.30 1.33 1.34 1.31 1.30 1.26 1.23 1.19 1.17 1.12 0.98 0.88 0.88 0.90 0.91 0.92 0.96 0.97 0.98 0.98 1.01 1.02 1.03 1.04 1.03 1.05 1.07 1.09 1.12 1.10 1.08 1.07
1.28 1.31 1.36 1.38 1.36 1.33 1.25 1.25 1.26 1.31 1.35 1.36 1.31 1.34 1.28 1.26 1.22 1.15 1.09 0.98 0.88 0.85 0.89 0.94 0.93 0.93 0.96 0.97 0.94 0.92 0.93 0.95 0.93 0.94 0.97 1.02 1.07 1.07 1.09 1.09 1.08 1.05
1.31 1.32 1.35 1.36 1.31 1.27 1.23 1.25 1.27 1.30 1.34 1.33 1.34 1.35 1.30 1.24 1.11 1.02 0.96 0.93 0.92 0.89 0.92 0.96 0.95 0.97 0.97 0.94 0.88 0.83 0.83 0.86 0.88 0.89 0.90 0.97 1.03 1.05 1.08 1.10 1.08 1.05
1.27 1.32 1.34 1.30 1.28 1.25 1.24 1.22 1.27 1.30 1.34 1.33 1.26 1.28 1.24 1.15 1.00 0.96 0.93 0.89 0.92 0.90 0.91 0.92 0.94 0.96 0.93 0.88 0.83 0.82 0.84 0.86 0.89 0.90 0.89 0.90 1.00 1.05 1.08 1.09 1.07 1.04
1.27 1.32 1.30 1.28 1.26 1.27 1.25 1.24 1.27 1.36 1.35 1.31 1.28 1.21 1.13 1.00 0.95 0.91 0.84 0.86 0.90 0.89 0.88 0.88 0.90 0.90 0.85 0.82 0.82 0.84 0.81 0.81 0.84 0.90 0.89 0.89 0.94 1.02 1.07 1.07 1.08 1.09
1.27 1.31 1.30 1.27 1.26 1.25 1.25 1.28 1.30 1.31 1.31 1.30 1.24 1.10 1.03 0.95 0.84 0.79 0.81 0.85 0.89 0.90 0.89 0.87 0.86 0.83 0.80 0.80 0.81 0.82 0.83 0.86 0.89 0.90 0.89 0.90 0.93 0.96 0.99 1.04 1.08 1.09
1.28 1.31 1.29 1.29 1.27 1.26 1.27 1.26 1.26 1.25 1.21 1.19 1.15 1.08 0.98 0.91 0.81 0.80 0.85 0.84 0.82 0.88 0.87 0.85 0.84 0.81 0.80 0.82 0.85 0.87 0.88 0.89 0.90 0.91 0.91 0.94 0.96 0.96 0.95 0.99 1.01 1.00
1.30 1.32 1.28 1.29 1.28 1.26 1.25 1.25 1.23 1.20 1.17 1.15 1.12 1.04 0.98 0.89 0.78 0.78 0.81 0.82 0.78 0.81 0.83 0.83 0.81 0.80 0.81 0.84 0.85 0.86 0.89 0.89 0.91 0.92 0.93 0.94 0.94 0.93 0.92 0.92 0.93 0.93
1.33 1.34 1.33 1.30 1.25 1.26 1.25 1.23 1.20 1.15 1.11 1.05 1.06 1.02 1.00 0.87 0.80 0.77 0.77 0.77 0.78 0.80 0.79 0.81 0.80 0.79 0.81 0.82 0.83 0.86 0.89 0.89 0.92 0.93 0.92 0.90 0.89 0.87 0.87 0.88 0.88 0.89
1.33 1.33 1.34 1.33 1.29 1.28 1.29 1.27 1.20 1.12 1.03 1.00 1.01 1.02 0.94 0.85 0.80 0.79 0.78 0.78 0.77 0.77 0.76 0.78 0.76 0.79 0.82 0.83 0.86 0.88 0.89 0.90 0.92 0.92 0.91 0.90 0.88 0.88 0.89 0.90 0.89 0.88
1.30 1.29 1.32 1.31 1.29 1.25 1.26 1.27 1.16 1.08 1.01 1.01 1.01 0.99 0.91 0.86 0.82 0.80 0.80 0.81 0.79 0.76 0.76 0.77 0.76 0.81 0.85 0.86 0.88 0.90 0.90 0.90 0.91 0.92 0.93 0.90 0.90 0.91 0.91 0.93 0.94 0.96
1.27 1.30 1.30 1.28 1.26 1.24 1.21 1.22 1.14 1.04 1.02 1.02 1.01 0.98 0.92 0.87 0.82 0.81 0.82 0.83 0.81 0.79 0.77 0.78 0.79 0.84 0.88 0.88 0.90 0.91 0.92 0.93 0.94 0.94 0.94 0.93 0.94 0.93 0.95 0.96 0.97 0.99
1.27 1.28 1.26 1.23 1.20 1.22 1.24 1.18 1.08 1.04 1.04 1.00 0.97 0.98 0.94 0.86 0.83 0.83 0.83 0.85 0.82 0.80 0.81 0.83 0.85 0.89 0.90 0.91 0.93 0.95 0.96 0.97 0.99 1.00 0.98 0.97 0.98 0.99 0.99 1.00 1.02 1.03
1.28 1.25 1.21 1.20 1.19 1.20 1.24 1.15 1.07 1.05 1.05 1.04 0.99 0.96 0.92 0.87 0.87 0.85 0.86 0.86 0.85 0.84 0.85 0.89 0.92 0.95 0.97 0.99 1.00 1.00 1.01 1.02 1.02 1.03 1.03 1.02 1.04 1.03 1.02 1.02 1.03 1.01
1.25 1.22 1.21 1.21 1.22 1.21 1.16 1.13 1.12 1.07 1.05 1.05 1.01 0.94 0.90 0.87 0.87 0.86 0.87 0.88 0.88 0.89 0.90 0.91 0.96 1.02 1.05 1.05 1.05 1.05 1.04 1.04 1.06 1.06 1.07 1.07 1.08 1.08 1.07 1.06 1.05 1.04
1.22 1.23 1.22 1.21 1.21 1.19 1.17 1.18 1.16 1.11 1.05 1.06 1.04 1.00 0.98 0.95 0.94 0.92 0.88 0.88 0.90 0.91 0.91 0.92 0.97 1.02 1.06 1.07 1.07 1.06 1.06 1.06 1.05 1.03 1.04 1.05 1.06 1.09 1.10 1.10 1.10 1.08
1.20 1.19 1.17 1.20 1.20 1.18 1.17 1.17 1.17 1.16 1.12 1.10 1.06 1.05 1.01 0.98 0.98 0.98 0.96 0.93 0.92 0.93 0.92 0.93 0.95 0.99 1.02 1.02 1.02 1.03 1.04 1.05 1.07 1.04 1.02 1.03 1.03 1.05 1.05 1.05 1.06 1.05
1.26 1.22 1.20 1.17 1.17 1.16 1.14 1.14 1.15 1.18 1.16 1.15 1.08 1.07 1.03 1.02 1.03 1.01 1.03 1.03 0.99 0.97 0.96 0.91 0.92 0.96 0.98 0.99 0.98 0.98 0.98 1.02 1.05 1.03 1.01 1.01 1.00 1.00 0.99 0.98 1.00 1.00
1.18 1.23 1.23 1.20 1.17 1.17 1.18 1.17 1.16 1.12 1.14 1.17 1.15 1.12 1.11 1.10 1.08 1.05 1.05 1.06 1.05 1.02 0.99 0.95 0.95 0.96 0.97 0.97 0.98 0.99 0.99 0.98 0.97 0.96 0.94 0.94 0.94 0.94 0.97 0.97 0.99 1.00
1.11 1.12 1.13 1.18 1.20 1.19 1.19 1.20 1.19 1.13 1.12 1.13 1.14 1.13 1.11 1.11 1.10 1.06 1.01 0.99 1.01 1.02 1.00 1.00 0.97 0.96 0.95 0.93 0.92 0.94 0.95 0.96 0.97 0.92 0.89 0.92 0.95 0.95 0.94 0.96 0.98 0.99

ECMWFNIL_prec_pwat_093.txt.gz
Precipitable_Water
1.29 1.30 1.29 1.26 1.25 1.31 1.32 1.29 1.31 1.30 1.30 1.32 1.29 1.30 1.30 1.31 1.36 1.36 1.35 1.37 1.37 1.35 1.35 1.36 1.37 1.34 1.33 1.32 1.29 1.27 1.24 1.21 1.19 1.18 1.15 1.13 1.13 1.10 1.09 1.10 1.12 1.12
1.25 1.27 1.30 1.28 1.25 1.30 1.36 1.35 1.31 1.30 1.28 1.29 1.31 1.31 1.32 1.33 1.37 1.37 1.35 1.35 1.34 1.34 1.37 1.36 1.36 1.36 1.33 1.28 1.28 1.26 1.22 1.18 1.16 1.21 1.15 1.12 1.12 1.11 1.09 1.10 1.11 1.13
1.20 1.20 1.24 1.21 1.20 1.23 1.31 1.37 1.36 1.33 1.30 1.30 1.32 1.31 1.32 1.36 1.37 1.39 1.40 1.37 1.32 1.34 1.35 1.34 1.34 1.35 1.31 1.26 1.27 1.25 1.19 1.16 1.16 1.18 1.14 1.12 1.13 1.09 1.09 1.11 1.10 1.10
1.17 1.18 1.21 1.22 1.23 1.24 1.30 1.35 1.34 1.33 1.32 1.29 1.28 1.32 1.35 1.36 1.36 1.35 1.37 1.37 1.32 1.32 1.31 1.31 1.31 1.31 1.28 1.26 1.24 1.20 1.18 1.19 1.20 1.20 1.15 1.14 1.12 1.10 1.10 1.12 1.11 1.11
1.21 1.21 1.24 1.27 1.26 1.27 1.31 1.33 1.32 1.32 1.31 1.29 1.30 1.33 1.32 1.31 1.29 1.28 1.31 1.31 1.31 1.28 1.27 1.27 1.24 1.20 1.21 1.19 1.18 1.14 1.14 1.15 1.17 1.16 1.11 1.08 1.09 1.10 1.12 1.12 1.10 1.09
1.27 1.25 1.26 1.29 1.28 1.26 1.28 1.31 1.34 1.35 1.36 1.35 1.35 1.35 1.30 1.27 1.25 1.26 1.28 1.28 1.29 1.27 1.23 1.19 1.15 1.12 1.13 1.11 1.11 1.10 1.10 1.10 1.14 1.13 1.08 1.06 1.07 1.11 1.11 1.10 1.10 1.09
1.27 1.26 1.26 1.30 1.29 1.29 1.29 1.32 1.35 1.42 1.40 1.36 1.36 1.33 1.32 1.29 1.28 1.29 1.29 1.29 1.28 1.22 1.16 1.12 1.09 1.06 1.06 1.04 1.04 1.04 1.05 1.09 1.12 1.12 1.07 1.07 1.09 1.08 1.10 1.09 1.07 1.05
1.32 1.29 1.28 1.30 1.27 1.29 1.29 1.30 1.37 1.34 1.33 1.36 1.33 1.34 1.32 1.36 1.34 1.33 1.31 1.27 1.21 1.15 1.12 1.09 1.04 1.01 0.99 0.99 0.98 1.00 1.02 1.08 1.08 1.08 1.06 1.05 1.06 1.04 1.06 1.06 1.05 1.05
1.28 1.28 1.29 1.29 1.28 1.28 1.30 1.33 1.35 1.35 1.36 1.33 1.31 1.32 1.35 1.32 1.39 1.31 1.26 1.20 1.16 1.12 1.07 1.00 0.97 0.94 0.96 0.97 0.98 0.99 0.99 1.02 1.04 1.04 1.02 1.01 1.00 1.02 1.05 1.07 1.06 1.07
1.31 1.33 1.28 1.30 1.29 1.31 1.33 1.37 1.36 1.33 1.35 1.34 1.34 1.35 1.32 1.33 1.35 1.31 1.25 1.19 1.12 1.02 0.92 0.87 0.88 0.91 0.96 0.98 0.97 0.96 0.94 0.94 0.94 0.94 0.96 0.99 1.01 1.04 1.07 1.08 1.06 1.03
1.29 1.29 1.23 1.25 1.32 1.35 1.35 1.35 1.35 1.34 1.34 1.34 1.35 1.34 1.34 1.30 1.25 1.27 1.21 1.12 0.98 0.88 0.85 0.86 0.89 0.96 0.99 0.98 0.95 0.91 0.87 0.86 0.85 0.87 0.90 0.96 1.02 1.07 1.09 1.07 1.06 1.04
1.23 1.22 1.21 1.25 1.31 1.36 1.35 1.32 1.36 1.33 1.33 1.36 1.36 1.32 1.30 1.29 1.23 1.18 1.07 0.98 0.93 0.89 0.86 0.89 0.94 0.98 0.96 0.91 0.86 0.84 0.85 0.86 0.87 0.87 0.89 0.95 1.03 1.08 1.09 1.09 1.10 1.09
1.23 1.20 1.26 1.29 1.29 1.33 1.32 1.33 1.34 1.30 1.31 1.31 1.33 1.33 1.29 1.25 1.15 1.06 1.02 0.93 0.91 0.88 0.87 0.89 0.92 0.95 0.92 0.87 0.83 0.82 0.84 0.86 0.88 0.89 0.90 0.93 0.99 1.06 1.09 1.09 1.11 1.10
1.29 1.27 1.27 1.27 1.28 1.31 1.33 1.34 1.36 1.34 1.32 1.34 1.31 1.28 1.27 1.16 1.02 0.98 0.96 0.90 0.90 0.87 0.89 0.91 0.92 0.92 0.87 0.83 0.83 0.83 0.81 0.84 0.85 0.88 0.89 0.91 0.94 1.00 1.03 1.03 1.06 1.05
1.27 1.27 1.32 1.29 1.29 1.29 1.31 1.30 1.35 1.36 1.33 1.31 1.27 1.24 1.19 1.07 0.95 0.87 0.83 0.84 0.89 0.87 0.88 0.90 0.91 0.88 0.86 0.86 0.86 0.86 0.87 0.84 0.86 0.88 0.87 0.87 0.89 0.92 0.96 0.98 1.00 0.98
1.29 1.29 1.30 1.30 1.29 1.31 1.33 1.32 1.32 1.30 1.27 1.25 1.26 1.18 1.14 0.97 0.83 0.81 0.81 0.83 0.86 0.87 0.88 0.88 0.87 0.87 0.86 0.89 0.90 0.87 0.88 0.88 0.89 0.90 0.89 0.89 0.89 0.89 0.92 0.94 0.94 0.94
1.29 1.29 1.30 1.29 1.29 1.31 1.29 1.29 1.29 1.28 1.22 1.22 1.25 1.20 1.08 0.92 0.84 0.81 0.80 0.81 0.83 0.87 0.86 0.85 0.85 0.84 0.84 0.87 0.88 0.88 0.89 0.90 0.91 0.92 0.92 0.92 0.90 0.89 0.90 0.92 0.93 0.94
1.29 1.31 1.29 1.29 1.30 1.27 1.29 1.28 1.26 1.23 1.21 1.18 1.21 1.15 1.01 0.93 0.86 0.82 0.82 0.80 0.78 0.82 0.84 0.84 0.83 0.83 0.83 0.86 0.86 0.87 0.90 0.91 0.94 0.94 0.93 0.93 0.93 0.91 0.91 0.91 0.91 0.92
1.29 1.30 1.29 1.27 1.27 1.27 1.28 1.25 1.27 1.23 1.20 1.16 1.14 1.06 0.97 0.89 0.87 0.81 0.80 0.79 0.77 0.77 0.79 0.82 0.80 0.83 0.85 0.86 0.87 0.89 0.92 0.94 0.94 0.95 0.93 0.94 0.94 0.95 0.95 0.96 0.96 0.96
1.27 1.26 1.27 1.29 1.29 1.29 1.26 1.23 1.23 1.18 1.12 1.11 1.07 1.00 0.92 0.87 0.84 0.80 0.79 0.78 0.77 0.77 0.79 0.79 0.79 0.83 0.86 0.87 0.89 0.91 0.93 0.94 0.95 0.95 0.96 0.95 0.96 0.98 0.98 0.98 0.98 0.99
1.24 1.24 1.25 1.26 1.27 1.28 1.24 1.20 1.19 1.15 1.11 1.07 1.01 0.96 0.89 0.84 0.80 0.79 0.79 0.79 0.79 0.81 0.79 0.78 0.81 0.87 0.89 0.91 0.91 0.92 0.94 0.95 0.97 0.99 1.00 1.00 1.01 1.01 1.01 1.02 1.03 1.04
1.22 1.23 1.23 1.25 1.22 1.23 1.22 1.18 1.18 1.13 1.10 1.06 1.02 0.99 0.94 0.90 0.86 0.83 0.82 0.82 0.84 0.84 0.81 0.80 0.86 0.91 0.94 0.94 0.94 0.95 0.98 0.99 1.00 1.00 1.01 1.01 1.02 1.05 1.06 1.07 1.07 1.06
1.20 1.19 1.19 1.18 1.19 1.15 1.17 1.18 1.16 1.14 1.14 1.06 1.00 0.97 0.93 0.91 0.88 0.88 0.88 0.87 0.87 0.88 0.86 0.86 0.89 0.93 0.96 0.97 0.98 1.01 0.98 0.99 1.00 1.01 1.02 1.05 1.07 1.07 1.09 1.09 1.09 1.07
1.20 1.22 1.19 1.17 1.18 1.16 1.14 1.16 1.13 1.15 1.11 1.09 1.00 0.96 0.94 0.92 0.91 0.91 0.93 0.93 0.93 0.94 0.95 0.93 0.94 0.97 0.97 0.99 1.02 1.03 1.04 1.02 1.02 0.98 1.03 1.04 1.05 1.07 1.08 1.08 1.08 1.06
1.15 1.18 1.20 1.20 1.18 1.17 1.17 1.15 1.14 1.15 1.12 1.12 1.10 1.02 0.98 0.97 0.96 0.94 0.95 0.97 0.97 0.99 1.03 1.01 1.00 1.02 1.04 1.04 1.04 1.07 1.08 1.06 1.03 1.02 1.02 1.00 1.01 1.01 1.02 1.00 1.00 1.00
1.09 1.11 1.13 1.17 1.17 1.18 1.17 1.16 1.16 1.16 1.11 1.10 1.05 1.02 1.01 1.00 1.01 1.00 0.97 0.99 0.99 0.96 1.00 1.03 1.03 1.03 1.06 1.07 1.07 1.07 1.06 1.06 1.07 1.02 0.99 0.99 0.99 0.97 0.96 0.97 0.98 0.97

ECMWFNIL_prec_pwat_096.txt.gz
Precipitable_Water
1.26 1.20 1.16 1.16 1.19 1.24 1.24 1.24 1.28 1.28 1.32 1.35 1.32 1.34 1.36 1.39 1.42 1.39 1.38 1.38 1.38 1.37 1.35 1.36 1.39 1.39 1.40 1.40 1.36 1.30 1.28 1.27 1.29 1.31 1.31 1.28 1.23 1.23 1.20 1.18 1.18 1.16
1.34 1.31 1.28 1.26 1.25 1.28 1.29 1.31 1.33 1.34 1.35 1.38 1.39 1.40 1.41 1.41 1.41 1.41 1.38 1.37 1.39 1.40 1.41 1.41 1.40 1.40 1.39 1.36 1.34 1.29 1.26 1.26 1.25 1.32 1.26 1.21 1.21 1.23 1.20 1.19 1.15 1.15
1.35 1.35 1.35 1.30 1.28 1.29 1.31 1.33 1.35 1.38 1.38 1.40 1.44 1.46 1.42 1.41 1.39 1.39 1.39 1.38 1.37 1.39 1.40 1.40 1.38 1.39 1.39 1.36 1.34 1.30 1.27 1.25 1.24 1.27 1.25 1.21 1.23 1.21 1.21 1.19 1.14 1.13
1.33 1.36 1.37 1.34 1.33 1.31 1.33 1.30 1.30 1.35 1.40 1.38 1.42 1.48 1.44 1.43 1.41 1.37 1.37 1.39 1.36 1.36 1.37 1.37 1.37 1.39 1.38 1.37 1.34 1.29 1.28 1.26 1.25 1.26 1.23 1.24 1.23 1.21 1.18 1.17 1.15 1.13
1.37 1.38 1.39 1.36 1.35 1.34 1.33 1.28 1.28 1.31 1.38 1.41 1.44 1.45 1.48 1.39 1.39 1.37 1.38 1.38 1.37 1.35 1.34 1.34 1.36 1.36 1.37 1.36 1.33 1.26 1.26 1.24 1.23 1.24 1.22 1.19 1.20 1.19 1.17 1.15 1.11 1.09
1.39 1.39 1.39 1.36 1.35 1.30 1.28 1.27 1.28 1.29 1.28 1.30 1.34 1.44 1.43 1.40 1.37 1.37 1.37 1.36 1.36 1.35 1.32 1.33 1.33 1.35 1.37 1.35 1.31 1.26 1.24 1.20 1.21 1.22 1.18 1.15 1.16 1.17 1.15 1.13 1.10 1.08
1.37 1.37 1.36 1.33 1.32 1.31 1.29 1.31 1.27 1.22 1.29 1.36 1.40 1.40 1.41 1.37 1.36 1.36 1.36 1.35 1.34 1.32 1.30 1.30 1.30 1.31 1.33 1.30 1.26 1.23 1.22 1.19 1.18 1.17 1.14 1.13 1.12 1.11 1.14 1.13 1.11 1.08
1.33 1.33 1.28 1.29 1.31 1.31 1.26 1.29 1.29 1.27 1.29 1.34 1.34 1.36 1.38 1.36 1.35 1.35 1.33 1.31 1.29 1.29 1.29 1.29 1.30 1.27 1.23 1.20 1.18 1.16 1.15 1.16 1.14 1.14 1.12 1.10 1.10 1.07 1.10 1.10 1.09 1.07
1.30 1.30 1.29 1.27 1.26 1.25 1.23 1.17 1.25 1.28 1.31 1.30 1.32 1.33 1.36 1.35 1.31 1.31 1.29 1.29 1.28 1.27 1.28 1.28 1.26 1.20 1.17 1.13 1.10 1.07 1.07 1.08 1.11 1.12 1.11 1.07 1.05 1.06 1.06 1.07 1.06 1.03
1.29 1.29 1.29 1.27 1.22 1.21 1.22 1.26 1.27 1.25 1.27 1.29 1.33 1.35 1.33 1.33 1.33 1.32 1.30 1.29 1.26 1.26 1.27 1.25 1.21 1.16 1.11 1.07 1.02 1.00 1.01 1.04 1.08 1.11 1.11 1.09 1.06 1.05 1.05 1.05 1.03 1.02
1.26 1.26 1.25 1.24 1.22 1.24 1.25 1.24 1.24 1.25 1.28 1.30 1.34 1.34 1.33 1.31 1.32 1.35 1.33 1.30 1.26 1.25 1.24 1.21 1.17 1.10 1.03 0.99 0.97 1.00 1.03 1.05 1.07 1.07 1.07 1.06 1.06 1.05 1.07 1.07 1.06 1.04
1.24 1.23 1.21 1.21 1.22 1.24 1.25 1.26 1.25 1.27 1.30 1.35 1.36 1.33 1.32 1.32 1.32 1.30 1.30 1.29 1.27 1.23 1.21 1.17 1.11 1.03 0.95 0.94 0.95 0.98 1.01 1.02 1.03 1.02 1.02 1.02 1.04 1.07 1.10 1.11 1.08 1.06
1.22 1.23 1.22 1.21 1.23 1.25 1.27 1.29 1.28 1.28 1.29 1.32 1.35 1.34 1.30 1.32 1.32 1.30 1.31 1.29 1.24 1.22 1.16 1.05 0.98 0.94 0.93 0.97 0.98 0.97 0.95 0.95 0.94 0.94 0.95 0.98 1.03 1.08 1.11 1.12 1.11 1.11
1.22 1.25 1.26 1.27 1.28 1.30 1.29 1.30 1.32 1.34 1.32 1.33 1.33 1.31 1.34 1.32 1.31 1.31 1.31 1.26 1.23 1.18 1.05 0.91 0.89 0.90 0.98 1.01 0.97 0.91 0.88 0.88 0.89 0.88 0.89 0.94 1.02 1.07 1.11 1.12 1.12 1.14
1.22 1.27 1.30 1.31 1.31 1.30 1.28 1.30 1.33 1.35 1.34 1.33 1.32 1.31 1.31 1.32 1.33 1.30 1.27 1.21 1.16 1.09 0.95 0.88 0.90 0.95 1.00 0.97 0.88 0.85 0.87 0.88 0.91 0.91 0.88 0.90 0.97 1.04 1.07 1.08 1.09 1.11
1.20 1.27 1.30 1.32 1.30 1.29 1.28 1.29 1.33 1.33 1.34 1.32 1.33 1.32 1.30 1.30 1.30 1.32 1.24 1.16 1.08 0.99 0.90 0.88 0.92 0.98 0.99 0.94 0.88 0.86 0.88 0.91 0.92 0.91 0.89 0.91 0.94 0.97 0.99 1.01 1.03 1.03
1.22 1.26 1.29 1.29 1.30 1.31 1.30 1.28 1.30 1.32 1.31 1.29 1.30 1.29 1.26 1.29 1.28 1.24 1.19 1.13 1.01 0.89 0.83 0.87 0.92 0.97 0.97 0.90 0.86 0.87 0.88 0.90 0.89 0.91 0.92 0.91 0.92 0.92 0.91 0.91 0.94 0.95
1.20 1.26 1.26 1.28 1.31 1.31 1.31 1.28 1.30 1.30 1.28 1.28 1.29 1.25 1.23 1.25 1.22 1.15 1.08 1.01 0.91 0.83 0.80 0.86 0.91 0.95 0.91 0.87 0.88 0.89 0.91 0.90 0.93 0.94 0.93 0.93 0.92 0.91 0.90 0.91 0.93 0.94
1.21 1.23 1.28 1.29 1.30 1.30 1.30 1.28 1.27 1.27 1.27 1.25 1.22 1.22 1.23 1.18 1.07 0.99 0.92 0.90 0.85 0.81 0.81 0.86 0.89 0.91 0.91 0.90 0.93 0.95 0.96 0.97 0.97 0.97 0.94 0.92 0.91 0.93 0.94 0.95 0.94 0.93
1.19 1.22 1.25 1.28 1.31 1.31 1.29 1.25 1.24 1.23 1.23 1.23 1.24 1.21 1.20 1.09 0.97 0.92 0.88 0.86 0.85 0.85 0.86 0.88 0.89 0.92 0.91 0.90 0.93 0.93 0.97 0.99 1.00 0.98 0.96 0.94 0.94 0.95 0.95 0.94 0.93 0.92
1.16 1.18 1.20 1.26 1.29 1.30 1.29 1.26 1.24 1.23 1.18 1.16 1.21 1.21 1.17 1.04 0.93 0.87 0.84 0.82 0.82 0.86 0.90 0.89 0.90 0.93 0.89 0.90 0.91 0.92 0.95 0.98 1.00 0.99 0.97 0.97 0.98 1.00 0.99 0.98 0.98 0.97
1.11 1.18 1.18 1.20 1.26 1.27 1.26 1.24 1.21 1.21 1.19 1.17 1.19 1.21 1.14 1.06 0.96 0.89 0.83 0.81 0.82 0.82 0.84 0.86 0.89 0.89 0.89 0.91 0.92 0.94 0.96 0.98 0.99 0.97 0.95 0.97 0.98 1.01 1.01 1.02 1.03 1.04
1.08 1.13 1.15 1.17 1.19 1.22 1.22 1.22 1.22 1.19 1.13 1.14 1.16 1.16 1.04 1.00 0.93 0.86 0.86 0.84 0.81 0.81 0.80 0.81 0.82 0.87 0.92 0.93 0.95 0.96 0.96 0.96 0.97 0.96 0.96 0.97 0.98 1.00 1.03 1.04 1.06 1.07
1.06 1.10 1.13 1.13 1.14 1.11 1.15 1.21 1.22 1.17 1.10 1.10 1.10 1.07 1.00 0.95 0.93 0.87 0.87 0.85 0.83 0.82 0.82 0.77 0.81 0.89 0.94 0.96 0.96 0.99 0.97 0.95 0.95 0.95 0.96 0.97 0.98 1.01 1.03 1.05 1.07 1.07
1.01 1.05 1.08 1.11 1.13 1.12 1.11 1.11 1.16 1.16 1.16 1.11 1.08 1.09 1.02 0.96 0.92 0.87 0.87 0.88 0.89 0.88 0.86 0.82 0.83 0.88 0.93 0.96 0.97 0.98 0.99 0.97 0.96 0.95 0.94 0.95 0.99 1.01 1.04 1.05 1.06 1.05
0.99 1.00 1.04 1.04 1.09 1.12 1.14 1.14 1.16 1.11 1.09 1.12 1.09 1.09 1.02 0.96 0.94 0.89 0.89 0.90 0.92 0.93 0.90 0.90 0.90 0.91 0.95 0.97 0.99 1.01 1.03 1.05 1.01 1.01 0.96 0.96 0.99 1.00 0.95 1.02 1.03 1.01

ECMWFNIL_prec_pwat_099.txt.gz
Precipitable_Water
1.27 1.26 1.24 1.27 1.30 1.33 1.31 1.29 1.32 1.34 1.37 1.39 1.36 1.39 1.42 1.46 1.48 1.49 1.49 1.49 1.49 1.48 1.48 1.48 1.47 1.45 1.44 1.42 1.40 1.39 1.37 1.36 1.35 1.34 1.34 1.35 1.32 1.28 1.28 1.31 1.32 1.28
1.25 1.26 1.26 1.28 1.33 1.36 1.37 1.36 1.36 1.35 1.36 1.39 1.42 1.45 1.47 1.50 1.48 1.49 1.48 1.47 1.48 1.46 1.47 1.45 1.44 1.42 1.40 1.38 1.38 1.36 1.34 1.33 1.30 1.34 1.31 1.31 1.31 1.32 1.31 1.31 1.29 1.28
1.21 1.20 1.21 1.22 1.26 1.33 1.36 1.42 1.42 1.39 1.42 1.44 1.45 1.40 1.45 1.49 1.50 1.50 1.48 1.47 1.45 1.44 1.43 1.42 1.40 1.38 1.38 1.39 1.39 1.36 1.31 1.27 1.26 1.30 1.30 1.30 1.35 1.32 1.34 1.35 1.28 1.24
1.18 1.19 1.20 1.25 1.32 1.35 1.39 1.42 1.33 1.30 1.35 1.38 1.36 1.39 1.44 1.47 1.46 1.48 1.49 1.47 1.43 1.41 1.41 1.41 1.39 1.40 1.41 1.41 1.40 1.35 1.31 1.28 1.29 1.29 1.27 1.30 1.30 1.28 1.28 1.28 1.26 1.23
1.21 1.23 1.23 1.26 1.33 1.33 1.30 1.25 1.21 1.19 1.25 1.36 1.40 1.41 1.44 1.46 1.46 1.46 1.47 1.45 1.43 1.40 1.40 1.42 1.44 1.43 1.43 1.43 1.43 1.36 1.33 1.31 1.30 1.28 1.25 1.23 1.25 1.25 1.26 1.25 1.22 1.18
1.23 1.25 1.27 1.30 1.29 1.23 1.25 1.24 1.26 1.25 1.29 1.33 1.35 1.37 1.41 1.45 1.45 1.44 1.44 1.42 1.41 1.40 1.39 1.41 1.41 1.38 1.36 1.35 1.41 1.41 1.39 1.33 1.30 1.28 1.23 1.20 1.20 1.25 1.24 1.21 1.18 1.16
1.25 1.27 1.29 1.31 1.28 1.28 1.26 1.30 1.32 1.30 1.29 1.33 1.37 1.34 1.40 1.43 1.42 1.42 1.44 1.43 1.40 1.43 1.42 1.38 1.37 1.34 1.36 1.33 1.35 1.35 1.36 1.36 1.31 1.25 1.19 1.18 1.18 1.18 1.17 1.19 1.18 1.16
1.30 1.31 1.32 1.33 1.29 1.31 1.28 1.29 1.33 1.32 1.32 1.33 1.29 1.32 1.37 1.39 1.41 1.41 1.42 1.38 1.34 1.37 1.40 1.39 1.38 1.35 1.35 1.36 1.35 1.34 1.33 1.37 1.29 1.22 1.18 1.16 1.16 1.13 1.13 1.15 1.19 1.16
1.30 1.31 1.31 1.30 1.30 1.29 1.27 1.29 1.31 1.29 1.33 1.31 1.31 1.32 1.36 1.39 1.42 1.41 1.39 1.37 1.35 1.36 1.37 1.38 1.38 1.36 1.38 1.38 1.35 1.31 1.32 1.28 1.24 1.19 1.15 1.13 1.12 1.11 1.10 1.13 1.12 1.11
1.24 1.28 1.31 1.32 1.29 1.29 1.29 1.33 1.32 1.30 1.34 1.33 1.34 1.36 1.34 1.38 1.42 1.42 1.40 1.38 1.37 1.37 1.38 1.37 1.34 1.34 1.37 1.38 1.34 1.28 1.23 1.20 1.17 1.15 1.14 1.13 1.11 1.10 1.09 1.10 1.10 1.10
1.30 1.32 1.32 1.32 1.32 1.34 1.33 1.33 1.30 1.31 1.32 1.31 1.32 1.33 1.34 1.35 1.38 1.42 1.39 1.36 1.34 1.34 1.34 1.32 1.31 1.33 1.30 1.27 1.23 1.20 1.16 1.14 1.12 1.13 1.14 1.15 1.14 1.12 1.11 1.10 1.10 1.09
1.27 1.30 1.31 1.30 1.31 1.33 1.33 1.32 1.32 1.30 1.30 1.31 1.33 1.31 1.32 1.34 1.35 1.37 1.35 1.32 1.32 1.33 1.34 1.30 1.31 1.31 1.27 1.21 1.15 1.11 1.09 1.10 1.12 1.13 1.15 1.16 1.15 1.15 1.13 1.12 1.11 1.11
1.19 1.24 1.27 1.28 1.28 1.28 1.30 1.30 1.29 1.29 1.29 1.29 1.33 1.32 1.32 1.33 1.36 1.35 1.35 1.33 1.33 1.32 1.31 1.31 1.31 1.30 1.25 1.18 1.11 1.06 1.05 1.06 1.09 1.11 1.13 1.14 1.14 1.13 1.12 1.13 1.15 1.14
1.15 1.19 1.22 1.26 1.29 1.29 1.29 1.29 1.30 1.30 1.29 1.31 1.34 1.31 1.33 1.34 1.35 1.33 1.36 1.36 1.34 1.35 1.38 1.36 1.32 1.29 1.23 1.14 1.05 1.02 1.03 1.05 1.07 1.08 1.08 1.09 1.09 1.11 1.14 1.15 1.16 1.16
1.17 1.19 1.22 1.24 1.26 1.27 1.27 1.29 1.30 1.31 1.32 1.31 1.32 1.33 1.35 1.36 1.35 1.33 1.32 1.30 1.34 1.35 1.35 1.33 1.30 1.26 1.20 1.07 0.99 0.99 1.02 1.03 1.04 1.04 1.03 1.01 1.02 1.07 1.11 1.14 1.15 1.15
1.19 1.21 1.21 1.22 1.24 1.28 1.30 1.30 1.30 1.31 1.31 1.30 1.30 1.31 1.34 1.36 1.34 1.32 1.28 1.28 1.27 1.28 1.31 1.27 1.23 1.20 1.11 1.02 0.98 0.98 1.00 0.98 0.96 0.97 0.99 0.99 0.99 1.03 1.07 1.11 1.13 1.14
1.14 1.17 1.21 1.23 1.26 1.31 1.33 1.30 1.30 1.31 1.29 1.28 1.30 1.31 1.36 1.35 1.33 1.27 1.27 1.28 1.26 1.25 1.24 1.22 1.15 1.08 1.01 0.98 0.98 0.99 0.96 0.93 0.91 0.93 0.96 1.00 1.02 1.05 1.04 1.05 1.08 1.09
1.11 1.15 1.17 1.21 1.25 1.27 1.32 1.31 1.30 1.27 1.29 1.28 1.30 1.33 1.35 1.31 1.28 1.28 1.27 1.26 1.23 1.21 1.19 1.15 1.08 1.03 0.99 0.99 1.00 0.95 0.92 0.95 0.95 0.94 0.96 0.97 1.01 1.04 1.03 1.02 1.01 1.01
1.10 1.12 1.16 1.19 1.23 1.29 1.32 1.31 1.30 1.30 1.30 1.28 1.28 1.33 1.35 1.28 1.21 1.27 1.25 1.25 1.22 1.18 1.14 1.11 1.05 1.01 1.00 1.00 0.97 0.92 0.93 0.96 0.97 0.98 0.96 0.97 0.99 1.00 1.00 0.99 0.97 0.96
1.07 1.08 1.13 1.18 1.23 1.26 1.29 1.28 1.28 1.26 1.28 1.30 1.28 1.30 1.29 1.25 1.25 1.24 1.24 1.23 1.20 1.16 1.11 1.08 1.03 1.00 0.99 0.95 0.89 0.88 0.92 0.95 0.97 1.00 0.99 0.99 0.98 0.99 0.99 0.97 0.97 0.97
1.03 1.07 1.09 1.14 1.19 1.22 1.25 1.26 1.25 1.25 1.27 1.28 1.28 1.27 1.25 1.23 1.22 1.20 1.20 1.19 1.16 1.13 1.07 1.03 0.99 0.96 0.93 0.90 0.88 0.92 0.94 0.95 1.00 1.03 1.03 1.02 1.02 1.02 1.01 1.02 1.03 1.03
0.99 1.02 1.05 1.10 1.15 1.18 1.19 1.21 1.24 1.23 1.24 1.24 1.27 1.27 1.24 1.24 1.20 1.18 1.13 1.12 1.11 1.09 1.02 0.96 0.93 0.91 0.91 0.90 0.91 0.95 0.98 0.98 1.03 1.03 1.02 1.01 1.00 1.02 1.02 1.03 1.03 1.02
0.96 0.99 1.01 1.03 1.06 1.10 1.14 1.14 1.20 1.22 1.21 1.19 1.20 1.23 1.19 1.17 1.13 1.12 1.11 1.09 1.05 1.03 0.98 0.92 0.88 0.89 0.92 0.94 0.93 0.95 0.97 0.99 1.03 1.04 1.02 0.99 0.98 0.99 1.00 1.01 1.02 1.04
0.95 0.96 0.97 0.99 1.00 1.00 1.04 1.11 1.15 1.18 1.18 1.19 1.15 1.19 1.16 1.13 1.12 1.08 1.05 1.01 0.96 0.91 0.91 0.90 0.90 0.93 0.96 0.96 0.94 0.94 0.95 0.98 1.01 1.02 1.00 0.97 0.96 0.97 0.99 1.01 1.03 1.05
0.91 0.92 0.93 0.95 0.99 1.01 1.03 1.05 1.11 1.14 1.14 1.11 1.11 1.14 1.14 1.12 1.14 1.03 0.97 0.93 0.94 0.90 0.89 0.88 0.91 0.96 0.98 0.95 0.94 0.96 0.99 1.02 1.02 1.02 0.97 0.95 0.95 0.96 0.99 1.01 1.03 1.05
0.90 0.90 0.91 0.92 0.95 1.00 1.02 1.05 1.05 1.06 1.09 1.10 1.08 1.12 1.09 1.07 1.03 1.00 0.92 0.93 0.90 0.90 0.89 0.89 0.88 0.89 0.93 0.95 0.96 0.99 1.01 1.01 1.02 0.99 0.95 0.93 0.95 0.95 0.96 0.98 1.02 1.03

ECMWFNIL_prec_pwat_102.txt.gz
Precipitable_Water
1.27 1.26 1.23 1.23 1.24 1.30 1.34 1.31 1.28 1.25 1.25 1.22 1.17 1.16 1.18 1.27 1.35 1.40 1.42 1.43 1.46 1.50 1.51 1.54 1.57 1.55 1.56 1.48 1.47 1.44 1.40 1.39 1.35 1.40 1.43 1.43 1.38 1.36 1.30 1.25 1.25 1.26
1.20 1.22 1.23 1.24 1.25 1.31 1.32 1.30 1.28 1.26 1.23 1.23 1.22 1.21 1.23 1.27 1.31 1.34 1.39 1.43 1.47 1.49 1.55 1.62 1.53 1.49 1.53 1.49 1.46 1.39 1.40 1.38 1.36 1.40 1.43 1.38 1.33 1.33 1.28 1.25 1.26 1.28
1.16 1.16 1.16 1.16 1.18 1.25 1.30 1.27 1.25 1.24 1.20 1.21 1.27 1.27 1.22 1.27 1.30 1.30 1.33 1.40 1.42 1.51 1.57 1.48 1.49 1.49 1.47 1.51 1.52 1.46 1.43 1.39 1.38 1.41 1.36 1.33 1.33 1.26 1.26 1.27 1.23 1.26
1.15 1.16 1.17 1.18 1.21 1.23 1.26 1.24 1.24 1.21 1.21 1.21 1.24 1.29 1.28 1.28 1.30 1.31 1.33 1.39 1.41 1.42 1.47 1.53 1.51 1.49 1.47 1.44 1.49 1.41 1.44 1.45 1.44 1.47 1.41 1.40 1.31 1.28 1.24 1.23 1.28 1.32
1.15 1.18 1.21 1.22 1.23 1.25 1.25 1.24 1.24 1.21 1.19 1.20 1.23 1.28 1.28 1.25 1.27 1.30 1.32 1.38 1.42 1.40 1.43 1.47 1.48 1.46 1.45 1.44 1.43 1.33 1.37 1.42 1.40 1.38 1.31 1.27 1.27 1.28 1.23 1.26 1.24 1.22
1.16 1.19 1.24 1.25 1.26 1.26 1.27 1.26 1.24 1.22 1.17 1.15 1.19 1.25 1.27 1.27 1.27 1.28 1.32 1.38 1.43 1.42 1.45 1.41 1.43 1.39 1.40 1.38 1.39 1.36 1.30 1.34 1.37 1.32 1.24 1.24 1.27 1.27 1.29 1.25 1.21 1.20
1.13 1.18 1.22 1.29 1.31 1.32 1.32 1.29 1.28 1.25 1.20 1.20 1.23 1.26 1.28 1.25 1.24 1.26 1.31 1.38 1.42 1.42 1.39 1.37 1.38 1.36 1.36 1.34 1.35 1.38 1.33 1.33 1.36 1.27 1.20 1.26 1.31 1.25 1.26 1.18 1.16 1.17
1.16 1.22 1.28 1.35 1.35 1.36 1.32 1.29 1.30 1.29 1.27 1.25 1.21 1.29 1.32 1.26 1.24 1.27 1.32 1.37 1.42 1.43 1.41 1.37 1.34 1.33 1.39 1.39 1.34 1.35 1.33 1.35 1.32 1.27 1.23 1.25 1.24 1.18 1.22 1.20 1.21 1.15
1.20 1.20 1.29 1.33 1.31 1.32 1.32 1.32 1.34 1.33 1.32 1.27 1.27 1.31 1.34 1.30 1.27 1.28 1.32 1.36 1.41 1.43 1.42 1.39 1.35 1.35 1.38 1.35 1.32 1.29 1.28 1.28 1.29 1.29 1.25 1.28 1.20 1.17 1.19 1.19 1.19 1.16
1.20 1.22 1.22 1.26 1.31 1.36 1.30 1.35 1.35 1.33 1.32 1.30 1.34 1.36 1.33 1.33 1.31 1.32 1.33 1.35 1.38 1.40 1.38 1.36 1.37 1.37 1.36 1.33 1.31 1.30 1.26 1.27 1.27 1.27 1.23 1.30 1.22 1.19 1.18 1.18 1.18 1.17
1.15 1.21 1.24 1.27 1.30 1.35 1.37 1.38 1.36 1.35 1.33 1.33 1.36 1.36 1.35 1.33 1.33 1.35 1.33 1.33 1.32 1.34 1.35 1.34 1.35 1.36 1.33 1.31 1.32 1.32 1.28 1.28 1.28 1.23 1.29 1.28 1.19 1.19 1.19 1.19 1.17 1.16
1.11 1.16 1.20 1.25 1.29 1.31 1.36 1.39 1.40 1.38 1.36 1.35 1.36 1.36 1.35 1.34 1.32 1.33 1.32 1.33 1.34 1.30 1.35 1.37 1.39 1.36 1.35 1.31 1.33 1.34 1.30 1.28 1.27 1.18 1.26 1.20 1.22 1.21 1.18 1.19 1.18 1.17
1.12 1.16 1.20 1.24 1.28 1.30 1.35 1.37 1.39 1.39 1.38 1.35 1.36 1.36 1.35 1.35 1.37 1.34 1.37 1.36 1.35 1.38 1.35 1.37 1.35 1.51 1.38 1.36 1.39 1.36 1.27 1.22 1.21 1.22 1.21 1.22 1.20 1.20 1.20 1.19 1.19 1.18
1.16 1.21 1.24 1.26 1.29 1.31 1.32 1.34 1.35 1.38 1.38 1.37 1.37 1.34 1.36 1.34 1.31 1.35 1.31 1.32 1.34 1.35 1.37 1.40 1.40 1.38 1.40 1.34 1.31 1.29 1.26 1.24 1.22 1.22 1.17 1.19 1.19 1.20 1.22 1.21 1.19 1.21
1.12 1.18 1.24 1.27 1.29 1.29 1.29 1.31 1.31 1.34 1.35 1.35 1.34 1.34 1.35 1.34 1.35 1.34 1.37 1.36 1.36 1.36 1.33 1.35 1.38 1.37 1.33 1.31 1.34 1.32 1.27 1.24 1.20 1.16 1.16 1.17 1.18 1.20 1.21 1.19 1.17 1.19
1.07 1.13 1.19 1.25 1.29 1.31 1.32 1.31 1.30 1.31 1.32 1.32 1.32 1.35 1.36 1.37 1.43 1.40 1.37 1.36 1.35 1.35 1.36 1.35 1.34 1.36 1.34 1.37 1.32 1.28 1.27 1.21 1.17 1.17 1.17 1.16 1.16 1.16 1.16 1.17 1.18 1.20
1.04 1.10 1.17 1.20 1.27 1.31 1.34 1.33 1.33 1.36 1.37 1.37 1.35 1.39 1.36 1.34 1.34 1.36 1.34 1.35 1.35 1.36 1.34 1.34 1.32 1.33 1.30 1.33 1.28 1.24 1.19 1.16 1.15 1.15 1.15 1.14 1.13 1.11 1.09 1.10 1.11 1.12
1.02 1.07 1.12 1.14 1.19 1.22 1.27 1.32 1.35 1.34 1.32 1.32 1.32 1.33 1.34 1.33 1.32 1.30 1.32 1.36 1.34 1.32 1.37 1.34 1.33 1.33 1.30 1.30 1.25 1.16 1.10 1.08 1.09 1.12 1.11 1.10 1.08 1.07 1.06 1.05 1.07 1.10
1.01 1.03 1.07 1.10 1.14 1.20 1.25 1.28 1.31 1.32 1.31 1.30 1.30 1.34 1.35 1.31 1.31 1.30 1.29 1.34 1.34 1.33 1.32 1.35 1.29 1.29 1.30 1.28 1.21 1.09 1.01 1.02 1.02 1.01 1.02 1.05 1.07 1.03 1.09 1.10 1.08 1.12
0.98 0.99 1.00 1.05 1.10 1.14 1.20 1.23 1.26 1.28 1.31 1.33 1.32 1.33 1.30 1.30 1.30 1.28 1.31 1.32 1.32 1.31 1.28 1.27 1.22 1.27 1.26 1.21 1.10 1.05 1.01 0.99 0.99 0.96 0.95 1.00 1.07 1.10 1.17 1.14 1.09 1.08
0.93 0.95 0.96 1.00 1.04 1.06 1.09 1.13 1.17 1.21 1.25 1.30 1.29 1.27 1.27 1.25 1.25 1.27 1.29 1.30 1.28 1.28 1.24 1.23 1.23 1.24 1.21 1.12 1.04 1.02 1.02 0.95 1.04 1.05 1.02 1.06 1.11 1.15 1.16 1.12 1.09 1.07
0.89 0.92 0.94 0.94 0.96 1.00 1.03 1.04 1.10 1.16 1.19 1.24 1.26 1.28 1.28 1.28 1.24 1.30 1.28 1.22 1.24 1.21 1.19 1.17 1.19 1.21 1.17 1.11 1.03 1.00 1.00 0.94 1.06 1.08 1.07 1.08 1.09 1.13 1.12 1.12 1.08 1.08
0.87 0.89 0.92 0.93 0.92 0.94 0.97 0.99 1.02 1.07 1.11 1.14 1.17 1.22 1.24 1.23 1.26 1.25 1.24 1.22 1.20 1.19 1.18 1.18 1.17 1.17 1.13 1.05 1.00 1.00 0.98 0.99 1.02 1.04 1.04 1.01 1.00 1.08 1.11 1.14 1.12 1.12
0.86 0.87 0.88 0.90 0.91 0.90 0.93 0.96 0.99 1.02 1.03 1.07 1.07 1.15 1.19 1.19 1.20 1.17 1.17 1.17 1.17 1.15 1.17 1.15 1.14 1.14 1.09 1.05 1.01 1.03 1.05 1.04 0.99 1.00 1.01 0.98 0.97 1.03 1.04 1.05 1.08 1.10
0.88 0.88 0.88 0.90 0.90 0.90 0.91 0.93 0.95 0.97 0.99 1.04 1.06 1.10 1.15 1.18 1.18 1.15 1.14 1.15 1.16 1.18 1.15 1.13 1.14 1.15 1.10 1.06 1.02 1.03 1.02 1.02 1.01 0.99 1.01 0.98 0.95 0.97 1.02 1.06 1.06 1.07
0.88 0.87 0.88 0.89 0.91 0.92 0.93 0.92 0.93 0.94 0.96 0.99 1.02 1.05 1.05 1.09 1.10 1.10 1.09 1.11 1.11 1.09 1.12 1.14 1.11 1.07 1.05 1.06 1.03 0.99 0.97 0.99 1.04 1.02 1.03 1.08 1.03 0.95 0.95 1.00 1.01 1.01

ECMWFNIL_prec_pwat_105.txt.gz
Precipitable_Water
1.20 1.20 1.19 1.20 1.22 1.23 1.19 1.19 1.22 1.19 1.16 1.14 1.12 1.14 1.15 1.17 1.24 1.27 1.30 1.31 1.37 1.44 1.45 1.45 1.44 1.42 1.42 1.48 1.52 1.56 1.56 1.49 1.50 1.56 1.55 1.54 1.49 1.52 1.47 1.38 1.36 1.29
1.11 1.13 1.13 1.12 1.13 1.17 1.19 1.22 1.22 1.24 1.23 1.24 1.25 1.24 1.26 1.25 1.26 1.28 1.30 1.30 1.33 1.37 1.42 1.42 1.43 1.44 1.40 1.42 1.47 1.51 1.51 1.49 1.42 1.48 1.42 1.43 1.49 1.44 1.45 1.41 1.42 1.38
1.07 1.06 1.06 1.05 1.07 1.09 1.13 1.17 1.22 1.24 1.23 1.25 1.28 1.30 1.28 1.30 1.28 1.31 1.30 1.31 1.31 1.35 1.41 1.40 1.40 1.43 1.41 1.40 1.44 1.48 1.47 1.43 1.40 1.43 1.39 1.38 1.43 1.41 1.42 1.45 1.41 1.38
1.07 1.09 1.10 1.14 1.15 1.15 1.17 1.17 1.21 1.25 1.25 1.24 1.22 1.30 1.32 1.27 1.29 1.29 1.32 1.34 1.34 1.34 1.39 1.40 1.38 1.40 1.42 1.42 1.44 1.42 1.42 1.39 1.42 1.42 1.38 1.37 1.39 1.39 1.41 1.41 1.37 1.35
1.09 1.11 1.15 1.17 1.17 1.18 1.18 1.17 1.20 1.28 1.27 1.28 1.32 1.29 1.28 1.29 1.24 1.28 1.30 1.34 1.35 1.36 1.37 1.39 1.39 1.38 1.39 1.39 1.41 1.36 1.36 1.37 1.39 1.38 1.36 1.34 1.35 1.37 1.39 1.35 1.34 1.33
1.14 1.16 1.16 1.13 1.15 1.16 1.18 1.19 1.23 1.27 1.31 1.30 1.29 1.30 1.32 1.32 1.27 1.25 1.29 1.31 1.37 1.38 1.38 1.40 1.35 1.31 1.32 1.33 1.33 1.30 1.32 1.34 1.37 1.38 1.35 1.34 1.37 1.40 1.38 1.33 1.34 1.33
1.14 1.16 1.14 1.15 1.16 1.19 1.16 1.18 1.26 1.31 1.33 1.35 1.35 1.31 1.29 1.27 1.24 1.24 1.26 1.33 1.35 1.35 1.39 1.42 1.36 1.33 1.33 1.30 1.28 1.28 1.31 1.32 1.34 1.34 1.33 1.34 1.36 1.39 1.38 1.30 1.33 1.29
1.12 1.16 1.15 1.14 1.13 1.18 1.18 1.19 1.26 1.31 1.38 1.27 1.37 1.35 1.28 1.22 1.20 1.20 1.27 1.31 1.33 1.38 1.39 1.35 1.40 1.35 1.32 1.28 1.24 1.27 1.28 1.34 1.33 1.33 1.32 1.34 1.35 1.32 1.34 1.33 1.33 1.26
1.08 1.08 1.11 1.10 1.09 1.13 1.17 1.20 1.26 1.29 1.32 1.34 1.32 1.36 1.34 1.27 1.23 1.23 1.27 1.29 1.31 1.34 1.35 1.38 1.35 1.39 1.36 1.31 1.30 1.28 1.25 1.28 1.32 1.30 1.27 1.29 1.29 1.29 1.31 1.34 1.27 1.28
1.03 1.05 1.05 1.07 1.11 1.18 1.19 1.21 1.26 1.29 1.29 1.35 1.33 1.39 1.35 1.31 1.31 1.28 1.31 1.33 1.30 1.39 1.42 1.36 1.39 1.38 1.36 1.37 1.35 1.34 1.31 1.32 1.34 1.28 1.29 1.26 1.27 1.29 1.33 1.31 1.32 1.30
0.99 1.01 1.03 1.08 1.13 1.20 1.22 1.24 1.26 1.29 1.32 1.35 1.40 1.36 1.32 1.34 1.28 1.36 1.36 1.33 1.33 1.34 1.39 1.37 1.40 1.33 1.36 1.35 1.37 1.38 1.40 1.35 1.31 1.37 1.36 1.29 1.33 1.35 1.34 1.28 1.30 1.29
0.96 1.00 1.05 1.09 1.12 1.17 1.22 1.26 1.26 1.28 1.34 1.39 1.34 1.31 1.29 1.31 1.37 1.33 1.35 1.42 1.45 1.43 1.38 1.42 1.38 1.38 1.40 1.38 1.38 1.42 1.40 1.36 1.25 1.34 1.37 1.33 1.33 1.32 1.31 1.30 1.32 1.28
0.93 0.98 1.03 1.07 1.14 1.19 1.25 1.29 1.30 1.32 1.36 1.39 1.38 1.32 1.29 1.34 1.32 1.35 1.36 1.36 1.48 1.51 1.44 1.40 1.38 1.38 1.39 1.40 1.38 1.36 1.36 1.36 1.36 1.37 1.33 1.31 1.31 1.28 1.26 1.31 1.31 1.29
0.94 0.98 1.02 1.08 1.15 1.21 1.25 1.30 1.33 1.31 1.32 1.36 1.39 1.35 1.38 1.36 1.39 1.37 1.40 1.39 1.35 1.36 1.41 1.42 1.37 1.35 1.35 1.34 1.36 1.35 1.34 1.33 1.30 1.29 1.29 1.27 1.22 1.23 1.25 1.31 1.31 1.29
0.95 1.00 1.05 1.09 1.13 1.17 1.21 1.26 1.30 1.33 1.35 1.32 1.33 1.37 1.37 1.38 1.39 1.37 1.34 1.34 1.35 1.36 1.39 1.41 1.37 1.36 1.33 1.32 1.30 1.34 1.37 1.34 1.28 1.26 1.26 1.20 1.15 1.19 1.27 1.32 1.38 1.32
0.96 1.01 1.04 1.07 1.09 1.12 1.17 1.22 1.25 1.29 1.32 1.32 1.33 1.32 1.32 1.32 1.32 1.34 1.32 1.33 1.34 1.38 1.35 1.35 1.34 1.37 1.37 1.34 1.34 1.33 1.34 1.31 1.27 1.25 1.24 1.15 1.14 1.22 1.29 1.35 1.36 1.23
0.94 0.97 1.01 1.03 1.05 1.09 1.11 1.13 1.18 1.24 1.27 1.32 1.35 1.36 1.31 1.25 1.23 1.26 1.26 1.31 1.35 1.33 1.34 1.33 1.31 1.32 1.37 1.36 1.35 1.32 1.28 1.23 1.21 1.21 1.21 1.18 1.23 1.23 1.21 1.20 1.24 1.25
0.91 0.94 0.96 0.98 1.02 1.03 1.04 1.07 1.11 1.14 1.19 1.25 1.30 1.32 1.33 1.30 1.28 1.28 1.27 1.31 1.36 1.35 1.35 1.42 1.39 1.34 1.36 1.36 1.31 1.27 1.22 1.20 1.17 1.18 1.14 1.22 1.29 1.30 1.21 1.21 1.22 1.16
0.89 0.90 0.91 0.94 0.96 0.99 1.01 1.03 1.05 1.09 1.13 1.17 1.23 1.31 1.34 1.32 1.32 1.33 1.31 1.33 1.35 1.31 1.33 1.37 1.36 1.36 1.33 1.33 1.32 1.28 1.26 1.23 1.23 1.15 1.19 1.34 1.30 1.22 1.20 1.18 1.17 1.10
0.87 0.88 0.88 0.91 0.95 0.97 0.97 0.97 0.99 1.02 1.08 1.13 1.17 1.25 1.28 1.30 1.31 1.29 1.29 1.31 1.32 1.32 1.35 1.34 1.31 1.34 1.33 1.32 1.33 1.29 1.28 1.21 1.19 1.28 1.25 1.27 1.23 1.24 1.19 1.18 1.18 1.20
0.85 0.87 0.87 0.89 0.91 0.93 0.94 0.93 0.94 0.96 1.00 1.05 1.09 1.14 1.19 1.24 1.24 1.26 1.28 1.29 1.30 1.30 1.30 1.30 1.30 1.34 1.31 1.32 1.28 1.30 1.27 1.18 1.18 1.23 1.17 1.17 1.23 1.19 1.19 1.20 1.18 1.16
0.85 0.86 0.88 0.88 0.89 0.89 0.89 0.89 0.89 0.92 0.95 1.01 1.04 1.08 1.13 1.20 1.25 1.26 1.26 1.26 1.29 1.29 1.26 1.27 1.28 1.32 1.33 1.31 1.28 1.28 1.22 1.12 1.13 1.18 1.16 1.17 1.23 1.23 1.28 1.27 1.23 1.22
0.85 0.85 0.86 0.86 0.87 0.87 0.87 0.86 0.86 0.88 0.92 0.98 1.00 1.02 1.04 1.10 1.17 1.23 1.25 1.26 1.26 1.27 1.25 1.19 1.24 1.29 1.30 1.27 1.26 1.23 1.17 1.11 1.17 1.19 1.24 1.19 1.17 1.21 1.19 1.24 1.22 1.22
0.86 0.86 0.86 0.86 0.86 0.86 0.87 0.87 0.88 0.89 0.91 0.95 0.95 0.97 0.99 1.03 1.08 1.16 1.21 1.23 1.22 1.20 1.19 1.17 1.23 1.24 1.27 1.24 1.23 1.20 1.13 1.11 1.10 1.18 1.20 1.10 1.12 1.14 1.17 1.18 1.17 1.17
0.86 0.87 0.87 0.87 0.86 0.87 0.88 0.87 0.88 0.88 0.92 0.95 0.96 1.00 1.02 1.05 1.05 1.06 1.11 1.16 1.18 1.18 1.17 1.17 1.20 1.24 1.24 1.21 1.17 1.17 1.13 1.10 1.12 1.16 1.10 1.09 1.08 1.10 1.12 1.15 1.15 1.13
0.86 0.85 0.87 0.88 0.88 0.88 0.87 0.88 0.90 0.90 0.92 0.94 0.94 0.95 0.96 0.99 1.01 1.00 0.99 1.04 1.12 1.15 1.13 1.14 1.14 1.14 1.16 1.20 1.20 1.22 1.14 1.09 1.09 1.19 1.13 1.09 1.07 1.04 1.04 1.09 1.12 1.12

ECMWFNIL_prec_pwat_108.txt.gz
Precipitable_Water
1.15 1.15 1.14 1.14 1.13 1.13 1.13 1.12 1.15 1.13 1.13 1.16 1.15 1.20 1.26 1.31 1.38 1.37 1.40 1.41 1.36 1.29 1.34 1.40 1.40 1.39 1.42 1.45 1.47 1.48 1.48 1.48 1.48 1.46 1.44 1.44 1.43 1.42 1.39 1.39 1.44 1.45
1.05 1.06 1.07 1.08 1.08 1.11 1.13 1.16 1.17 1.17 1.15 1.17 1.21 1.24 1.26 1.28 1.32 1.36 1.41 1.43 1.42 1.37 1.36 1.39 1.40 1.41 1.41 1.43 1.46 1.46 1.46 1.48 1.45 1.49 1.44 1.41 1.41 1.42 1.39 1.38 1.40 1.42
1.02 1.02 1.02 1.00 1.01 1.04 1.09 1.16 1.19 1.22 1.18 1.17 1.21 1.22 1.20 1.24 1.27 1.32 1.37 1.37 1.33 1.35 1.38 1.41 1.38 1.39 1.39 1.43 1.46 1.46 1.43 1.42 1.42 1.45 1.46 1.40 1.39 1.39 1.40 1.41 1.39 1.36
1.02 1.02 1.02 1.04 1.08 1.10 1.14 1.15 1.16 1.18 1.19 1.18 1.19 1.22 1.22 1.25 1.31 1.32 1.35 1.39 1.34 1.33 1.39 1.38 1.39 1.39 1.38 1.42 1.44 1.44 1.44 1.42 1.44 1.46 1.43 1.41 1.39 1.37 1.39 1.41 1.39 1.36
1.04 1.05 1.09 1.10 1.12 1.15 1.15 1.12 1.12 1.14 1.14 1.15 1.17 1.21 1.26 1.29 1.32 1.33 1.41 1.41 1.38 1.31 1.34 1.39 1.41 1.39 1.40 1.42 1.45 1.40 1.42 1.42 1.46 1.46 1.41 1.37 1.37 1.35 1.36 1.37 1.34 1.31
1.05 1.08 1.10 1.12 1.15 1.14 1.12 1.11 1.12 1.13 1.14 1.14 1.16 1.23 1.29 1.31 1.32 1.32 1.37 1.41 1.39 1.33 1.35 1.36 1.39 1.47 1.41 1.43 1.44 1.43 1.39 1.44 1.45 1.45 1.38 1.33 1.33 1.35 1.34 1.32 1.30 1.29
1.04 1.07 1.07 1.10 1.11 1.11 1.09 1.10 1.13 1.17 1.21 1.23 1.24 1.25 1.29 1.32 1.35 1.35 1.38 1.34 1.39 1.37 1.34 1.38 1.39 1.42 1.43 1.47 1.40 1.41 1.39 1.39 1.43 1.45 1.39 1.36 1.33 1.32 1.32 1.30 1.28 1.28
1.00 1.03 1.05 1.05 1.03 1.03 1.04 1.09 1.17 1.22 1.26 1.29 1.26 1.27 1.31 1.34 1.36 1.37 1.41 1.37 1.33 1.34 1.41 1.40 1.41 1.45 1.40 1.38 1.41 1.36 1.36 1.38 1.38 1.37 1.39 1.38 1.35 1.31 1.31 1.32 1.31 1.28
0.99 0.98 0.98 0.98 0.98 1.02 1.05 1.10 1.16 1.23 1.32 1.32 1.29 1.30 1.34 1.37 1.38 1.33 1.33 1.30 1.24 1.26 1.41 1.44 1.45 1.44 1.41 1.44 1.36 1.35 1.34 1.35 1.35 1.38 1.36 1.35 1.33 1.33 1.33 1.34 1.33 1.32
0.92 0.92 0.92 0.94 0.96 1.00 1.02 1.09 1.18 1.25 1.32 1.36 1.35 1.34 1.35 1.35 1.35 1.33 1.29 1.26 1.24 1.27 1.29 1.36 1.38 1.41 1.46 1.44 1.43 1.39 1.42 1.36 1.40 1.37 1.36 1.35 1.33 1.33 1.33 1.32 1.30 1.27
0.88 0.90 0.90 0.92 0.94 0.99 1.03 1.12 1.18 1.25 1.32 1.35 1.36 1.31 1.34 1.35 1.31 1.31 1.28 1.29 1.29 1.31 1.36 1.32 1.30 1.38 1.42 1.44 1.46 1.44 1.38 1.42 1.42 1.38 1.38 1.36 1.35 1.34 1.34 1.33 1.30 1.28
0.87 0.90 0.91 0.92 0.96 1.01 1.06 1.11 1.17 1.24 1.28 1.33 1.36 1.32 1.32 1.35 1.32 1.33 1.33 1.31 1.31 1.32 1.29 1.31 1.32 1.38 1.43 1.44 1.47 1.45 1.38 1.39 1.41 1.39 1.36 1.35 1.33 1.34 1.34 1.34 1.33 1.33
0.87 0.90 0.92 0.95 1.00 1.04 1.08 1.10 1.15 1.21 1.26 1.27 1.36 1.38 1.34 1.33 1.33 1.33 1.36 1.33 1.32 1.32 1.32 1.33 1.33 1.33 1.36 1.39 1.41 1.43 1.40 1.39 1.38 1.38 1.36 1.34 1.34 1.35 1.37 1.36 1.37 1.37
0.88 0.92 0.94 0.97 1.02 1.04 1.06 1.08 1.10 1.14 1.19 1.24 1.29 1.34 1.36 1.35 1.33 1.33 1.36 1.37 1.35 1.33 1.35 1.33 1.33 1.34 1.35 1.33 1.34 1.39 1.39 1.38 1.38 1.38 1.36 1.36 1.35 1.38 1.40 1.39 1.39 1.37
0.88 0.91 0.93 0.95 0.97 0.99 1.00 1.00 1.01 1.04 1.11 1.16 1.23 1.31 1.35 1.38 1.35 1.34 1.32 1.34 1.38 1.36 1.33 1.34 1.34 1.36 1.39 1.37 1.33 1.35 1.36 1.33 1.32 1.31 1.32 1.34 1.37 1.39 1.38 1.38 1.36 1.36
0.86 0.87 0.88 0.90 0.91 0.93 0.94 0.96 0.98 1.01 1.05 1.10 1.14 1.21 1.27 1.33 1.36 1.36 1.31 1.31 1.31 1.32 1.34 1.33 1.32 1.39 1.37 1.39 1.37 1.31 1.32 1.33 1.33 1.30 1.30 1.32 1.33 1.33 1.33 1.32 1.31 1.34
0.84 0.84 0.84 0.84 0.86 0.90 0.92 0.92 0.93 0.95 0.98 1.04 1.09 1.14 1.19 1.26 1.32 1.36 1.37 1.32 1.30 1.31 1.32 1.33 1.34 1.36 1.38 1.37 1.42 1.40 1.42 1.34 1.31 1.31 1.26 1.26 1.30 1.28 1.25 1.24 1.28 1.35
0.83 0.83 0.82 0.83 0.85 0.86 0.88 0.88 0.89 0.90 0.92 0.97 1.03 1.07 1.12 1.19 1.25 1.31 1.33 1.34 1.33 1.29 1.26 1.27 1.28 1.31 1.34 1.36 1.36 1.36 1.42 1.41 1.39 1.37 1.36 1.36 1.31 1.28 1.24 1.24 1.30 1.34
0.83 0.82 0.81 0.82 0.84 0.85 0.86 0.85 0.84 0.86 0.87 0.90 0.95 1.03 1.08 1.11 1.15 1.20 1.24 1.29 1.29 1.29 1.27 1.26 1.28 1.30 1.33 1.35 1.36 1.34 1.33 1.32 1.31 1.27 1.27 1.28 1.30 1.30 1.30 1.26 1.30 1.30
0.82 0.83 0.81 0.82 0.84 0.84 0.84 0.83 0.82 0.82 0.86 0.89 0.93 0.99 1.02 1.07 1.10 1.11 1.17 1.22 1.25 1.26 1.27 1.28 1.29 1.31 1.33 1.34 1.34 1.32 1.32 1.31 1.30 1.31 1.29 1.29 1.30 1.28 1.33 1.30 1.31 1.28
0.81 0.81 0.81 0.82 0.83 0.83 0.83 0.82 0.82 0.83 0.85 0.87 0.88 0.91 0.96 1.00 1.03 1.05 1.10 1.16 1.23 1.27 1.27 1.27 1.27 1.32 1.35 1.36 1.34 1.32 1.34 1.31 1.30 1.32 1.33 1.31 1.37 1.38 1.34 1.31 1.33 1.31
0.82 0.81 0.81 0.81 0.82 0.82 0.81 0.81 0.82 0.84 0.84 0.87 0.88 0.91 0.95 0.99 1.00 1.02 1.03 1.08 1.17 1.25 1.27 1.27 1.30 1.32 1.34 1.34 1.32 1.32 1.33 1.32 1.30 1.30 1.31 1.33 1.29 1.27 1.27 1.29 1.35 1.33
0.82 0.81 0.81 0.81 0.81 0.81 0.80 0.80 0.82 0.84 0.87 0.90 0.88 0.90 0.92 0.95 0.96 0.99 1.03 1.07 1.10 1.17 1.22 1.25 1.28 1.32 1.33 1.33 1.32 1.32 1.29 1.28 1.27 1.28 1.28 1.22 1.25 1.23 1.27 1.30 1.31 1.32
0.82 0.82 0.82 0.81 0.82 0.81 0.81 0.82 0.84 0.87 0.87 0.91 0.88 0.88 0.89 0.93 0.96 0.98 1.01 1.03 1.05 1.09 1.15 1.19 1.26 1.33 1.33 1.31 1.32 1.32 1.28 1.26 1.26 1.24 1.24 1.26 1.23 1.25 1.25 1.26 1.26 1.25
0.82 0.82 0.82 0.83 0.81 0.82 0.83 0.82 0.83 0.85 0.89 0.90 0.89 0.89 0.89 0.92 0.93 0.94 0.96 0.99 1.02 1.04 1.08 1.12 1.19 1.24 1.25 1.25 1.26 1.24 1.24 1.23 1.22 1.18 1.16 1.14 1.14 1.15 1.16 1.20 1.21 1.22
0.82 0.82 0.82 0.82 0.82 0.83 0.85 0.85 0.86 0.87 0.87 0.87 0.88 0.89 0.89 0.90 0.90 0.90 0.90 0.93 0.97 0.99 1.00 1.03 1.07 1.10 1.13 1.17 1.18 1.19 1.20 1.19 1.13 1.08 1.05 1.04 1.05 1.06 1.06 1.08 1.09 1.16

ECMWFNIL_prec_pwat_111.txt.gz
Precipitable_Water
1.13 1.10 1.08 1.07 1.07 1.09 1.09 1.09 1.11 1.10 1.10 1.15 1.15 1.18 1.18 1.20 1.23 1.19 1.20 1.24 1.28 1.28 1.30 1.37 1.43 1.41 1.42 1.38 1.35 1.35 1.40 1.46 1.47 1.52 1.56 1.57 1.55 1.51 1.45 1.42 1.41 1.41
1.05 1.05 1.06 1.05 1.04 1.07 1.08 1.10 1.10 1.10 1.12 1.15 1.16 1.16 1.17 1.15 1.13 1.15 1.16 1.19 1.23 1.27 1.31 1.33 1.38 1.42 1.43 1.38 1.36 1.34 1.35 1.43 1.41 1.48 1.51 1.55 1.55 1.54 1.48 1.47 1.43 1.43
1.01 1.02 1.03 1.01 1.01 1.04 1.07 1.11 1.12 1.14 1.13 1.13 1.14 1.13 1.11 1.14 1.15 1.17 1.17 1.16 1.20 1.27 1.32 1.35 1.38 1.42 1.49 1.50 1.41 1.38 1.36 1.38 1.42 1.45 1.48 1.50 1.53 1.53 1.51 1.50 1.47 1.43
1.01 1.02 1.02 1.03 1.07 1.07 1.10 1.10 1.11 1.11 1.11 1.09 1.08 1.11 1.14 1.17 1.22 1.22 1.21 1.23 1.27 1.31 1.33 1.34 1.38 1.43 1.41 1.39 1.38 1.40 1.37 1.39 1.44 1.48 1.48 1.51 1.51 1.53 1.52 1.51 1.48 1.47
0.99 1.00 1.03 1.05 1.08 1.09 1.08 1.05 1.04 1.04 1.04 1.06 1.10 1.15 1.17 1.21 1.24 1.23 1.24 1.29 1.34 1.32 1.32 1.32 1.36 1.34 1.35 1.37 1.41 1.39 1.34 1.35 1.42 1.45 1.40 1.43 1.50 1.51 1.51 1.51 1.48 1.45
0.98 1.00 1.01 1.00 1.01 1.01 1.00 0.99 0.98 0.98 1.01 1.05 1.11 1.17 1.21 1.25 1.25 1.25 1.30 1.34 1.37 1.36 1.32 1.34 1.36 1.34 1.34 1.35 1.29 1.27 1.33 1.35 1.38 1.44 1.39 1.40 1.47 1.53 1.51 1.49 1.50 1.45
0.93 0.94 0.94 0.96 0.95 0.95 0.93 0.95 0.97 0.99 1.03 1.09 1.15 1.18 1.23 1.25 1.26 1.29 1.33 1.35 1.34 1.35 1.35 1.34 1.33 1.29 1.29 1.28 1.27 1.31 1.36 1.39 1.38 1.40 1.39 1.40 1.45 1.49 1.52 1.47 1.45 1.44
0.91 0.92 0.92 0.93 0.91 0.92 0.93 0.95 0.98 1.02 1.08 1.12 1.14 1.19 1.23 1.25 1.27 1.32 1.35 1.34 1.31 1.28 1.30 1.30 1.28 1.28 1.31 1.31 1.29 1.33 1.36 1.41 1.36 1.39 1.38 1.38 1.41 1.40 1.45 1.41 1.39 1.37
0.91 0.91 0.91 0.92 0.92 0.94 0.94 0.98 1.02 1.06 1.10 1.11 1.14 1.17 1.21 1.24 1.27 1.33 1.34 1.34 1.30 1.28 1.28 1.30 1.29 1.29 1.32 1.32 1.33 1.33 1.33 1.35 1.35 1.34 1.33 1.32 1.35 1.38 1.39 1.40 1.36 1.34
0.88 0.89 0.90 0.92 0.92 0.94 0.97 1.01 1.04 1.05 1.10 1.10 1.13 1.15 1.16 1.22 1.28 1.30 1.34 1.35 1.31 1.29 1.29 1.30 1.32 1.32 1.35 1.37 1.35 1.34 1.34 1.33 1.30 1.32 1.34 1.35 1.34 1.37 1.38 1.37 1.35 1.32
0.85 0.89 0.89 0.90 0.92 0.97 0.98 1.00 1.02 1.03 1.05 1.06 1.09 1.12 1.17 1.22 1.27 1.31 1.31 1.35 1.34 1.33 1.31 1.29 1.31 1.33 1.34 1.38 1.39 1.38 1.37 1.33 1.31 1.30 1.33 1.34 1.34 1.38 1.42 1.43 1.42 1.39
0.85 0.86 0.87 0.89 0.91 0.93 0.94 0.96 0.97 0.98 0.99 1.02 1.07 1.10 1.15 1.19 1.23 1.30 1.30 1.33 1.37 1.36 1.33 1.34 1.34 1.34 1.33 1.36 1.37 1.38 1.38 1.36 1.34 1.33 1.33 1.34 1.36 1.40 1.42 1.46 1.48 1.42
0.83 0.84 0.84 0.86 0.88 0.89 0.91 0.91 0.91 0.93 0.94 0.97 1.03 1.06 1.09 1.12 1.18 1.25 1.33 1.35 1.41 1.41 1.39 1.36 1.36 1.39 1.35 1.36 1.38 1.40 1.38 1.36 1.34 1.35 1.37 1.36 1.36 1.38 1.40 1.42 1.42 1.37
0.82 0.83 0.82 0.84 0.86 0.87 0.87 0.87 0.87 0.88 0.89 0.94 1.00 1.03 1.04 1.08 1.14 1.21 1.32 1.35 1.40 1.39 1.40 1.41 1.36 1.32 1.31 1.35 1.38 1.41 1.41 1.40 1.38 1.39 1.38 1.37 1.39 1.41 1.43 1.41 1.38 1.39
0.82 0.83 0.83 0.84 0.83 0.83 0.82 0.82 0.82 0.83 0.86 0.90 0.94 0.99 1.04 1.07 1.12 1.17 1.23 1.28 1.34 1.33 1.32 1.36 1.37 1.37 1.38 1.36 1.34 1.34 1.40 1.39 1.39 1.36 1.38 1.39 1.41 1.42 1.43 1.41 1.39 1.39
0.81 0.81 0.81 0.82 0.81 0.80 0.79 0.79 0.79 0.81 0.83 0.85 0.90 0.95 1.01 1.04 1.06 1.12 1.16 1.20 1.23 1.29 1.30 1.30 1.30 1.35 1.37 1.35 1.36 1.35 1.35 1.36 1.37 1.37 1.37 1.35 1.37 1.35 1.35 1.40 1.41 1.39
0.80 0.80 0.80 0.79 0.79 0.79 0.79 0.79 0.78 0.79 0.80 0.82 0.86 0.90 0.94 0.99 1.02 1.04 1.09 1.15 1.19 1.23 1.28 1.31 1.30 1.32 1.34 1.35 1.37 1.37 1.37 1.35 1.33 1.33 1.34 1.34 1.33 1.31 1.30 1.38 1.36 1.37
0.80 0.80 0.79 0.78 0.79 0.78 0.78 0.79 0.79 0.79 0.78 0.80 0.82 0.85 0.88 0.94 0.95 0.97 1.02 1.07 1.12 1.18 1.23 1.29 1.29 1.30 1.30 1.33 1.37 1.36 1.35 1.35 1.36 1.34 1.37 1.34 1.34 1.32 1.28 1.31 1.34 1.34
0.80 0.79 0.79 0.78 0.78 0.79 0.80 0.80 0.79 0.78 0.78 0.78 0.79 0.82 0.85 0.86 0.89 0.92 0.96 1.02 1.07 1.11 1.22 1.30 1.31 1.34 1.34 1.35 1.35 1.35 1.35 1.37 1.35 1.35 1.34 1.34 1.33 1.35 1.35 1.32 1.30 1.32
0.80 0.79 0.78 0.78 0.79 0.80 0.81 0.80 0.78 0.77 0.78 0.81 0.82 0.83 0.83 0.84 0.87 0.90 0.94 0.97 1.03 1.10 1.17 1.26 1.32 1.34 1.36 1.36 1.37 1.36 1.37 1.35 1.32 1.29 1.28 1.27 1.27 1.29 1.31 1.32 1.33 1.31
0.80 0.79 0.78 0.78 0.80 0.81 0.81 0.80 0.79 0.79 0.79 0.81 0.82 0.81 0.82 0.82 0.85 0.88 0.93 0.96 1.03 1.11 1.17 1.21 1.27 1.35 1.36 1.38 1.36 1.33 1.32 1.31 1.30 1.27 1.26 1.25 1.26 1.27 1.28 1.31 1.35 1.34
0.80 0.79 0.77 0.79 0.79 0.80 0.80 0.79 0.79 0.79 0.79 0.81 0.82 0.82 0.84 0.86 0.87 0.90 0.92 0.97 1.03 1.09 1.15 1.18 1.25 1.32 1.36 1.35 1.35 1.32 1.31 1.30 1.29 1.27 1.25 1.25 1.24 1.25 1.28 1.30 1.31 1.31
0.81 0.79 0.78 0.78 0.79 0.79 0.78 0.79 0.79 0.80 0.81 0.83 0.79 0.79 0.80 0.82 0.84 0.86 0.91 0.95 1.00 1.05 1.09 1.15 1.21 1.26 1.30 1.30 1.28 1.28 1.27 1.25 1.23 1.23 1.23 1.21 1.21 1.24 1.26 1.28 1.29 1.30
0.81 0.80 0.78 0.79 0.79 0.78 0.79 0.80 0.82 0.83 0.83 0.84 0.80 0.79 0.78 0.80 0.82 0.84 0.87 0.90 0.94 0.97 1.04 1.09 1.15 1.22 1.25 1.24 1.22 1.22 1.21 1.18 1.16 1.14 1.14 1.15 1.17 1.21 1.23 1.23 1.24 1.24
0.82 0.82 0.81 0.80 0.79 0.79 0.81 0.80 0.81 0.81 0.83 0.85 0.82 0.81 0.80 0.80 0.80 0.80 0.83 0.86 0.89 0.92 0.97 1.01 1.07 1.13 1.16 1.14 1.13 1.15 1.18 1.17 1.14 1.09 1.08 1.09 1.09 1.09 1.14 1.17 1.18 1.21
0.82 0.82 0.82 0.82 0.81 0.81 0.82 0.82 0.84 0.84 0.83 0.82 0.81 0.81 0.80 0.80 0.79 0.78 0.79 0.82 0.85 0.88 0.91 0.95 0.98 1.02 1.06 1.06 1.06 1.08 1.09 1.08 1.09 1.05 1.03 1.04 1.06 1.08 1.07 1.11 1.14 1.14

ECMWFNIL_prec_pwat_114.txt.gz
Precipitable_Water
1.15 1.11 1.06 1.02 1.00 1.01 0.99 0.97 1.00 1.00 1.03 1.05 1.04 1.06 1.08 1.10 1.11 1.08 1.07 1.07 1.10 1.13 1.18 1.21 1.22 1.23 1.28 1.32 1.35 1.35 1.36 1.34 1.28 1.30 1.37 1.42 1.43 1.45 1.43 1.44 1.48 1.51
1.08 1.04 1.02 1.01 0.99 1.00 1.00 1.01 1.01 1.02 1.02 1.03 1.05 1.07 1.08 1.07 1.06 1.06 1.07 1.11 1.16 1.19 1.24 1.27 1.28 1.30 1.30 1.31 1.33 1.33 1.34 1.36 1.31 1.35 1.29 1.32 1.43 1.46 1.44 1.44 1.45 1.50
1.02 1.00 0.98 0.95 0.95 0.95 0.97 1.02 1.03 1.02 1.02 1.02 1.03 1.02 1.02 1.05 1.06 1.10 1.14 1.17 1.19 1.22 1.28 1.33 1.35 1.36 1.34 1.33 1.35 1.35 1.34 1.34 1.32 1.35 1.33 1.30 1.37 1.38 1.43 1.47 1.45 1.46
0.99 0.98 0.97 0.96 0.96 0.96 1.00 1.01 1.00 0.99 0.98 0.94 0.95 0.99 1.03 1.07 1.11 1.12 1.14 1.16 1.19 1.25 1.35 1.39 1.37 1.37 1.35 1.35 1.36 1.33 1.35 1.35 1.36 1.35 1.30 1.33 1.36 1.37 1.40 1.43 1.42 1.40
0.95 0.95 0.95 0.95 0.96 0.98 0.98 0.95 0.93 0.92 0.91 0.92 0.95 1.00 1.04 1.08 1.11 1.11 1.11 1.12 1.20 1.28 1.36 1.37 1.36 1.34 1.36 1.33 1.33 1.32 1.33 1.33 1.37 1.37 1.32 1.30 1.36 1.38 1.38 1.40 1.38 1.35
0.93 0.93 0.92 0.92 0.94 0.93 0.92 0.89 0.90 0.91 0.93 0.94 0.99 1.04 1.06 1.10 1.10 1.09 1.09 1.11 1.21 1.29 1.34 1.36 1.33 1.34 1.38 1.36 1.34 1.34 1.34 1.32 1.35 1.36 1.30 1.27 1.32 1.39 1.39 1.38 1.37 1.35
0.90 0.91 0.92 0.95 0.95 0.95 0.92 0.93 0.94 0.96 0.99 1.02 1.04 1.04 1.07 1.08 1.08 1.08 1.09 1.12 1.19 1.28 1.31 1.32 1.29 1.28 1.33 1.33 1.31 1.30 1.32 1.32 1.30 1.30 1.29 1.30 1.32 1.35 1.38 1.37 1.36 1.35
0.91 0.93 0.95 0.96 0.94 0.94 0.93 0.93 0.96 0.99 1.01 1.03 1.01 1.04 1.06 1.06 1.08 1.10 1.10 1.12 1.18 1.26 1.31 1.32 1.30 1.28 1.28 1.28 1.27 1.26 1.27 1.32 1.30 1.30 1.29 1.30 1.31 1.30 1.33 1.35 1.36 1.36
0.92 0.92 0.92 0.91 0.91 0.91 0.92 0.93 0.96 0.97 0.99 0.96 0.96 0.98 1.03 1.05 1.07 1.09 1.10 1.11 1.16 1.24 1.29 1.29 1.27 1.28 1.29 1.27 1.26 1.27 1.27 1.31 1.34 1.37 1.34 1.29 1.28 1.30 1.33 1.35 1.35 1.36
0.89 0.89 0.88 0.88 0.87 0.88 0.88 0.90 0.92 0.91 0.93 0.91 0.93 0.95 0.96 1.03 1.07 1.08 1.10 1.11 1.12 1.19 1.26 1.29 1.28 1.26 1.29 1.32 1.31 1.33 1.34 1.31 1.34 1.37 1.34 1.33 1.33 1.35 1.36 1.36 1.35 1.35
0.84 0.84 0.84 0.84 0.83 0.84 0.84 0.85 0.85 0.85 0.87 0.87 0.88 0.89 0.93 0.97 1.01 1.06 1.08 1.10 1.10 1.17 1.26 1.29 1.30 1.29 1.28 1.31 1.35 1.40 1.36 1.33 1.35 1.36 1.38 1.35 1.36 1.37 1.39 1.36 1.35 1.32
0.81 0.81 0.81 0.80 0.80 0.80 0.80 0.81 0.81 0.82 0.82 0.84 0.87 0.87 0.90 0.94 0.95 1.00 1.03 1.06 1.11 1.18 1.27 1.32 1.34 1.33 1.30 1.32 1.37 1.41 1.42 1.37 1.41 1.40 1.39 1.39 1.41 1.38 1.35 1.38 1.35 1.33
0.80 0.80 0.79 0.78 0.78 0.78 0.78 0.78 0.78 0.79 0.80 0.80 0.84 0.86 0.87 0.88 0.91 0.94 1.00 1.03 1.08 1.14 1.20 1.27 1.32 1.33 1.33 1.33 1.34 1.38 1.39 1.38 1.35 1.38 1.38 1.38 1.39 1.40 1.39 1.39 1.40 1.39
0.80 0.81 0.79 0.79 0.78 0.77 0.76 0.76 0.77 0.78 0.79 0.81 0.83 0.83 0.84 0.86 0.86 0.91 0.97 1.01 1.05 1.10 1.14 1.20 1.24 1.29 1.32 1.35 1.35 1.39 1.35 1.36 1.36 1.35 1.35 1.36 1.37 1.38 1.37 1.38 1.39 1.41
0.79 0.79 0.79 0.78 0.77 0.76 0.75 0.74 0.75 0.76 0.77 0.78 0.80 0.81 0.83 0.85 0.87 0.90 0.93 0.97 1.02 1.05 1.09 1.15 1.19 1.23 1.28 1.31 1.35 1.38 1.41 1.41 1.36 1.38 1.37 1.34 1.37 1.36 1.37 1.38 1.38 1.39
0.79 0.78 0.78 0.77 0.76 0.74 0.74 0.74 0.74 0.75 0.75 0.76 0.77 0.79 0.80 0.83 0.83 0.86 0.89 0.92 0.96 1.00 1.06 1.12 1.16 1.23 1.27 1.31 1.34 1.37 1.40 1.40 1.36 1.35 1.35 1.35 1.34 1.34 1.36 1.38 1.38 1.39
0.79 0.78 0.78 0.76 0.76 0.75 0.75 0.75 0.75 0.76 0.76 0.76 0.77 0.78 0.79 0.81 0.83 0.83 0.84 0.87 0.91 0.94 1.00 1.07 1.13 1.21 1.27 1.32 1.34 1.33 1.37 1.39 1.35 1.34 1.35 1.33 1.31 1.32 1.32 1.34 1.35 1.38
0.79 0.78 0.77 0.77 0.77 0.76 0.76 0.77 0.77 0.77 0.77 0.77 0.78 0.78 0.80 0.81 0.81 0.83 0.85 0.87 0.91 0.94 1.01 1.06 1.12 1.21 1.27 1.33 1.35 1.35 1.34 1.34 1.32 1.30 1.31 1.32 1.31 1.31 1.33 1.33 1.34 1.36
0.79 0.78 0.77 0.78 0.78 0.78 0.78 0.78 0.77 0.77 0.77 0.77 0.76 0.78 0.81 0.81 0.82 0.84 0.86 0.89 0.92 0.94 1.00 1.08 1.14 1.21 1.27 1.31 1.34 1.34 1.33 1.34 1.32 1.32 1.30 1.29 1.30 1.31 1.31 1.33 1.34 1.32
0.79 0.78 0.77 0.79 0.80 0.80 0.79 0.77 0.75 0.74 0.76 0.78 0.79 0.80 0.81 0.82 0.85 0.86 0.89 0.91 0.94 0.96 1.00 1.06 1.09 1.16 1.25 1.29 1.30 1.29 1.29 1.29 1.28 1.27 1.26 1.26 1.26 1.27 1.28 1.28 1.29 1.28
0.79 0.79 0.78 0.79 0.80 0.80 0.78 0.76 0.75 0.75 0.76 0.77 0.78 0.78 0.79 0.81 0.83 0.86 0.89 0.93 0.94 0.97 1.01 1.04 1.06 1.12 1.19 1.24 1.25 1.25 1.25 1.27 1.28 1.27 1.25 1.24 1.24 1.25 1.26 1.27 1.27 1.30
0.80 0.79 0.79 0.79 0.79 0.79 0.78 0.76 0.76 0.76 0.75 0.76 0.77 0.79 0.82 0.84 0.85 0.87 0.88 0.92 0.96 0.96 0.95 0.96 1.02 1.06 1.11 1.16 1.19 1.20 1.19 1.18 1.20 1.21 1.21 1.22 1.23 1.23 1.24 1.27 1.28 1.29
0.81 0.80 0.79 0.80 0.80 0.78 0.77 0.77 0.77 0.77 0.77 0.78 0.76 0.77 0.79 0.81 0.82 0.84 0.87 0.89 0.92 0.94 0.94 0.94 0.98 1.01 1.05 1.10 1.13 1.14 1.11 1.09 1.10 1.12 1.13 1.14 1.15 1.22 1.23 1.24 1.26 1.28
0.83 0.81 0.80 0.80 0.79 0.78 0.77 0.78 0.79 0.80 0.79 0.80 0.76 0.75 0.77 0.79 0.82 0.83 0.86 0.88 0.89 0.90 0.94 0.93 0.94 0.97 0.98 1.00 1.03 1.04 1.03 1.02 1.04 1.05 1.08 1.11 1.12 1.16 1.19 1.18 1.18 1.20
0.83 0.82 0.80 0.80 0.79 0.79 0.80 0.79 0.80 0.79 0.80 0.81 0.79 0.77 0.78 0.80 0.81 0.81 0.83 0.85 0.86 0.88 0.90 0.91 0.91 0.92 0.93 0.94 0.94 0.96 0.96 0.97 0.97 0.97 0.99 1.03 1.06 1.08 1.11 1.11 1.14 1.18
0.83 0.81 0.81 0.81 0.80 0.80 0.82 0.82 0.83 0.81 0.80 0.80 0.79 0.78 0.77 0.78 0.80 0.81 0.80 0.81 0.84 0.85 0.85 0.86 0.85 0.85 0.88 0.89 0.90 0.89 0.90 0.89 0.90 0.89 0.89 0.94 0.99 1.04 1.05 1.05 1.08 1.12

ECMWFNIL_prec_pwat_117.txt.gz
Precipitable_Water
1.13 1.13 1.10 1.07 1.05 1.02 1.00 0.98 0.98 0.95 0.98 1.01 1.00 1.01 1.01 1.02 1.04 1.02 1.01 1.02 1.03 1.04 1.06 1.07 1.11 1.15 1.20 1.24 1.26 1.26 1.25 1.25 1.26 1.27 1.29 1.32 1.32 1.33 1.31 1.31 1.34 1.35
1.13 1.11 1.07 1.03 0.98 0.98 0.97 0.98 0.97 0.97 0.97 0.99 1.00 1.00 1.00 0.99 0.98 0.99 0.99 1.01 1.03 1.04 1.07 1.09 1.12 1.17 1.23 1.28 1.31 1.29 1.29 1.29 1.26 1.30 1.28 1.30 1.32 1.32 1.30 1.31 1.32 1.39
1.08 1.03 0.99 0.94 0.92 0.93 0.94 0.96 0.97 0.98 0.97 0.97 0.97 0.96 0.94 0.96 0.95 1.00 1.02 1.03 1.03 1.05 1.07 1.09 1.12 1.21 1.30 1.34 1.33 1.30 1.28 1.27 1.26 1.30 1.32 1.31 1.33 1.30 1.31 1.33 1.34 1.37
1.01 0.99 0.96 0.95 0.94 0.93 0.94 0.94 0.95 0.96 0.95 0.92 0.91 0.93 0.93 0.95 0.98 0.99 1.02 1.04 1.04 1.05 1.07 1.09 1.14 1.24 1.32 1.34 1.33 1.30 1.29 1.29 1.32 1.35 1.33 1.33 1.33 1.33 1.31 1.35 1.39 1.42
0.97 0.96 0.95 0.94 0.93 0.93 0.93 0.91 0.90 0.89 0.88 0.90 0.93 0.94 0.96 0.97 0.98 0.99 1.00 1.02 1.04 1.04 1.06 1.08 1.16 1.23 1.31 1.33 1.33 1.31 1.31 1.30 1.34 1.34 1.32 1.28 1.32 1.33 1.33 1.35 1.39 1.38
0.95 0.95 0.95 0.93 0.93 0.92 0.90 0.88 0.87 0.87 0.89 0.90 0.93 0.96 0.98 0.98 0.97 0.96 0.98 0.99 1.03 1.04 1.04 1.08 1.15 1.23 1.28 1.30 1.28 1.29 1.31 1.29 1.31 1.32 1.29 1.29 1.31 1.35 1.35 1.35 1.40 1.36
0.93 0.94 0.93 0.94 0.92 0.91 0.88 0.86 0.86 0.88 0.90 0.93 0.95 0.93 0.94 0.92 0.91 0.92 0.96 1.00 1.02 1.03 1.03 1.06 1.12 1.20 1.26 1.29 1.27 1.24 1.26 1.28 1.31 1.32 1.29 1.29 1.33 1.34 1.35 1.35 1.35 1.37
0.92 0.93 0.93 0.91 0.88 0.87 0.84 0.83 0.84 0.87 0.90 0.91 0.87 0.88 0.88 0.86 0.88 0.92 0.96 1.00 1.01 1.03 1.04 1.07 1.12 1.21 1.27 1.28 1.26 1.24 1.23 1.26 1.26 1.26 1.25 1.25 1.26 1.25 1.33 1.38 1.37 1.41
0.92 0.90 0.89 0.86 0.83 0.82 0.80 0.82 0.84 0.85 0.87 0.84 0.83 0.82 0.84 0.85 0.87 0.90 0.93 0.97 1.00 1.02 1.03 1.06 1.12 1.19 1.27 1.28 1.27 1.26 1.24 1.24 1.25 1.25 1.25 1.25 1.24 1.26 1.30 1.37 1.36 1.37
0.89 0.88 0.85 0.82 0.79 0.80 0.79 0.80 0.81 0.82 0.83 0.81 0.79 0.80 0.79 0.84 0.87 0.88 0.90 0.92 0.94 0.97 1.00 1.05 1.11 1.17 1.23 1.29 1.29 1.27 1.27 1.27 1.28 1.28 1.29 1.32 1.34 1.32 1.35 1.39 1.36 1.33
0.85 0.84 0.81 0.79 0.78 0.79 0.79 0.80 0.79 0.78 0.79 0.77 0.77 0.77 0.80 0.83 0.84 0.86 0.87 0.88 0.90 0.93 0.96 1.01 1.07 1.13 1.18 1.23 1.28 1.32 1.31 1.30 1.29 1.28 1.28 1.31 1.34 1.37 1.37 1.36 1.37 1.35
0.82 0.80 0.78 0.78 0.78 0.78 0.78 0.76 0.76 0.74 0.74 0.75 0.76 0.76 0.79 0.82 0.81 0.82 0.84 0.85 0.89 0.93 0.95 0.98 1.03 1.09 1.13 1.18 1.25 1.32 1.33 1.33 1.32 1.31 1.31 1.31 1.33 1.38 1.40 1.41 1.39 1.39
0.79 0.77 0.79 0.79 0.78 0.76 0.76 0.74 0.73 0.72 0.72 0.71 0.74 0.75 0.76 0.77 0.79 0.79 0.83 0.86 0.89 0.93 0.95 0.97 1.01 1.05 1.10 1.16 1.23 1.29 1.32 1.31 1.31 1.32 1.32 1.34 1.38 1.40 1.42 1.42 1.43 1.43
0.79 0.79 0.79 0.78 0.77 0.76 0.75 0.74 0.73 0.72 0.72 0.74 0.76 0.75 0.75 0.76 0.76 0.78 0.82 0.86 0.89 0.93 0.96 0.99 1.01 1.04 1.09 1.14 1.19 1.25 1.31 1.32 1.31 1.30 1.31 1.33 1.34 1.37 1.40 1.41 1.44 1.45
0.80 0.80 0.80 0.78 0.77 0.76 0.75 0.74 0.74 0.74 0.75 0.76 0.76 0.76 0.77 0.77 0.79 0.79 0.80 0.82 0.87 0.91 0.95 1.00 1.02 1.05 1.09 1.14 1.16 1.19 1.26 1.29 1.30 1.30 1.31 1.31 1.31 1.34 1.39 1.40 1.40 1.42
0.81 0.80 0.79 0.78 0.78 0.76 0.76 0.76 0.75 0.76 0.76 0.76 0.77 0.77 0.78 0.78 0.79 0.80 0.81 0.82 0.84 0.89 0.95 0.98 1.00 1.05 1.10 1.16 1.19 1.19 1.22 1.26 1.27 1.28 1.28 1.28 1.27 1.29 1.34 1.38 1.39 1.42
0.80 0.79 0.79 0.78 0.78 0.77 0.77 0.76 0.76 0.77 0.77 0.77 0.78 0.79 0.79 0.79 0.80 0.80 0.81 0.83 0.86 0.89 0.94 0.97 1.00 1.02 1.07 1.14 1.17 1.20 1.20 1.21 1.22 1.24 1.26 1.27 1.26 1.26 1.27 1.32 1.35 1.39
0.80 0.80 0.79 0.79 0.78 0.76 0.76 0.77 0.77 0.77 0.77 0.77 0.77 0.78 0.80 0.82 0.82 0.82 0.84 0.87 0.90 0.93 0.96 0.98 1.00 1.02 1.04 1.09 1.13 1.17 1.18 1.19 1.21 1.22 1.24 1.25 1.25 1.23 1.24 1.26 1.29 1.32
0.81 0.80 0.79 0.78 0.77 0.76 0.76 0.76 0.76 0.77 0.77 0.77 0.76 0.79 0.82 0.82 0.83 0.85 0.86 0.89 0.92 0.93 0.95 0.98 0.99 1.01 1.03 1.06 1.08 1.12 1.15 1.18 1.19 1.19 1.19 1.20 1.22 1.24 1.25 1.26 1.28 1.28
0.82 0.81 0.79 0.79 0.78 0.77 0.76 0.76 0.75 0.75 0.77 0.79 0.79 0.81 0.81 0.82 0.84 0.85 0.87 0.90 0.93 0.95 0.95 0.96 0.96 0.98 0.99 1.00 1.02 1.05 1.10 1.12 1.12 1.12 1.14 1.18 1.20 1.21 1.22 1.23 1.24 1.25
0.82 0.82 0.80 0.79 0.78 0.77 0.76 0.75 0.75 0.77 0.78 0.79 0.80 0.81 0.81 0.81 0.82 0.83 0.85 0.88 0.90 0.92 0.91 0.90 0.90 0.93 0.94 0.95 0.98 1.01 1.04 1.06 1.06 1.04 1.06 1.10 1.17 1.21 1.22 1.22 1.24 1.25
0.83 0.82 0.81 0.80 0.78 0.77 0.76 0.75 0.75 0.76 0.77 0.79 0.80 0.82 0.83 0.84 0.84 0.86 0.86 0.86 0.87 0.87 0.87 0.86 0.87 0.89 0.90 0.91 0.92 0.94 0.97 0.98 0.98 0.97 0.99 1.03 1.09 1.16 1.21 1.23 1.22 1.23
0.85 0.83 0.81 0.80 0.79 0.77 0.75 0.75 0.76 0.76 0.78 0.81 0.80 0.81 0.81 0.81 0.82 0.84 0.86 0.87 0.87 0.87 0.85 0.84 0.86 0.87 0.89 0.89 0.90 0.90 0.90 0.90 0.91 0.91 0.92 0.95 1.00 1.07 1.14 1.18 1.19 1.19
0.86 0.84 0.82 0.80 0.79 0.77 0.76 0.76 0.77 0.78 0.78 0.80 0.79 0.79 0.79 0.80 0.82 0.82 0.84 0.85 0.86 0.85 0.86 0.84 0.84 0.86 0.87 0.87 0.86 0.86 0.85 0.85 0.86 0.87 0.88 0.90 0.94 1.01 1.06 1.09 1.12 1.14
0.86 0.85 0.83 0.81 0.79 0.79 0.78 0.77 0.78 0.78 0.79 0.80 0.79 0.79 0.79 0.80 0.81 0.80 0.80 0.81 0.82 0.82 0.83 0.81 0.81 0.82 0.84 0.85 0.84 0.84 0.84 0.84 0.84 0.84 0.85 0.87 0.89 0.92 0.98 1.02 1.06 1.08
0.85 0.84 0.83 0.82 0.80 0.80 0.80 0.79 0.80 0.80 0.79 0.79 0.78 0.78 0.78 0.79 0.79 0.79 0.78 0.78 0.79 0.79 0.80 0.80 0.79 0.80 0.82 0.83 0.83 0.83 0.83 0.82 0.81 0.78 0.77 0.82 0.85 0.87 0.88 0.92 0.97 1.01

ECMWFNIL_prec_pwat_120.txt.gz
Precipitable_Water
1.09 1.06 1.02 1.01 1.00 1.00 0.96 0.92 0.90 0.88 0.88 0.90 0.89 0.91 0.92 0.93 0.94 0.92 0.91 0.92 0.94 0.94 0.96 0.98 1.00 1.01 1.04 1.07 1.11 1.15 1.20 1.26 1.30 1.30 1.28 1.26 1.25 1.24 1.22 1.21 1.21 1.23
1.06 1.06 1.05 1.04 1.00 0.97 0.95 0.92 0.89 0.88 0.89 0.92 0.93 0.93 0.93 0.92 0.92 0.91 0.91 0.92 0.94 0.95 0.97 0.99 1.02 1.04 1.05 1.07 1.12 1.17 1.23 1.27 1.26 1.30 1.26 1.27 1.27 1.27 1.25 1.24 1.23 1.27
1.05 1.04 1.03 0.99 0.94 0.92 0.91 0.91 0.90 0.90 0.90 0.92 0.93 0.91 0.90 0.91 0.91 0.93 0.94 0.95 0.93 0.94 0.96 1.00 1.02 1.05 1.07 1.09 1.14 1.19 1.22 1.25 1.26 1.30 1.28 1.27 1.28 1.25 1.25 1.25 1.26 1.29
1.04 1.04 1.00 0.96 0.94 0.91 0.92 0.90 0.89 0.89 0.89 0.87 0.87 0.89 0.90 0.91 0.93 0.92 0.92 0.92 0.91 0.91 0.94 0.98 1.01 1.04 1.06 1.09 1.15 1.18 1.23 1.24 1.26 1.30 1.29 1.30 1.31 1.31 1.31 1.32 1.31 1.32
1.03 1.01 0.98 0.95 0.94 0.93 0.91 0.88 0.86 0.86 0.86 0.86 0.88 0.90 0.90 0.90 0.89 0.88 0.87 0.86 0.87 0.88 0.92 0.97 1.01 1.03 1.04 1.07 1.12 1.15 1.21 1.23 1.24 1.26 1.28 1.29 1.33 1.32 1.32 1.32 1.30 1.29
1.00 0.97 0.95 0.92 0.92 0.90 0.88 0.86 0.85 0.84 0.83 0.84 0.87 0.90 0.89 0.86 0.83 0.81 0.80 0.81 0.84 0.88 0.91 0.97 1.00 1.02 1.04 1.07 1.12 1.15 1.20 1.22 1.23 1.23 1.24 1.26 1.29 1.33 1.34 1.34 1.33 1.30
0.93 0.91 0.90 0.91 0.89 0.88 0.86 0.84 0.83 0.83 0.84 0.86 0.87 0.85 0.84 0.79 0.77 0.77 0.79 0.81 0.83 0.85 0.89 0.93 0.97 1.00 1.04 1.07 1.10 1.13 1.19 1.25 1.26 1.25 1.22 1.25 1.28 1.29 1.33 1.33 1.33 1.31
0.88 0.89 0.88 0.89 0.87 0.86 0.84 0.82 0.81 0.81 0.83 0.84 0.81 0.81 0.79 0.76 0.75 0.78 0.80 0.81 0.82 0.84 0.88 0.92 0.96 1.00 1.04 1.07 1.09 1.12 1.15 1.22 1.26 1.27 1.25 1.25 1.26 1.26 1.30 1.31 1.30 1.28
0.87 0.85 0.86 0.85 0.83 0.82 0.80 0.79 0.80 0.80 0.81 0.78 0.76 0.75 0.77 0.76 0.76 0.77 0.78 0.79 0.80 0.83 0.87 0.91 0.94 0.97 1.02 1.05 1.07 1.09 1.12 1.18 1.26 1.29 1.28 1.27 1.26 1.27 1.29 1.32 1.30 1.30
0.84 0.85 0.84 0.83 0.80 0.79 0.78 0.79 0.78 0.76 0.75 0.73 0.72 0.73 0.73 0.75 0.77 0.77 0.77 0.78 0.78 0.81 0.86 0.89 0.93 0.96 0.98 1.03 1.06 1.09 1.12 1.16 1.23 1.28 1.31 1.31 1.29 1.29 1.30 1.31 1.31 1.32
0.82 0.82 0.80 0.79 0.78 0.78 0.77 0.76 0.73 0.71 0.72 0.71 0.71 0.71 0.72 0.73 0.75 0.77 0.77 0.77 0.78 0.81 0.86 0.89 0.92 0.95 0.96 1.00 1.05 1.11 1.14 1.16 1.20 1.25 1.29 1.31 1.32 1.32 1.32 1.32 1.32 1.33
0.80 0.80 0.78 0.78 0.77 0.76 0.74 0.72 0.72 0.71 0.71 0.72 0.72 0.71 0.72 0.74 0.74 0.75 0.76 0.77 0.80 0.83 0.87 0.90 0.93 0.96 0.98 1.00 1.04 1.09 1.13 1.17 1.20 1.22 1.26 1.31 1.33 1.34 1.35 1.37 1.36 1.36
0.79 0.78 0.79 0.78 0.76 0.75 0.74 0.73 0.72 0.72 0.72 0.71 0.73 0.73 0.72 0.73 0.75 0.76 0.78 0.79 0.81 0.84 0.86 0.89 0.93 0.96 0.99 1.02 1.04 1.07 1.12 1.16 1.19 1.22 1.25 1.28 1.33 1.35 1.37 1.38 1.38 1.38
0.80 0.80 0.79 0.78 0.77 0.76 0.74 0.73 0.73 0.73 0.73 0.74 0.75 0.73 0.74 0.74 0.75 0.76 0.79 0.81 0.83 0.85 0.88 0.91 0.93 0.96 0.99 1.02 1.04 1.07 1.11 1.13 1.16 1.18 1.21 1.25 1.30 1.33 1.35 1.36 1.37 1.38
0.81 0.80 0.80 0.78 0.77 0.75 0.74 0.73 0.73 0.74 0.75 0.75 0.75 0.76 0.77 0.78 0.79 0.81 0.81 0.82 0.84 0.87 0.89 0.90 0.91 0.92 0.95 0.97 0.99 1.02 1.06 1.08 1.11 1.14 1.18 1.21 1.24 1.28 1.32 1.35 1.35 1.34
0.80 0.80 0.79 0.78 0.76 0.74 0.73 0.73 0.73 0.74 0.75 0.75 0.76 0.77 0.79 0.81 0.82 0.83 0.83 0.83 0.85 0.88 0.89 0.90 0.91 0.93 0.95 0.98 0.99 1.00 1.01 1.05 1.08 1.12 1.15 1.18 1.19 1.21 1.26 1.30 1.32 1.34
0.80 0.79 0.78 0.76 0.76 0.75 0.74 0.74 0.74 0.75 0.76 0.76 0.77 0.79 0.80 0.82 0.84 0.84 0.85 0.86 0.87 0.87 0.88 0.90 0.91 0.92 0.94 0.95 0.96 0.98 1.01 1.02 1.05 1.08 1.11 1.12 1.12 1.14 1.17 1.22 1.26 1.28
0.80 0.79 0.77 0.76 0.75 0.74 0.74 0.75 0.76 0.76 0.76 0.77 0.78 0.79 0.81 0.83 0.83 0.84 0.86 0.88 0.88 0.88 0.87 0.87 0.86 0.88 0.89 0.90 0.92 0.94 0.97 1.00 1.03 1.05 1.06 1.06 1.05 1.07 1.12 1.19 1.23 1.25
0.81 0.79 0.77 0.76 0.75 0.75 0.75 0.76 0.76 0.76 0.77 0.78 0.78 0.80 0.83 0.83 0.84 0.86 0.86 0.88 0.87 0.84 0.82 0.82 0.82 0.84 0.87 0.88 0.88 0.90 0.93 0.94 0.97 1.00 1.02 1.02 1.01 1.03 1.08 1.14 1.20 1.22
0.82 0.80 0.77 0.76 0.76 0.76 0.76 0.76 0.76 0.76 0.78 0.80 0.81 0.82 0.81 0.82 0.83 0.84 0.84 0.84 0.84 0.82 0.81 0.82 0.80 0.83 0.84 0.84 0.86 0.88 0.90 0.91 0.92 0.93 0.95 0.95 0.96 0.99 1.03 1.08 1.14 1.18
0.82 0.80 0.77 0.76 0.76 0.76 0.76 0.75 0.76 0.78 0.80 0.81 0.81 0.81 0.81 0.80 0.81 0.82 0.83 0.83 0.83 0.83 0.81 0.80 0.80 0.80 0.82 0.83 0.85 0.87 0.88 0.89 0.90 0.90 0.90 0.90 0.92 0.95 0.98 1.03 1.08 1.13
0.82 0.80 0.77 0.77 0.76 0.76 0.75 0.75 0.77 0.78 0.79 0.80 0.81 0.81 0.81 0.82 0.82 0.83 0.82 0.82 0.83 0.82 0.80 0.79 0.81 0.82 0.82 0.83 0.85 0.86 0.86 0.85 0.85 0.86 0.86 0.88 0.89 0.92 0.93 0.98 1.03 1.07
0.83 0.80 0.78 0.77 0.77 0.75 0.74 0.75 0.76 0.77 0.79 0.81 0.79 0.79 0.79 0.79 0.80 0.80 0.81 0.81 0.81 0.81 0.80 0.80 0.81 0.83 0.83 0.82 0.82 0.83 0.82 0.82 0.82 0.82 0.84 0.85 0.87 0.90 0.91 0.92 0.95 0.99
0.84 0.81 0.79 0.78 0.77 0.75 0.75 0.75 0.77 0.78 0.78 0.80 0.78 0.78 0.77 0.78 0.79 0.79 0.79 0.79 0.78 0.78 0.79 0.78 0.79 0.81 0.82 0.81 0.81 0.81 0.81 0.79 0.79 0.79 0.79 0.81 0.83 0.86 0.88 0.89 0.91 0.93
0.84 0.82 0.80 0.78 0.76 0.77 0.77 0.76 0.77 0.77 0.78 0.79 0.78 0.78 0.77 0.78 0.78 0.76 0.76 0.76 0.77 0.77 0.78 0.77 0.77 0.79 0.80 0.80 0.80 0.80 0.80 0.79 0.78 0.77 0.76 0.78 0.79 0.81 0.84 0.86 0.87 0.88
0.84 0.82 0.80 0.78 0.77 0.78 0.79 0.78 0.79 0.79 0.79 0.79 0.77 0.77 0.76 0.77 0.76 0.75 0.74 0.74 0.76 0.75 0.75 0.75 0.74 0.75 0.77 0.78 0.79 0.79 0.79 0.78 0.77 0.74 0.72 0.74 0.77 0.78 0.78 0.80 0.82 0.83

ECMWFNIL_prec_pwat_123.txt.gz
Precipitable_Water
1.14 1.12 1.09 1.07 1.06 1.06 1.04 1.00 0.95 0.88 0.85 0.84 0.81 0.83 0.84 0.86 0.87 0.86 0.87 0.89 0.89 0.89 0.89 0.89 0.90 0.90 0.93 0.97 1.00 1.01 1.02 1.04 1.08 1.14 1.17 1.22 1.23 1.24 1.23 1.25 1.25 1.23
1.11 1.11 1.09 1.09 1.08 1.08 1.05 1.00 0.93 0.88 0.85 0.85 0.85 0.85 0.85 0.83 0.85 0.87 0.87 0.86 0.86 0.85 0.85 0.85 0.85 0.87 0.91 0.96 0.99 1.00 1.00 1.04 1.07 1.16 1.15 1.17 1.20 1.25 1.25 1.26 1.27 1.27
1.13 1.11 1.10 1.08 1.06 1.03 0.99 0.96 0.92 0.89 0.86 0.86 0.86 0.85 0.83 0.86 0.86 0.86 0.85 0.82 0.79 0.79 0.80 0.82 0.85 0.89 0.93 0.96 0.98 0.98 0.98 1.01 1.04 1.11 1.16 1.17 1.20 1.22 1.27 1.31 1.29 1.30
1.11 1.11 1.10 1.08 1.04 0.99 0.97 0.93 0.90 0.88 0.87 0.84 0.82 0.84 0.85 0.85 0.83 0.81 0.79 0.78 0.78 0.79 0.81 0.83 0.86 0.90 0.93 0.95 0.97 0.98 1.01 1.04 1.08 1.12 1.15 1.19 1.21 1.23 1.27 1.32 1.33 1.33
1.10 1.09 1.07 1.04 1.01 0.98 0.94 0.89 0.85 0.85 0.83 0.82 0.82 0.84 0.83 0.81 0.78 0.76 0.76 0.77 0.78 0.79 0.81 0.82 0.86 0.90 0.93 0.96 0.98 0.97 1.01 1.04 1.09 1.11 1.14 1.16 1.21 1.21 1.25 1.30 1.30 1.29
1.08 1.06 1.03 0.99 0.96 0.92 0.88 0.85 0.84 0.83 0.81 0.79 0.80 0.82 0.79 0.78 0.74 0.74 0.75 0.75 0.77 0.78 0.78 0.81 0.84 0.89 0.93 0.95 0.97 0.99 1.01 1.03 1.08 1.09 1.13 1.16 1.20 1.25 1.27 1.29 1.30 1.29
1.02 1.01 0.97 0.95 0.91 0.89 0.85 0.84 0.84 0.82 0.81 0.80 0.80 0.77 0.76 0.74 0.73 0.74 0.75 0.75 0.76 0.77 0.77 0.80 0.83 0.86 0.92 0.94 0.96 0.97 1.01 1.03 1.08 1.12 1.12 1.15 1.20 1.23 1.28 1.29 1.29 1.28
0.99 0.95 0.93 0.90 0.87 0.85 0.83 0.82 0.81 0.80 0.79 0.78 0.74 0.74 0.74 0.73 0.72 0.73 0.74 0.76 0.76 0.77 0.80 0.83 0.85 0.87 0.90 0.93 0.93 0.95 0.99 1.05 1.08 1.11 1.13 1.15 1.17 1.18 1.25 1.31 1.32 1.29
0.93 0.90 0.88 0.85 0.83 0.82 0.81 0.80 0.79 0.77 0.77 0.73 0.72 0.72 0.73 0.72 0.72 0.73 0.75 0.76 0.77 0.79 0.81 0.84 0.86 0.88 0.91 0.92 0.94 0.96 0.98 1.03 1.08 1.11 1.13 1.15 1.16 1.18 1.22 1.28 1.30 1.30
0.88 0.87 0.84 0.83 0.80 0.80 0.78 0.77 0.76 0.75 0.75 0.74 0.73 0.74 0.72 0.74 0.76 0.76 0.76 0.77 0.78 0.80 0.82 0.84 0.86 0.89 0.91 0.94 0.95 0.97 0.98 1.01 1.07 1.10 1.13 1.15 1.17 1.19 1.23 1.26 1.29 1.29
0.84 0.83 0.81 0.80 0.79 0.78 0.76 0.76 0.76 0.76 0.77 0.75 0.75 0.74 0.74 0.74 0.75 0.77 0.77 0.78 0.78 0.80 0.82 0.84 0.86 0.89 0.92 0.94 0.97 1.00 1.01 1.03 1.06 1.10 1.12 1.14 1.17 1.20 1.23 1.25 1.28 1.31
0.81 0.80 0.79 0.79 0.78 0.76 0.76 0.76 0.77 0.76 0.76 0.76 0.76 0.73 0.74 0.75 0.75 0.77 0.78 0.79 0.82 0.84 0.85 0.86 0.89 0.91 0.93 0.94 0.96 0.99 1.01 1.02 1.05 1.07 1.11 1.14 1.17 1.19 1.22 1.25 1.26 1.28
0.78 0.79 0.79 0.78 0.77 0.77 0.78 0.78 0.77 0.77 0.76 0.74 0.76 0.75 0.75 0.75 0.77 0.78 0.81 0.82 0.84 0.85 0.86 0.88 0.90 0.92 0.92 0.93 0.95 0.96 0.97 0.98 1.01 1.04 1.08 1.12 1.15 1.16 1.18 1.21 1.25 1.27
0.80 0.80 0.79 0.79 0.79 0.79 0.78 0.79 0.78 0.77 0.76 0.76 0.77 0.76 0.76 0.77 0.78 0.79 0.82 0.85 0.85 0.86 0.88 0.90 0.90 0.90 0.90 0.91 0.93 0.94 0.95 0.96 0.98 1.01 1.05 1.08 1.11 1.12 1.14 1.15 1.18 1.24
0.81 0.81 0.81 0.80 0.80 0.79 0.79 0.79 0.78 0.77 0.77 0.77 0.77 0.78 0.79 0.80 0.82 0.83 0.84 0.84 0.86 0.88 0.88 0.88 0.86 0.85 0.86 0.88 0.89 0.91 0.93 0.93 0.96 0.99 1.01 1.03 1.06 1.09 1.09 1.10 1.12 1.16
0.81 0.81 0.80 0.81 0.79 0.78 0.79 0.79 0.78 0.78 0.78 0.78 0.78 0.80 0.81 0.83 0.84 0.84 0.84 0.84 0.83 0.84 0.84 0.83 0.82 0.83 0.84 0.86 0.87 0.88 0.89 0.91 0.94 0.95 0.97 0.99 1.01 1.02 1.02 1.05 1.08 1.12
0.81 0.81 0.81 0.79 0.79 0.79 0.79 0.79 0.79 0.79 0.78 0.78 0.79 0.81 0.81 0.83 0.85 0.83 0.81 0.80 0.79 0.78 0.78 0.79 0.79 0.81 0.82 0.84 0.85 0.87 0.88 0.88 0.89 0.91 0.93 0.95 0.96 0.96 0.94 0.98 1.04 1.09
0.81 0.81 0.80 0.79 0.79 0.79 0.79 0.80 0.80 0.80 0.79 0.79 0.80 0.80 0.82 0.84 0.83 0.81 0.80 0.79 0.79 0.79 0.78 0.78 0.79 0.80 0.81 0.83 0.84 0.86 0.87 0.88 0.89 0.89 0.89 0.90 0.92 0.93 0.94 0.96 0.99 1.03
0.82 0.80 0.79 0.79 0.79 0.80 0.81 0.81 0.80 0.80 0.79 0.79 0.79 0.81 0.82 0.81 0.79 0.79 0.78 0.79 0.79 0.78 0.78 0.79 0.79 0.81 0.82 0.83 0.85 0.86 0.87 0.87 0.86 0.86 0.85 0.86 0.88 0.90 0.91 0.93 0.96 0.98
0.82 0.80 0.79 0.79 0.80 0.80 0.80 0.80 0.80 0.79 0.79 0.79 0.79 0.79 0.78 0.77 0.78 0.77 0.78 0.78 0.79 0.79 0.78 0.79 0.80 0.81 0.81 0.82 0.83 0.84 0.84 0.85 0.84 0.85 0.85 0.85 0.86 0.86 0.87 0.88 0.91 0.92
0.81 0.80 0.79 0.79 0.79 0.80 0.79 0.79 0.78 0.78 0.78 0.79 0.78 0.77 0.77 0.77 0.77 0.77 0.78 0.79 0.80 0.80 0.79 0.78 0.80 0.81 0.82 0.82 0.83 0.83 0.84 0.84 0.84 0.84 0.83 0.83 0.84 0.85 0.86 0.87 0.88 0.90
0.81 0.80 0.79 0.79 0.78 0.78 0.78 0.77 0.77 0.77 0.76 0.78 0.78 0.78 0.78 0.78 0.78 0.78 0.77 0.77 0.79 0.79 0.78 0.77 0.78 0.80 0.80 0.80 0.81 0.81 0.82 0.82 0.82 0.81 0.79 0.79 0.80 0.82 0.83 0.85 0.86 0.87
0.82 0.81 0.79 0.78 0.78 0.77 0.75 0.75 0.75 0.75 0.76 0.78 0.77 0.77 0.76 0.76 0.76 0.77 0.77 0.77 0.77 0.78 0.77 0.77 0.78 0.79 0.79 0.79 0.79 0.79 0.79 0.79 0.79 0.79 0.78 0.77 0.78 0.79 0.80 0.81 0.83 0.84
0.83 0.82 0.79 0.78 0.78 0.76 0.75 0.75 0.75 0.75 0.75 0.77 0.75 0.75 0.74 0.74 0.75 0.75 0.76 0.77 0.77 0.77 0.78 0.76 0.77 0.78 0.78 0.78 0.78 0.78 0.78 0.76 0.77 0.76 0.76 0.76 0.76 0.78 0.79 0.79 0.80 0.80
0.84 0.82 0.80 0.79 0.77 0.76 0.76 0.74 0.73 0.74 0.75 0.76 0.75 0.74 0.73 0.73 0.73 0.73 0.73 0.74 0.75 0.76 0.77 0.75 0.75 0.76 0.77 0.78 0.79 0.78 0.78 0.77 0.76 0.74 0.72 0.73 0.74 0.75 0.77 0.77 0.78 0.78
0.84 0.82 0.81 0.79 0.78 0.77 0.76 0.75 0.75 0.74 0.75 0.75 0.74 0.74 0.73 0.73 0.73 0.72 0.71 0.72 0.73 0.73 0.73 0.74 0.72 0.73 0.74 0.76 0.77 0.77 0.77 0.76 0.75 0.71 0.69 0.70 0.71 0.71 0.70 0.72 0.74 0.75

ECMWFNIL_prec_pwat_129.txt.gz
Precipitable_Water
1.22 1.18 1.13 1.10 1.09 1.10 1.09 1.08 1.10 1.07 1.05 1.04 1.00 0.96 0.92 0.93 0.94 0.92 0.92 0.92 0.90 0.87 0.86 0.86 0.87 0.88 0.89 0.90 0.92 0.92 0.93 0.95 0.97 0.99 0.99 0.99 1.01 1.03 1.03 1.04 1.09 1.14
1.18 1.14 1.12 1.09 1.08 1.09 1.11 1.11 1.09 1.06 1.02 1.01 0.98 0.95 0.94 0.93 0.93 0.91 0.89 0.86 0.85 0.83 0.85 0.86 0.87 0.87 0.88 0.89 0.92 0.93 0.94 0.97 0.96 1.02 0.99 1.02 1.06 1.08 1.07 1.11 1.14 1.18
1.16 1.13 1.12 1.10 1.08 1.09 1.09 1.11 1.09 1.05 1.01 0.99 0.96 0.94 0.92 0.92 0.88 0.87 0.85 0.82 0.80 0.82 0.83 0.85 0.85 0.86 0.88 0.90 0.92 0.94 0.95 0.97 0.95 1.02 1.04 1.04 1.08 1.08 1.12 1.17 1.17 1.18
1.18 1.16 1.13 1.12 1.11 1.09 1.11 1.09 1.05 1.02 1.00 0.95 0.92 0.91 0.89 0.87 0.84 0.82 0.81 0.80 0.79 0.79 0.82 0.83 0.84 0.86 0.89 0.90 0.92 0.92 0.94 0.96 1.02 1.06 1.04 1.06 1.08 1.10 1.14 1.17 1.17 1.18
1.17 1.15 1.13 1.12 1.11 1.10 1.09 1.06 1.00 0.97 0.95 0.93 0.91 0.88 0.84 0.81 0.79 0.77 0.77 0.78 0.79 0.80 0.81 0.82 0.85 0.87 0.89 0.90 0.92 0.91 0.94 0.94 0.98 1.02 1.01 1.01 1.06 1.10 1.14 1.16 1.17 1.16
1.16 1.15 1.12 1.10 1.10 1.09 1.06 1.02 0.98 0.95 0.93 0.88 0.85 0.84 0.80 0.78 0.77 0.75 0.76 0.78 0.80 0.81 0.81 0.84 0.85 0.87 0.89 0.90 0.92 0.93 0.94 0.94 0.97 0.98 0.98 1.01 1.04 1.10 1.14 1.15 1.14 1.15
1.13 1.12 1.10 1.11 1.10 1.09 1.05 1.00 0.96 0.93 0.90 0.86 0.83 0.79 0.76 0.74 0.75 0.76 0.78 0.80 0.81 0.82 0.82 0.83 0.84 0.85 0.90 0.91 0.93 0.93 0.94 0.96 0.98 0.99 0.98 1.03 1.06 1.08 1.14 1.15 1.16 1.17
1.12 1.11 1.10 1.09 1.07 1.05 0.99 0.94 0.92 0.89 0.86 0.83 0.77 0.76 0.75 0.74 0.75 0.78 0.80 0.82 0.82 0.82 0.83 0.85 0.85 0.89 0.92 0.93 0.92 0.92 0.93 0.96 0.96 0.97 0.96 0.99 1.02 1.03 1.06 1.10 1.11 1.09
1.11 1.08 1.06 1.05 1.02 0.99 0.94 0.92 0.90 0.87 0.84 0.78 0.75 0.74 0.76 0.76 0.77 0.79 0.81 0.83 0.82 0.82 0.83 0.84 0.87 0.90 0.92 0.92 0.92 0.92 0.91 0.92 0.95 0.95 0.95 0.94 0.94 0.97 1.00 1.03 1.02 1.02
1.08 1.06 1.02 1.00 0.96 0.95 0.92 0.89 0.87 0.84 0.81 0.77 0.75 0.75 0.75 0.78 0.81 0.81 0.82 0.82 0.81 0.82 0.83 0.85 0.87 0.88 0.89 0.90 0.91 0.91 0.91 0.91 0.93 0.94 0.95 0.95 0.96 0.97 0.99 1.00 0.98 0.96
1.06 1.03 0.99 0.97 0.95 0.95 0.90 0.87 0.84 0.82 0.79 0.75 0.75 0.75 0.77 0.79 0.81 0.82 0.82 0.82 0.81 0.82 0.83 0.84 0.84 0.85 0.84 0.86 0.88 0.91 0.91 0.91 0.92 0.92 0.94 0.95 0.96 0.97 0.98 0.98 0.96 0.95
1.05 1.01 0.99 0.98 0.97 0.94 0.89 0.85 0.83 0.80 0.77 0.76 0.77 0.76 0.78 0.80 0.81 0.82 0.82 0.82 0.82 0.83 0.82 0.81 0.81 0.81 0.81 0.82 0.84 0.87 0.89 0.90 0.90 0.91 0.92 0.93 0.94 0.95 0.96 0.96 0.94 0.94
1.06 1.03 1.01 0.99 0.96 0.92 0.87 0.83 0.80 0.79 0.77 0.76 0.79 0.79 0.78 0.79 0.81 0.82 0.83 0.82 0.81 0.80 0.79 0.78 0.78 0.79 0.80 0.81 0.82 0.85 0.87 0.87 0.87 0.88 0.89 0.92 0.93 0.94 0.96 0.96 0.95 0.94
1.05 1.02 0.99 0.97 0.95 0.90 0.85 0.82 0.81 0.79 0.79 0.80 0.81 0.80 0.80 0.80 0.81 0.80 0.80 0.80 0.80 0.79 0.79 0.78 0.77 0.77 0.78 0.80 0.80 0.83 0.85 0.85 0.86 0.86 0.88 0.89 0.91 0.92 0.93 0.94 0.94 0.93
1.01 0.97 0.95 0.93 0.90 0.87 0.84 0.82 0.80 0.81 0.81 0.81 0.82 0.82 0.82 0.82 0.82 0.81 0.79 0.78 0.79 0.79 0.78 0.78 0.77 0.77 0.78 0.78 0.79 0.81 0.86 0.84 0.85 0.86 0.86 0.87 0.88 0.89 0.91 0.92 0.93 0.94
0.98 0.95 0.93 0.91 0.88 0.84 0.83 0.82 0.82 0.82 0.82 0.82 0.83 0.82 0.82 0.82 0.82 0.81 0.80 0.78 0.77 0.78 0.78 0.77 0.77 0.78 0.79 0.80 0.81 0.81 0.85 0.84 0.85 0.85 0.85 0.86 0.86 0.87 0.88 0.90 0.90 0.91
0.97 0.95 0.92 0.89 0.87 0.85 0.84 0.83 0.83 0.84 0.84 0.84 0.83 0.83 0.83 0.83 0.82 0.80 0.79 0.79 0.78 0.77 0.77 0.77 0.77 0.78 0.79 0.81 0.81 0.82 0.83 0.84 0.83 0.83 0.83 0.83 0.84 0.83 0.82 0.84 0.86 0.89
0.98 0.95 0.92 0.88 0.87 0.84 0.83 0.84 0.85 0.85 0.84 0.84 0.84 0.83 0.83 0.84 0.81 0.80 0.80 0.79 0.78 0.78 0.76 0.76 0.77 0.78 0.79 0.79 0.80 0.79 0.81 0.82 0.82 0.81 0.81 0.81 0.81 0.82 0.82 0.83 0.84 0.85
0.95 0.93 0.89 0.86 0.84 0.84 0.84 0.85 0.85 0.84 0.84 0.83 0.82 0.84 0.83 0.81 0.80 0.80 0.79 0.79 0.78 0.76 0.75 0.76 0.76 0.76 0.76 0.77 0.78 0.78 0.79 0.80 0.80 0.80 0.78 0.78 0.80 0.81 0.82 0.82 0.82 0.82
0.94 0.91 0.87 0.85 0.84 0.85 0.85 0.85 0.84 0.83 0.84 0.84 0.84 0.84 0.82 0.81 0.80 0.79 0.78 0.77 0.76 0.76 0.75 0.75 0.74 0.74 0.75 0.76 0.76 0.77 0.78 0.78 0.78 0.77 0.76 0.75 0.76 0.77 0.78 0.79 0.80 0.79
0.92 0.89 0.86 0.85 0.84 0.85 0.85 0.84 0.83 0.83 0.83 0.84 0.84 0.82 0.81 0.79 0.78 0.77 0.77 0.77 0.77 0.77 0.75 0.73 0.73 0.74 0.74 0.75 0.75 0.76 0.77 0.79 0.78 0.76 0.74 0.73 0.72 0.73 0.73 0.75 0.77 0.79
0.91 0.88 0.86 0.86 0.85 0.84 0.83 0.82 0.83 0.83 0.82 0.84 0.83 0.82 0.82 0.82 0.80 0.80 0.77 0.76 0.77 0.77 0.75 0.73 0.74 0.74 0.75 0.75 0.75 0.75 0.77 0.77 0.76 0.75 0.73 0.72 0.70 0.70 0.69 0.70 0.72 0.74
0.91 0.88 0.86 0.85 0.84 0.83 0.82 0.82 0.82 0.83 0.84 0.85 0.82 0.81 0.80 0.79 0.78 0.77 0.76 0.75 0.75 0.76 0.76 0.74 0.74 0.75 0.75 0.75 0.75 0.76 0.76 0.76 0.75 0.73 0.72 0.70 0.68 0.68 0.67 0.66 0.67 0.68
0.91 0.89 0.86 0.84 0.83 0.82 0.82 0.83 0.83 0.84 0.83 0.84 0.81 0.79 0.78 0.78 0.77 0.75 0.75 0.75 0.74 0.74 0.75 0.74 0.74 0.75 0.75 0.74 0.73 0.74 0.74 0.74 0.72 0.69 0.67 0.65 0.63 0.63 0.62 0.61 0.60 0.60
0.91 0.89 0.87 0.85 0.82 0.82 0.83 0.82 0.82 0.82 0.83 0.83 0.81 0.79 0.76 0.75 0.74 0.73 0.73 0.74 0.75 0.75 0.75 0.74 0.73 0.73 0.73 0.73 0.72 0.71 0.70 0.70 0.66 0.63 0.60 0.58 0.55 0.52 0.52 0.51 0.50 0.49
0.92 0.89 0.87 0.86 0.83 0.83 0.83 0.83 0.83 0.82 0.80 0.79 0.78 0.76 0.74 0.73 0.72 0.71 0.69 0.70 0.72 0.72 0.72 0.72 0.70 0.68 0.68 0.68 0.67 0.65 0.63 0.61 0.60 0.55 0.49 0.46 0.44 0.43 0.41 0.40 0.40 0.39